[[{"header":{"parameterUnit":"m.s-1","parameterCategory":1,"la1":30.6,"la2":29.2853,"lo1":-89.7004,"lo2":-87.6739,"dy":0.0162,"dx":0.0183,"nx":112,"ny":82,"refTime":"2023-06-30T12:00:00:Z","depth":0,"parameterNumber":2,"parameterNumberName":"U-component_of_WINDS"},"data":[0.0,0.0,0.0,0.0,0.0,0.0,0.0,0.0,0.0,0.0,0.0,0.0,0.0,0.0,0.0,0.0,0.0,0.0,0.0,0.0,0.0,0.0,0.0,0.0,0.0,0.0,0.0,0.0,0.0,0.0,0.0,0.0,0.0,0.0,0.0,0.0,0.0,0.0,0.0,0.0,0.0,0.0,0.0,0.0,0.0,0.0,0.0,0.0,0.0,0.0,0.0,0.0,0.0,0.0,0.0,0.0,0.0,0.0,0.0,0.0,0.0,0.0,0.0,0.0,0.0,0.0,0.0,0.0,0.0,0.0,0.0,0.0,0.0,0.0,0.0,0.0,0.0,0.0,0.0,0.0,0.0,0.0,0.0,0.0,0.0,0.0,0.0,0.0,0.0,0.0,0.0,-3.1433,-3.2981,-3.3807,-3.3807,-3.3807,-3.243,-2.9207,0.0,0.0,0.0,0.0,0.0,0.0,0.0,0.0,0.0,0.0,0.0,0.0,0.0,0.0,0.0,0.0,0.0,0.0,0.0,0.0,0.0,0.0,0.0,0.0,0.0,0.0,0.0,0.0,0.0,0.0,0.0,0.0,0.0,0.0,0.0,0.0,0.0,0.0,0.0,0.0,0.0,0.0,0.0,0.0,0.0,0.0,0.0,0.0,0.0,0.0,0.0,0.0,0.0,0.0,0.0,0.0,0.0,0.0,0.0,0.0,0.0,0.0,0.0,0.0,0.0,0.0,0.0,0.0,0.0,0.0,0.0,0.0,0.0,0.0,0.0,0.0,0.0,0.0,0.0,0.0,0.0,0.0,0.0,0.0,0.0,0.0,0.0,0.0,0.0,0.0,0.0,0.0,0.0,0.0,0.0,0.0,0.0,0.0,0.0,0.0,0.0,0.0,0.0,0.0,-2.9867,-3.3091,-3.3642,-3.3807,-3.3807,-3.3807,-3.243,-2.9207,0.0,0.0,0.0,0.0,0.0,0.0,0.0,0.0,0.0,0.0,0.0,0.0,0.0,0.0,0.0,0.0,0.0,0.0,0.0,0.0,0.0,0.0,0.0,0.0,0.0,0.0,0.0,0.0,0.0,0.0,0.0,0.0,0.0,0.0,0.0,0.0,0.0,0.0,0.0,0.0,0.0,0.0,0.0,0.0,0.0,0.0,0.0,0.0,0.0,0.0,0.0,0.0,0.0,0.0,0.0,0.0,0.0,0.0,0.0,0.0,0.0,0.0,0.0,0.0,0.0,0.0,0.0,0.0,0.0,0.0,0.0,0.0,0.0,0.0,0.0,0.0,0.0,0.0,0.0,0.0,0.0,0.0,0.0,0.0,0.0,0.0,0.0,0.0,0.0,0.0,0.0,0.0,0.0,0.0,0.0,0.0,0.0,0.0,0.0,0.0,0.0,0.0,0.0,-2.961,-3.2173,-3.3642,-3.3807,-3.3807,-3.3807,-3.3807,-3.243,-2.9207,-2.9005,0.0,0.0,0.0,0.0,0.0,0.0,0.0,0.0,0.0,0.0,0.0,0.0,0.0,0.0,0.0,0.0,0.0,0.0,0.0,0.0,0.0,0.0,0.0,0.0,0.0,0.0,0.0,0.0,0.0,0.0,0.0,0.0,0.0,0.0,0.0,0.0,0.0,0.0,0.0,0.0,0.0,0.0,0.0,0.0,0.0,0.0,0.0,0.0,0.0,0.0,0.0,0.0,0.0,0.0,0.0,0.0,0.0,0.0,0.0,0.0,0.0,0.0,0.0,0.0,0.0,0.0,0.0,0.0,0.0,0.0,0.0,0.0,0.0,0.0,0.0,0.0,0.0,0.0,0.0,0.0,0.0,0.0,0.0,0.0,0.0,0.0,0.0,0.0,0.0,0.0,0.0,0.0,0.0,0.0,0.0,0.0,0.0,0.0,0.0,0.0,0.0,0.0,-3.1476,-3.3385,-3.3752,-3.3807,-3.3807,-3.3807,-3.3807,-3.243,-2.9207,-2.9005,0.0,0.0,0.0,0.0,0.0,0.0,0.0,0.0,0.0,0.0,0.0,0.0,0.0,0.0,0.0,0.0,0.0,0.0,0.0,0.0,0.0,0.0,0.0,0.0,0.0,0.0,0.0,0.0,0.0,0.0,0.0,0.0,0.0,0.0,0.0,0.0,0.0,0.0,0.0,0.0,0.0,0.0,0.0,0.0,0.0,0.0,0.0,0.0,0.0,0.0,0.0,0.0,0.0,0.0,0.0,0.0,0.0,0.0,0.0,0.0,0.0,0.0,0.0,0.0,0.0,0.0,0.0,0.0,0.0,0.0,0.0,0.0,0.0,0.0,0.0,0.0,0.0,0.0,0.0,0.0,0.0,0.0,0.0,0.0,0.0,0.0,0.0,0.0,0.0,0.0,0.0,0.0,0.0,0.0,0.0,0.0,0.0,0.0,0.0,0.0,0.0,0.0,-3.0503,-3.2137,-3.3642,-3.3807,-3.3807,-3.3807,-3.3807,-3.243,-2.9207,-2.9005,0.0,0.0,0.0,0.0,0.0,0.0,0.0,0.0,0.0,0.0,0.0,0.0,0.0,0.0,0.0,0.0,0.0,0.0,0.0,0.0,0.0,0.0,0.0,0.0,0.0,0.0,0.0,0.0,0.0,0.0,0.0,0.0,0.0,0.0,0.0,0.0,0.0,0.0,0.0,0.0,0.0,0.0,0.0,0.0,0.0,0.0,0.0,0.0,0.0,0.0,0.0,0.0,0.0,0.0,0.0,0.0,0.0,0.0,0.0,0.0,0.0,0.0,0.0,0.0,0.0,0.0,0.0,0.0,0.0,0.0,0.0,0.0,0.0,0.0,0.0,0.0,0.0,0.0,0.0,0.0,0.0,0.0,0.0,0.0,0.0,0.0,0.0,0.0,0.0,0.0,0.0,0.0,0.0,0.0,0.0,0.0,0.0,0.0,0.0,0.0,0.0,0.0,-3.1292,-3.3128,0.0,-3.3807,-3.3807,-3.3807,-3.3807,-3.243,-2.9207,0.0,0.0,0.0,0.0,0.0,0.0,0.0,0.0,0.0,0.0,0.0,0.0,0.0,0.0,0.0,0.0,0.0,0.0,0.0,0.0,0.0,0.0,0.0,0.0,0.0,0.0,0.0,0.0,0.0,0.0,0.0,0.0,0.0,0.0,0.0,0.0,0.0,0.0,0.0,0.0,0.0,0.0,0.0,0.0,0.0,0.0,0.0,0.0,0.0,0.0,0.0,0.0,0.0,0.0,0.0,0.0,0.0,0.0,0.0,0.0,0.0,0.0,0.0,0.0,0.0,0.0,0.0,0.0,0.0,0.0,0.0,0.0,0.0,0.0,0.0,0.0,0.0,0.0,0.0,0.0,0.0,0.0,0.0,0.0,0.0,0.0,0.0,0.0,0.0,0.0,0.0,0.0,0.0,0.0,0.0,0.0,0.0,0.0,0.0,0.0,0.0,0.0,-2.9005,-3.1812,-3.3807,0.0,-3.3807,-3.3807,-3.3807,-3.3807,-3.243,-2.9207,0.0,0.0,0.0,0.0,0.0,0.0,0.0,0.0,0.0,0.0,0.0,0.0,0.0,0.0,0.0,0.0,0.0,0.0,0.0,0.0,0.0,0.0,0.0,0.0,0.0,0.0,0.0,0.0,0.0,0.0,0.0,0.0,0.0,0.0,0.0,0.0,0.0,0.0,0.0,0.0,0.0,0.0,0.0,0.0,0.0,0.0,0.0,0.0,0.0,0.0,0.0,0.0,0.0,0.0,0.0,0.0,0.0,0.0,0.0,0.0,0.0,0.0,0.0,0.0,0.0,0.0,0.0,0.0,0.0,0.0,0.0,0.0,0.0,0.0,0.0,0.0,0.0,0.0,0.0,0.0,0.0,0.0,0.0,0.0,0.0,0.0,0.0,0.0,0.0,0.0,0.0,0.0,0.0,0.0,0.0,0.0,0.0,0.0,0.0,0.0,0.0,0.0,-2.9005,-3.1812,-3.3807,-3.3807,-3.3807,-3.3807,-3.3807,-3.3807,-3.243,0.0,0.0,0.0,0.0,0.0,0.0,0.0,0.0,0.0,0.0,0.0,0.0,0.0,0.0,0.0,0.0,0.0,0.0,0.0,0.0,0.0,0.0,0.0,0.0,0.0,0.0,0.0,0.0,0.0,0.0,0.0,0.0,0.0,0.0,0.0,0.0,0.0,0.0,0.0,0.0,0.0,0.0,0.0,0.0,0.0,0.0,0.0,0.0,0.0,0.0,0.0,0.0,0.0,0.0,0.0,0.0,0.0,0.0,0.0,0.0,0.0,0.0,0.0,0.0,0.0,0.0,0.0,0.0,0.0,0.0,0.0,0.0,0.0,0.0,0.0,0.0,0.0,0.0,0.0,0.0,0.0,0.0,0.0,0.0,0.0,0.0,0.0,0.0,0.0,0.0,0.0,0.0,0.0,0.0,0.0,0.0,0.0,0.0,0.0,0.0,0.0,0.0,0.0,-2.9005,-3.1812,-3.3807,-3.3807,-3.3807,-3.3807,-3.3807,-3.3807,-3.243,-2.9207,0.0,0.0,0.0,0.0,0.0,0.0,0.0,0.0,0.0,0.0,0.0,0.0,0.0,0.0,0.0,0.0,0.0,0.0,0.0,0.0,0.0,0.0,0.0,0.0,0.0,0.0,0.0,0.0,0.0,0.0,0.0,0.0,0.0,0.0,0.0,0.0,0.0,0.0,0.0,0.0,0.0,0.0,0.0,0.0,0.0,0.0,0.0,0.0,0.0,0.0,0.0,0.0,0.0,0.0,0.0,0.0,0.0,0.0,0.0,0.0,0.0,0.0,0.0,0.0,0.0,0.0,0.0,0.0,0.0,0.0,0.0,0.0,0.0,0.0,0.0,0.0,0.0,0.0,0.0,0.0,0.0,0.0,0.0,0.0,0.0,0.0,0.0,0.0,0.0,0.0,0.0,0.0,0.0,0.0,0.0,0.0,0.0,0.0,0.0,0.0,0.0,0.0,-2.9445,-3.2008,-3.3917,-3.4234,-3.399,-3.3935,-3.4252,-3.399,-3.2706,-3.0118,0.0,0.0,0.0,0.0,0.0,0.0,0.0,0.0,0.0,0.0,0.0,0.0,0.0,0.0,0.0,0.0,0.0,0.0,0.0,0.0,0.0,0.0,0.0,0.0,0.0,0.0,0.0,0.0,0.0,0.0,0.0,0.0,0.0,0.0,0.0,0.0,0.0,0.0,0.0,0.0,0.0,0.0,0.0,0.0,0.0,0.0,0.0,0.0,0.0,0.0,0.0,0.0,0.0,0.0,0.0,0.0,0.0,0.0,0.0,0.0,0.0,0.0,0.0,0.0,0.0,0.0,0.0,0.0,0.0,0.0,0.0,0.0,0.0,0.0,0.0,0.0,0.0,0.0,0.0,0.0,0.0,0.0,0.0,0.0,0.0,0.0,0.0,0.0,0.0,0.0,0.0,0.0,0.0,0.0,0.0,0.0,0.0,0.0,0.0,0.0,0.0,0.0,-3.0228,-3.2485,-3.4321,-3.5041,-3.4472,-3.4302,-3.4949,-3.4325,-3.3183,-3.1507,0.0,0.0,0.0,0.0,0.0,0.0,0.0,0.0,0.0,0.0,0.0,0.0,0.0,0.0,0.0,0.0,0.0,0.0,0.0,0.0,0.0,0.0,0.0,0.0,0.0,0.0,0.0,0.0,0.0,0.0,0.0,0.0,0.0,0.0,0.0,0.0,0.0,0.0,0.0,0.0,0.0,0.0,0.0,0.0,0.0,0.0,0.0,0.0,0.0,0.0,0.0,0.0,0.0,0.0,0.0,0.0,0.0,0.0,0.0,0.0,-2.9512,0.0,0.0,0.0,0.0,0.0,0.0,0.0,0.0,0.0,0.0,0.0,0.0,0.0,0.0,0.0,0.0,0.0,0.0,0.0,0.0,0.0,0.0,0.0,0.0,0.0,0.0,0.0,0.0,0.0,0.0,0.0,0.0,0.0,0.0,0.0,0.0,0.0,0.0,0.0,0.0,0.0,-3.1109,-3.3844,-3.5826,-3.6009,-3.5862,-3.5569,-3.5041,-3.4839,-3.3775,-3.1544,0.0,0.0,0.0,0.0,0.0,0.0,0.0,0.0,0.0,0.0,0.0,0.0,0.0,0.0,0.0,0.0,0.0,0.0,0.0,0.0,0.0,0.0,0.0,0.0,0.0,0.0,0.0,0.0,0.0,0.0,0.0,0.0,0.0,0.0,0.0,0.0,0.0,0.0,0.0,0.0,0.0,0.0,0.0,0.0,0.0,0.0,0.0,0.0,0.0,0.0,0.0,0.0,0.0,0.0,0.0,0.0,0.0,0.0,0.0,0.0,0.0,-3.0063,0.0,0.0,0.0,0.0,0.0,0.0,0.0,0.0,0.0,0.0,0.0,0.0,0.0,0.0,0.0,0.0,0.0,0.0,0.0,0.0,0.0,0.0,0.0,0.0,0.0,0.0,0.0,0.0,0.0,0.0,0.0,0.0,0.0,0.0,0.0,0.0,0.0,0.0,0.0,0.0,-3.188,-3.4504,-3.645,-3.685,-3.6523,-3.6266,-3.6211,-3.5862,-3.4912,-3.3238,-3.2394,0.0,0.0,0.0,0.0,0.0,0.0,0.0,0.0,0.0,0.0,0.0,0.0,0.0,0.0,0.0,0.0,0.0,0.0,0.0,0.0,0.0,0.0,0.0,0.0,0.0,0.0,0.0,0.0,0.0,0.0,0.0,0.0,0.0,0.0,0.0,0.0,0.0,0.0,0.0,0.0,0.0,0.0,0.0,0.0,0.0,0.0,0.0,0.0,0.0,0.0,0.0,0.0,0.0,-3.2963,-3.344,-3.405,-3.3385,-3.3458,-3.4105,-3.4486,-3.4321,-3.3697,0.0,0.0,0.0,0.0,0.0,0.0,0.0,0.0,0.0,0.0,0.0,0.0,0.0,0.0,0.0,0.0,0.0,0.0,0.0,0.0,0.0,0.0,0.0,0.0,0.0,-3.0051,-2.9922,0.0,0.0,0.0,0.0,0.0,0.0,0.0,0.0,0.0,0.0,0.0,0.0,-3.2638,-3.511,-3.6964,-3.7639,-3.711,-3.6927,-3.7456,-3.6905,-3.6138,-3.5279,-3.3848,-3.2583,0.0,0.0,0.0,0.0,0.0,0.0,0.0,0.0,0.0,0.0,0.0,0.0,0.0,0.0,0.0,0.0,0.0,0.0,0.0,0.0,0.0,0.0,0.0,0.0,0.0,0.0,0.0,0.0,0.0,0.0,0.0,0.0,-2.9741,-3.1085,0.0,0.0,0.0,0.0,0.0,0.0,0.0,0.0,0.0,0.0,0.0,0.0,0.0,0.0,-3.533,-3.6927,-3.7734,-3.7753,-3.915,-3.9884,-3.9976,-3.9866,-3.9884,-3.9903,-3.8615,0.0,-3.377,-3.3568,0.0,0.0,0.0,0.0,0.0,0.0,0.0,0.0,0.0,0.0,0.0,0.0,0.0,0.0,0.0,0.0,0.0,0.0,0.0,0.0,0.0,0.0,-3.5073,-3.5293,-3.4229,-3.3568,0.0,-3.1274,-2.8246,-3.0368,-2.9732,0.0,0.0,0.0,0.0,0.0,0.0,0.0,-3.3605,-3.6413,-3.8414,-3.8524,-3.845,-3.8138,-3.7547,-3.7401,-3.6997,-3.6174,-3.5224,-3.4014,-3.2491,-3.3109,0.0,0.0,0.0,0.0,0.0,0.0,0.0,0.0,0.0,0.0,0.0,0.0,0.0,0.0,0.0,0.0,0.0,0.0,0.0,0.0,0.0,0.0,0.0,0.0,0.0,0.0,0.0,0.0,0.0,-3.008,-3.0944,-3.2559,-3.2265,-3.1476,0.0,0.0,0.0,0.0,0.0,0.0,0.0,0.0,0.0,-3.5165,-3.6853,-3.7936,-3.8322,-4.0359,-4.1405,-4.1405,-4.2103,-4.269,-4.3095,-4.2671,-4.2708,-4.3058,-4.1901,-4.0322,-3.8469,-3.711,-3.6285,-3.5748,0.0,0.0,0.0,0.0,-3.0136,-3.0356,-3.0356,-3.1403,0.0,0.0,0.0,0.0,0.0,0.0,0.0,0.0,0.0,0.0,0.0,0.0,0.0,-3.6083,-3.6064,-3.6207,-3.7386,-3.533,-3.3159,0.0,-3.1806,-3.084,-3.0301,0.0,0.0,0.0,0.0,0.0,-3.5147,-3.7643,-3.9203,-3.8762,-3.9093,-3.9038,-3.823,-3.8175,-3.7826,-3.7033,-3.6615,-3.5679,-3.4014,-3.4289,-3.317,0.0,0.0,0.0,0.0,0.0,0.0,0.0,0.0,0.0,0.0,0.0,0.0,0.0,0.0,0.0,0.0,0.0,0.0,0.0,0.0,0.0,0.0,0.0,0.0,0.0,0.0,0.0,0.0,-3.1144,-3.2063,-3.3899,-3.3605,-3.2871,0.0,0.0,0.0,0.0,0.0,0.0,-3.6215,-3.6872,-3.7588,-3.8414,-4.0194,-4.1222,-4.1423,-4.3222,-4.4103,-4.4103,-4.4103,-4.4433,-4.5002,-4.4378,-4.4433,-4.4984,-4.436,-4.3773,-4.3039,-4.0616,-3.9148,-3.8392,-3.797,-3.6303,-3.4105,-3.3702,-3.344,-3.3256,-3.3256,-3.4321,-3.5679,-3.5679,0.0,-3.4669,-3.4247,0.0,0.0,0.0,0.0,-3.3288,-3.4688,-3.5367,-3.5973,-3.7221,-3.7991,-3.8579,-3.9184,-3.8524,-3.7382,0.0,-3.4839,-3.3775,-3.2577,0.0,0.0,0.0,0.0,-3.6178,-3.6835,-3.8836,-3.9974,-3.9386,-3.9845,-3.9882,-3.9074,-3.9019,-3.8652,-3.786,-3.7621,-3.6942,-3.5683,-3.5224,-3.416,-3.2357,0.0,0.0,0.0,0.0,0.0,0.0,0.0,0.0,0.0,0.0,0.0,0.0,0.0,0.0,0.0,0.0,0.0,0.0,0.0,0.0,0.0,0.0,0.0,0.0,0.0,0.0,0.0,0.0,0.0,-3.4656,-3.6949,0.0,0.0,0.0,0.0,-3.6101,-3.6138,-3.7239,-3.9533,-3.9698,-4.1111,-4.4177,-4.4397,-4.4837,-4.559,-4.5718,-4.5773,-4.5773,-4.5773,-4.5792,-4.5847,-4.5792,-4.5792,-4.5847,-4.5792,-4.5755,-4.5535,-4.3112,-4.1644,-4.0765,-3.9239,-3.8542,-3.8212,-3.6688,-3.7055,-3.834,-3.834,-3.9405,-4.0728,-4.0728,-3.9184,-3.7015,-3.5426,-3.4344,0.0,0.0,-3.5973,-3.7401,-3.823,-3.9588,-4.0747,-4.0838,-4.0893,-4.093,-4.0967,-3.9753,-3.9056,0.0,-3.9478,-3.8377,-3.8303,0.0,-3.7863,-3.6285,-3.7459,-3.8542,-3.8579,-4.0029,-4.1022,-4.0985,-4.1022,-4.0726,-3.99,-3.9827,-3.9496,-3.8689,-3.7918,-3.7456,-3.7382,-3.5862,-3.4949,-3.4821,-3.2577,0.0,0.0,0.0,0.0,0.0,0.0,0.0,0.0,0.0,0.0,0.0,0.0,0.0,0.0,0.0,0.0,0.0,0.0,0.0,0.0,0.0,0.0,0.0,0.0,0.0,0.0,0.0,0.0,-3.7077,-3.8175,0.0,0.0,-3.9129,-3.9441,-3.9405,-4.0836,-4.2084,-4.2947,-4.3479,-4.4287,-4.5443,-4.5957,-4.6379,-4.6654,-4.7186,-4.7443,-4.7443,-4.7443,-4.7443,-4.7443,-4.7443,-4.7443,-4.7443,-4.7443,-4.715,-4.6599,-4.5737,-4.4599,-4.3352,-4.28,-4.1937,-4.0946,-4.0377,-4.0194,-4.0233,-4.0233,-4.0618,-4.1095,-4.1095,-4.0524,-3.9717,-3.9114,-3.8728,-3.8545,-3.8839,-3.9368,-3.9882,-4.0159,-4.0673,-4.1095,-4.1095,-4.1515,-4.1882,-4.1882,-4.1827,-4.1956,-4.2525,-4.0506,-3.8707,-3.8707,-3.957,-3.9698,-3.8083,-3.9221,-4.0233,-4.0233,-4.1203,-4.168,-4.115,-4.157,-4.1552,-4.0744,-4.0194,-3.9772,-3.9478,-3.8707,-3.8028,-3.7529,-3.6927,-3.6101,-3.5023,-3.416,-3.2944,0.0,0.0,0.0,0.0,0.0,0.0,0.0,0.0,0.0,0.0,0.0,0.0,0.0,0.0,0.0,0.0,0.0,0.0,0.0,0.0,0.0,0.0,0.0,0.0,0.0,0.0,-3.7059,-3.9258,-3.9992,-4.0634,-4.1442,-4.1754,-4.2139,-4.269,-4.4213,-4.5351,-4.5902,-4.6416,-4.6966,-4.7535,-4.8086,-4.8342,-4.8342,-4.8893,-4.915,-4.915,-4.915,-4.915,-4.915,-4.915,-4.8838,-4.8343,-4.8912,-4.836,-4.7131,-4.77,-4.715,-4.5847,-4.5333,-4.4452,-4.3516,-4.3516,-4.3185,-4.2727,-4.2727,-4.2727,-4.2655,-4.2398,-4.2139,-4.1864,-4.1589,-4.1315,-4.115,-4.1425,-4.1699,-4.1974,-4.2233,-4.2508,-4.2727,-4.2727,-4.313,-4.3516,-4.3516,-4.3497,-4.3662,-4.4212,-4.2139,-4.0157,-3.9606,-4.038,-4.0545,-3.8946,-3.9625,-4.0288,-4.0288,-4.124,-4.1682,-4.115,-4.2066,-4.2378,-4.1572,-4.0524,-3.99,-3.99,-3.8891,-3.8175,-3.7933,-3.7092,-3.6138,-3.5023,-3.4197,-3.3115,-3.1806,0.0,0.0,0.0,0.0,0.0,0.0,0.0,0.0,0.0,0.0,0.0,0.0,0.0,0.0,0.0,0.0,0.0,0.0,0.0,0.0,0.0,0.0,0.0,-3.5169,-3.7261,-3.9423,-4.1022,-4.2616,-4.3883,-4.4691,-4.5498,-4.5993,-4.6012,-4.603,-4.6728,-4.8306,-4.8343,-4.904,-5.0674,-5.0729,-5.0729,-5.0729,-5.0765,-5.0802,-5.0802,-5.0802,-5.0802,-5.0802,-5.0802,-4.9921,-4.8471,-5.0105,-4.9444,-4.7333,-4.8967,-4.9132,-4.8233,-4.6599,-4.5957,-4.5938,-4.5938,-4.592,-4.5883,-4.5847,-4.5865,-4.5773,-4.5002,-4.4213,-4.3441,-4.2653,-4.1882,-4.1407,-4.2194,-4.2965,-4.3736,-4.4544,-4.5333,-4.5902,-4.5902,-4.5902,-4.5902,-4.5902,-4.4672,-4.4047,-4.559,-4.4635,-4.3057,-4.148,-4.1205,-4.0673,-3.9093,-3.8854,0.0,-3.8854,-4.0212,-4.1168,-4.1168,-4.2525,-4.313,-4.2396,-4.0836,-3.9918,-3.9955,-3.8465,-3.7933,-3.8707,-3.6399,-3.5114,-3.5078,-3.2724,-3.188,-3.2619,0.0,0.0,0.0,0.0,0.0,0.0,0.0,0.0,0.0,0.0,0.0,0.0,0.0,0.0,0.0,0.0,0.0,0.0,0.0,0.0,0.0,0.0,-3.9224,-3.8634,-4.0139,-4.1919,-4.3517,-4.4617,-4.5553,-4.636,-4.7168,-4.7902,-4.8545,-4.9114,-4.9646,-5.0086,-4.8967,-4.8526,-4.8967,-4.9003,-4.9003,-4.9003,-5.0196,-5.0802,-5.0802,-5.0802,-5.0802,-5.0802,-5.0802,-5.0545,-5.0141,-5.06,-5.0417,-4.9829,-5.0288,-5.0325,-4.9958,-4.8288,-4.7278,-4.6764,-4.6764,-4.6416,-4.5736,-4.4562,-4.4911,-4.5865,-4.5645,-4.5424,-4.5204,-4.4984,-4.4764,-4.4635,-4.4856,-4.5076,-4.5278,-4.5516,-4.5736,-4.5902,-4.5902,-4.5902,-4.5902,-4.5902,-4.5553,-4.5369,-4.581,-4.5535,-4.4911,-4.3901,-4.37,-4.3369,-4.2323,-4.2176,0.0,-4.2176,-4.2561,-4.2837,-4.2837,-4.2194,-4.2139,-4.3075,-4.1148,-4.0396,-4.157,-4.012,-3.9347,-3.9551,-3.8358,-3.7422,-3.6817,-3.4981,-3.383,0.0,0.0,0.0,0.0,0.0,0.0,0.0,0.0,0.0,0.0,0.0,0.0,0.0,0.0,0.0,0.0,0.0,0.0,0.0,0.0,0.0,0.0,-3.9752,-4.2304,-4.2837,-4.3424,-4.4287,-4.5553,-4.6416,-4.7241,-4.8067,-4.8875,-4.9554,-5.005,-5.0545,-5.0949,-5.1279,-5.038,-4.9701,-4.937,-5.0013,-5.0031,-4.9352,-5.0986,-5.1811,-5.1811,-5.1811,-5.1811,-5.1811,-5.1811,-5.1444,0.0,-5.1518,-5.1224,-5.0343,-5.1022,-5.1096,0.0,0.0,0.0,0.0,0.0,-4.7315,-4.6764,-4.5847,-4.6122,-4.6856,-4.6526,-4.6416,-4.6342,-4.5993,-4.5424,-4.4892,-4.4892,-4.4654,-4.4544,-4.5223,-4.5645,-4.6067,-4.6746,-4.6911,-4.6911,-4.6911,-4.6379,-4.6104,-4.6764,-4.6361,0.0,-4.5718,-4.4874,-4.3809,-4.2671,-4.2213,-4.1974,-4.1974,-4.2286,-4.2488,-4.2488,-4.2268,-4.2488,-4.3423,-4.1589,0.0,0.0,0.0,-3.9588,-3.8924,-3.8465,0.0,0.0,0.0,-3.4417,-3.4289,0.0,0.0,0.0,-3.1916,-3.1046,0.0,0.0,0.0,0.0,0.0,0.0,0.0,0.0,0.0,0.0,0.0,0.0,0.0,0.0,0.0,0.0,-4.2394,-4.469,-4.6911,-4.6709,-4.6581,-4.7296,-4.8104,-4.8893,-4.9665,-5.0453,-5.0949,-5.0949,-5.1022,-5.1426,-5.2215,0.0,0.0,0.0,0.0,-5.2527,-5.1077,-5.2674,-5.3424,-5.3332,-5.3332,-5.3277,-5.3185,-5.3185,-5.2435,-5.1151,-5.2582,-5.1977,-5.0124,-5.1536,-5.1665,-5.0857,-5.0051,-4.9684,-4.9482,-4.8526,-4.8233,-4.8269,-4.8104,0.0,0.0,-4.7461,-4.7241,-4.7094,-4.6397,-4.5168,-4.4047,-4.4047,-4.3534,-4.3314,-4.4745,-4.5645,-4.6526,-4.7957,-4.8306,-4.8306,-4.8306,-4.7186,-4.6599,-4.8031,-4.715,-4.6397,-4.7113,-4.5388,-4.3387,-4.1866,-4.1038,-4.0579,-4.0579,-4.113,-4.1499,-4.1499,0.0,0.0,-4.3478,-4.2029,-4.148,-4.2378,-4.1001,-3.9478,-3.797,-3.7915,-3.6831,-3.4523,-3.4486,-3.4798,-3.5426,-3.5426,-3.5811,-3.6505,-3.4137,-3.2962,0.0,0.0,0.0,0.0,0.0,0.0,0.0,0.0,0.0,0.0,0.0,0.0,0.0,0.0,0.0,-4.1756,-4.4432,-4.6782,-4.7901,-4.8526,-4.8949,-4.9115,-4.9829,-5.038,-5.0545,-5.1298,-5.1756,-5.1756,-5.238,-5.3096,-5.3885,-5.2711,0.0,-5.2729,-5.3038,-5.3059,-5.2726,-5.4326,-5.4803,-5.4179,0.0,0.0,-5.3185,-5.3185,-5.302,-5.2766,-5.3057,-5.2949,-5.2546,-5.2858,-5.2491,-5.1683,-5.0875,-5.016,-4.9427,-4.7902,-4.7736,-4.8122,-4.6819,-4.7205,-4.8269,-4.8122,-4.8086,-4.8049,-4.7884,-4.7627,0.0,-4.737,-4.726,-4.7223,-4.7535,-4.7719,-4.7921,-4.8233,-4.8306,-4.8306,-4.8306,-4.8067,-4.7939,-4.8251,-4.8049,-4.7902,-4.8049,-4.7131,-4.6085,-4.5131,-4.4837,-4.4727,-4.4727,-4.4305,-4.3994,-4.3994,-4.2526,-4.2084,-4.3404,-4.2029,-4.1735,-4.3167,-4.2359,-4.1405,-4.0451,-4.0398,-3.9882,-3.8726,-3.8707,-3.8487,-3.7976,-3.7976,-3.8068,-3.8193,-3.6413,-3.5556,0.0,0.0,0.0,0.0,0.0,0.0,0.0,0.0,0.0,0.0,0.0,-3.8652,0.0,0.0,-4.2735,-4.3914,-4.5792,-4.7516,-4.8783,-5.0013,-5.0657,-5.0251,-5.0912,-5.1389,-5.1389,-5.2123,-5.2601,-5.2601,-5.3353,-5.3977,-5.4381,-5.4014,-5.361,-5.3203,-5.3977,-5.4014,-5.3203,-5.4803,-5.539,-5.4987,-5.4987,-5.4583,-5.3812,-5.3812,-5.3592,-5.3185,-5.3185,-5.3185,-5.3185,-5.3185,-5.2968,-5.2564,-5.216,-5.1261,-5.005,-4.8802,-4.8618,-4.8765,-4.7535,-4.7627,-4.8306,-4.8306,-4.8306,-4.8306,-4.8306,-4.7737,-4.7095,-4.7095,-4.6526,-4.6085,-4.6893,-4.7095,-4.7297,-4.8122,-4.8306,-4.8306,-4.8306,-4.8306,-4.8306,-4.8306,-4.8306,-4.8306,-4.8306,-4.7957,-4.7553,-4.7168,-4.6764,-4.6507,-4.6507,-4.581,-4.5296,-4.5296,-4.3864,-4.324,-4.403,-4.2983,-4.2635,-4.346,-4.3112,-4.2543,-4.1735,-4.1699,-4.1332,-4.0524,-4.0506,-4.0304,-3.9884,-3.9884,-3.9884,-3.9866,-3.9093,-3.8141,0.0,0.0,0.0,0.0,0.0,0.0,0.0,0.0,-3.8788,-3.9537,-4.0349,-4.1296,-4.2506,-4.3563,-4.4774,-4.6341,-4.715,-4.8177,-4.9831,-5.1189,-5.1811,-5.1316,-5.1848,-5.2234,-5.2234,-5.2821,-5.3259,-5.3427,-5.4032,-5.4546,-5.4858,-5.5482,-5.5299,-5.4179,-5.539,-5.5445,-5.4161,-5.5409,-5.5978,-5.5831,-5.5831,-5.5409,-5.4638,-5.4473,-5.4051,-5.3427,-5.328,-5.3185,-5.3185,-5.3185,-5.3185,-5.3185,-5.3185,-5.2417,-5.1169,-5.0343,-4.9867,-4.95,-4.8802,-4.8434,-4.8306,-4.8306,-4.8306,-4.8306,-4.8306,-4.7388,-4.6361,-4.6361,-4.5424,-4.4727,-4.603,-4.6361,-4.6691,-4.7994,-4.8306,-4.8306,-4.8306,-4.8306,-4.8306,-4.8306,-4.8306,-4.8306,-4.8306,-4.8306,-4.8306,-4.8306,-4.7736,-4.7333,-4.7333,-4.6636,-4.614,-4.614,-4.5424,-4.4856,-4.4727,-4.3956,-4.3515,-4.3515,-4.3515,-4.3221,-4.2561,-4.2525,-4.2158,-4.1352,-4.1334,-4.126,-4.1095,-4.1095,-4.1095,-4.1095,-4.1095,-4.0163,-3.3833,-3.2526,-3.2699,-3.5058,-3.7334,-3.8946,0.0,0.0,-4.4848,-4.3518,-4.5106,-4.6899,-4.7362,-4.7599,-4.8052,-4.8949,-4.9205,-4.9886,-5.1499,-5.1885,-5.2234,-5.2876,-5.3002,-5.3078,-5.3078,-5.3148,-5.35,-5.4216,-5.4344,-5.5023,-5.6473,-5.662,-5.6914,-5.7446,-5.7629,-5.7648,-5.7464,-5.7629,-5.7373,-5.6675,-5.6675,-5.6235,-5.5427,-5.473,-5.4344,-5.4234,-5.3518,-5.3185,-5.3185,-5.3185,-5.3185,-5.3185,-5.3185,-5.3075,-5.2839,-5.2032,-5.0841,-4.9592,-4.95,-4.8948,-4.8306,-4.8306,-4.8306,-4.8306,-4.8306,-4.8177,-4.8031,-4.8031,-4.7902,-4.781,-4.7994,-4.8031,-4.8086,-4.8269,-4.8306,-4.8306,-4.8306,-4.8306,-4.8306,-4.8306,-4.8306,-4.8306,-4.8306,-4.8306,-4.8306,-4.8306,-4.8233,-4.8177,-4.8177,-4.7461,-4.6966,-4.6966,-4.625,-4.548,-4.4746,-4.3956,-4.3515,-4.3515,-4.3515,-4.346,-4.3369,-4.3369,-4.2983,-4.2176,-4.2176,-4.1809,-4.1095,-4.1095,-4.1095,-4.1095,-4.1095,-4.0969,-3.6738,-3.7084,0.0,0.0,-4.2005,-4.3513,-4.4059,-4.564,-4.6931,-4.6759,-4.7568,-4.8395,-4.8568,-4.8248,-4.8291,0.0,-4.9592,-5.0161,-5.1756,-5.2399,-5.2821,-5.317,-5.2803,-5.2325,-5.1848,-5.2656,-5.3151,-5.3004,-5.4289,-5.5592,-5.6748,-5.7244,-5.7648,-5.7997,-5.7997,-5.7997,-5.7997,-5.7997,-5.7831,-5.7501,-5.7501,-5.6822,-5.5574,-5.5244,-5.4583,-5.3683,-5.3353,-5.3185,-5.3185,-5.3185,-5.3185,-5.3185,-5.3185,-5.3185,-5.3093,-5.2289,-5.1279,-5.0215,-4.9757,-4.9022,-4.8306,-4.8306,-4.8306,-4.8306,-4.8306,-4.8306,-4.8306,-4.8306,-4.8306,-4.8306,-4.8306,-4.8306,-4.8306,-4.8306,-4.8306,-4.8306,-4.8306,-4.8306,-4.8306,-4.8306,-4.8306,-4.8306,-4.8306,-4.8306,-4.8306,-4.8306,-4.8306,-4.8306,-4.8306,-4.8012,-4.7608,-4.7149,-4.6801,-4.6085,-4.4801,-4.4397,-4.3993,-4.3533,-4.3515,-4.3515,-4.3515,-4.3515,-4.3332,-4.3002,-4.3002,-4.2818,-4.2506,-4.2506,-4.2506,-4.2506,-4.2506,-4.2506,-3.8707,0.0,0.0,-4.3989,-4.5745,-4.707,-4.8056,-4.8245,-4.8391,-4.9032,-4.9073,-4.9007,-4.9059,-4.8681,0.0,-4.9762,-5.0124,-5.0749,-5.2142,-5.2839,-5.3112,-5.2913,-5.2344,-5.1408,-4.9921,-5.1665,-5.2894,-5.2986,-5.4623,-5.6051,-5.7079,-5.7685,-5.7997,-5.7997,-5.7997,-5.7997,-5.7997,-5.7997,-5.7997,-5.7997,-5.7776,-5.706,-5.5904,-5.5464,-5.4509,-5.3185,-5.3185,-5.3185,-5.3185,-5.3185,-5.3185,-5.3185,-5.3185,-5.3185,-5.3133,-5.2546,-5.1811,-5.1022,-5.0196,-4.937,-4.8618,-4.8379,-4.8306,-4.8306,-4.8306,-4.8306,-4.8306,-4.8306,-4.8306,-4.8306,-4.8306,-4.8306,-4.8306,-4.8306,-4.8306,-4.8306,-4.8306,-4.8306,-4.8306,-4.8306,-4.8306,-4.8306,-4.8306,-4.8306,-4.8306,-4.8306,-4.8306,-4.8306,-4.8306,-4.8306,-4.8067,-4.748,-4.7223,-4.6636,-4.5461,-4.5168,-4.469,-4.3883,-4.3828,-4.3718,-4.3515,-4.3515,-4.3515,-4.3515,-4.3515,-4.3515,-4.3515,-4.3515,-4.3515,-4.3515,-4.3515,-4.3515,0.0,0.0,-3.9315,-4.4306,-4.6817,-4.8173,-4.8674,-4.9425,-5.0035,-5.0054,-4.9749,-4.9485,-4.9475,-4.9776,-5.0192,-5.068,-5.1408,-5.2215,-5.3059,-5.3167,-5.2913,-5.2123,-5.1995,-5.0729,0.0,-5.0141,-5.2986,-5.5339,-5.5556,-5.629,-5.7886,-5.7997,-5.7997,-5.7997,-5.7997,-5.7997,-5.7997,-5.7997,-5.7997,-5.7997,-5.7207,-5.6822,-5.6712,-5.5152,-5.3977,-5.3185,-5.3185,-5.3185,-5.3185,-5.3185,-5.3185,-5.3185,-5.3185,-5.3185,-5.3185,-5.3167,-5.2656,-5.1848,-5.1041,-5.0233,-4.9427,-4.8563,-4.8306,-4.8306,-4.8306,-4.8306,-4.8306,-4.8306,-4.8306,-4.8306,-4.8306,-4.8306,-4.8306,-4.8306,-4.8306,-4.8306,-4.8306,-4.8306,-4.8306,-4.8306,-4.8306,-4.8306,-4.8306,-4.8306,-4.8306,-4.8306,-4.8306,-4.8306,-4.8306,-4.8306,-4.8306,-4.8269,-4.7571,-4.7076,-4.7021,-4.6305,-4.5516,-4.4727,-4.4672,-4.4305,-4.3533,-4.3515,-4.3515,-4.3515,-4.3515,-4.3515,-4.3515,-4.3515,-4.3515,-4.3515,-4.3515,-4.3515,-3.965,0.0,-4.4451,-4.6701,-4.8354,-4.954,-4.9955,-5.0073,-5.0171,-5.0432,-4.9262,-4.8163,-4.8163,-4.807,-4.8403,-4.966,-5.0356,-5.1417,-5.3345,-5.2458,-5.1903,-5.2711,-5.1848,0.0,0.0,0.0,0.0,-5.238,-5.4381,-5.629,-5.7905,-5.7997,-5.7997,-5.7997,-5.7997,-5.7997,-5.7997,-5.7997,-5.7721,-5.7189,-5.5849,-5.5207,-5.517,-5.4106,-5.3463,-5.3185,-5.3185,-5.3185,-5.3185,-5.3185,-5.3185,-5.3185,-5.3185,-5.3185,-5.3185,-5.3185,-5.3041,-5.2601,-5.1261,-5.027,-4.9463,-4.8581,-4.8306,-4.8306,-4.8306,-4.8306,-4.8306,-4.8306,-4.8306,-4.8306,-4.8306,-4.8306,-4.8306,-4.8306,-4.8306,-4.8306,-4.8306,-4.8306,-4.8306,-4.8306,-4.8306,-4.8306,-4.8306,-4.8306,-4.8306,-4.8306,-4.8306,-4.8306,-4.8306,-4.8306,-4.8306,-4.8306,-4.8067,-4.7681,-4.7149,-4.6856,-4.6342,-4.5553,-4.5002,-4.458,-4.4305,-4.3773,-4.3515,-4.3515,-4.3515,-4.3515,-4.3515,-4.3515,-4.3515,-4.3515,-4.3515,-4.3515,-4.1689,-4.4335,-4.6855,-4.8586,-4.9688,-5.0369,-5.0634,-5.0493,-5.0399,-5.0653,-4.9601,-4.8318,-4.7278,-4.7346,-4.778,-4.8409,-4.9377,-5.0839,-5.3014,-5.2492,-5.2108,-5.2695,-5.1994,0.0,0.0,0.0,0.0,-5.2087,-5.3739,-5.5574,-5.7464,-5.7299,-5.7409,-5.7978,-5.7997,-5.7997,-5.7997,-5.7703,-5.7024,-5.5941,-5.4895,-5.4252,-5.3959,-5.3445,-5.3041,-5.2803,-5.3096,-5.3041,-5.2803,-5.3096,-5.3185,-5.3185,-5.3185,-5.3185,-5.3185,-5.3185,-5.3185,-5.2986,-5.1371,-5.0453,-4.9829,-4.8691,-4.8306,-4.8306,-4.8306,-4.8306,-4.8306,-4.8306,-4.8306,-4.8306,-4.8306,-4.8306,-4.8306,-4.8306,-4.8306,-4.8306,-4.8306,-4.8306,-4.8306,-4.8306,-4.8306,-4.8306,-4.8306,-4.8306,-4.8306,-4.8306,-4.8306,-4.8306,-4.8306,-4.8306,-4.8306,-4.8306,-4.8306,-4.8104,-4.7571,-4.7516,-4.7186,-4.6379,-4.5828,-4.5425,-4.5149,-4.436,-4.392,-4.392,-4.3662,-4.3515,-4.3515,-4.3515,-4.3515,-4.3515,-4.3515,-4.3515,-4.4229,-4.5691,-4.6633,-4.9885,-5.0712,-5.0712,-5.0712,-5.0712,-5.0654,-5.0539,-5.0442,-4.948,0.0,0.0,-4.808,-4.6981,-4.852,-5.0467,-5.2231,-5.3144,-5.3236,0.0,0.0,0.0,0.0,0.0,0.0,-5.4289,0.0,-5.4341,-5.673,-5.6143,-5.6418,-5.7941,-5.7997,-5.7997,-5.7997,-5.7171,-5.5959,-5.4399,-5.4363,-5.394,-5.3185,-5.3185,-5.2784,-5.2087,-5.2876,-5.2766,-5.2105,-5.2894,-5.3185,-5.3185,-5.3185,-5.3185,-5.3185,-5.3185,-5.317,-5.2934,-5.1375,-5.0804,-5.0527,-4.8857,-4.8306,-4.8306,-4.8306,-4.8306,-4.8306,-4.8306,-4.8306,-4.8306,-4.8306,-4.8306,-4.8306,-4.8306,-4.8306,-4.8306,-4.8306,-4.8306,-4.8306,-4.8306,-4.8306,-4.8306,-4.8306,-4.8306,-4.8306,-4.8306,-4.8306,-4.8306,-4.8306,-4.8306,-4.8306,-4.8306,-4.8306,-4.8306,-4.8306,-4.8306,-4.7957,-4.7204,-4.7113,-4.6746,-4.5993,-4.5186,-4.4746,-4.4746,-4.4011,-4.3608,-4.3608,-4.3608,-4.3606,-4.3552,-4.3552,-4.3551,-4.4278,-4.698,-4.9615,-5.0481,-5.0712,-5.0712,-5.0712,-5.0712,-5.0173,-4.8259,-4.6836,-4.5126,0.0,0.0,0.0,-4.5277,-4.6763,0.0,-5.1729,-5.1542,0.0,0.0,0.0,-5.2623,-5.2716,-5.3381,0.0,0.0,-5.4766,-5.5776,-5.7593,-5.7501,-5.7574,-5.7997,-5.7997,-5.7997,-5.7997,-5.6602,-5.539,-5.4399,-5.3794,-5.3387,-5.3185,-5.3185,-5.3096,-5.2913,-5.3115,-5.3096,-5.2913,-5.3133,-5.3185,-5.3185,-5.3185,-5.3185,-5.3185,-5.3185,-5.2974,-5.253,-5.151,-5.1006,-5.0527,-4.8857,-4.8306,-4.8306,-4.8306,-4.8306,-4.8306,-4.8306,-4.8306,-4.8306,-4.8306,-4.8306,-4.8306,-4.8306,-4.8306,-4.8306,-4.8306,-4.8306,-4.8306,-4.8306,-4.8306,-4.8306,-4.8306,-4.8306,-4.8306,-4.8306,-4.8306,-4.8306,-4.8306,-4.8306,-4.8306,-4.8306,-4.8306,-4.8306,-4.8306,-4.8306,-4.8214,-4.8012,-4.7424,-4.7003,-4.6801,-4.603,-4.559,-4.559,-4.5388,-4.5278,-4.5278,-4.5278,-4.4984,-4.4397,-4.4397,-4.4066,-4.6797,-4.8865,-5.0712,-5.0712,-5.0712,-5.0423,-4.9279,-4.874,-4.774,-4.5201,-4.3585,0.0,0.0,0.0,0.0,0.0,0.0,0.0,-5.1263,-5.1446,-5.1744,0.0,-5.3015,0.0,-5.4224,-5.4365,-5.4693,0.0,-5.5225,-5.5776,-5.7391,-5.7134,-5.7262,-5.7978,-5.7997,-5.7648,-5.695,-5.6033,-5.5023,-5.3867,-5.3427,-5.3185,-5.3185,-5.3185,-5.3023,-5.2692,0.0,-5.3004,-5.2711,-5.3059,-5.3185,-5.3185,-5.3185,-5.3185,-5.3185,-5.3185,-5.3148,-5.2976,-5.2138,-5.1636,-5.1043,-4.937,-4.883,-4.883,-4.883,-4.871,-4.8568,-4.8568,-4.8568,-4.8532,-4.8345,-4.8439,-4.8513,-4.8326,-4.8306,-4.8306,-4.8306,-4.8306,-4.8306,-4.8306,-4.8306,-4.8306,-4.8306,-4.8306,-4.8306,-4.8306,-4.8306,-4.8306,-4.8306,-4.8306,-4.8306,-4.8306,-4.8306,-4.8306,-4.8306,-4.8306,-4.8306,-4.8306,-4.7865,-4.7626,-4.7626,-4.6856,-4.6434,-4.6434,-4.6085,-4.5902,-4.5902,-4.5902,-4.5663,-4.5241,-4.5241,-4.4984,-4.9779,-5.0519,-5.0712,-5.0712,-5.0712,-5.0115,-4.7913,-4.6471,-4.4883,-4.2335,0.0,-3.9315,-3.7123,0.0,-4.1607,-4.1997,0.0,-4.8145,-5.0456,-5.1745,-5.2574,-5.2975,-5.3184,-5.3769,-5.4969,-5.4707,-5.5107,-5.6675,-5.5658,-5.5551,-5.6895,-5.629,-5.6547,-5.796,-5.7997,-5.7226,-5.5611,-5.5614,-5.4785,-5.3185,-5.3185,-5.3185,-5.3206,-5.3251,-5.2888,-5.2283,0.0,0.0,-5.2302,-5.2999,-5.3251,-5.3185,-5.3185,-5.323,-5.3293,-5.3293,-5.351,-5.3697,-5.3004,-5.2425,-5.1726,-5.0174,-4.9598,-4.9489,-4.9489,-4.9265,-4.8996,-4.8996,-4.8996,-4.8897,-4.855,-4.8728,-4.888,-4.8477,-4.8383,-4.8364,-4.8306,-4.8306,-4.8306,-4.8306,-4.8306,-4.8306,-4.8306,-4.8306,-4.8306,-4.8306,-4.8306,-4.8306,-4.8306,-4.8306,-4.8306,-4.8306,-4.8306,-4.8306,-4.8306,-4.8306,-4.8306,-4.8306,-4.8306,-4.8306,-4.8306,-4.7626,-4.7259,-4.7259,-4.6581,-4.6214,-4.6214,-4.6214,-4.6159,-4.6067,-4.6067,-4.5993,-4.8625,-4.9606,-5.0712,-5.0712,-5.0712,-5.0577,-5.0154,-4.7749,0.0,0.0,0.0,-3.7219,-3.6769,-3.8354,0.0,-4.2974,0.0,0.0,0.0,0.0,-5.1684,0.0,0.0,0.0,0.0,0.0,0.0,0.0,0.0,0.0,-5.7799,-5.7666,-5.7703,-5.7997,-5.7997,-5.7226,-5.5611,-5.5614,-5.4785,-5.3185,-5.3185,-5.3185,-5.3206,-5.3526,-5.3627,-5.3516,0.0,0.0,-5.3497,-5.3646,-5.3485,-5.3185,-5.3185,-5.3402,-5.3683,-5.3683,-5.3754,-5.3779,-5.3627,-5.2864,-5.1775,-5.0884,-5.0103,-4.9489,-4.9489,-4.9445,-4.9401,-4.9401,-4.9401,-4.9386,-4.9311,-4.9341,-4.9295,-4.8897,-4.8796,-4.8692,-4.8364,-4.8306,-4.8306,-4.8306,-4.8306,-4.8306,-4.8306,-4.8306,-4.8306,-4.8306,-4.8306,-4.8306,-4.8306,-4.8306,-4.8306,-4.8306,-4.8306,-4.8306,-4.8306,-4.8306,-4.8306,-4.8306,-4.8306,-4.8306,-4.8306,-4.8177,-4.8104,-4.8104,-4.7957,-4.7884,-4.7884,-4.7884,-4.7553,-4.6892,-4.6892,-4.6544,-4.8336,-4.9375,-5.0712,-5.0712,-5.0712,-4.9885,-4.6778,0.0,0.0,0.0,-3.4885,-3.3423,-3.3423,0.0,0.0,0.0,0.0,0.0,0.0,0.0,0.0,0.0,0.0,0.0,0.0,0.0,0.0,0.0,0.0,0.0,-5.8357,-5.8591,-5.8611,-5.8354,-5.7965,-5.7039,-5.5614,-5.517,-5.4475,-5.3505,-5.3505,-5.3643,-5.3888,-5.4085,-5.417,-5.417,-5.4387,0.0,-5.35,-5.3719,-5.3553,-5.3219,-5.3418,-5.3777,-5.417,-5.417,-5.4314,-5.4478,-5.4478,-5.364,-5.2517,-5.2153,-5.1166,-5.0116,-5.0116,-4.9974,-4.98,-4.98,-4.98,-4.976,-4.9547,-4.9664,-4.9719,-4.9311,-4.9043,-4.8846,-4.8657,-4.8458,-4.8306,-4.8306,-4.8306,-4.8306,-4.8306,-4.8306,-4.8306,-4.8306,-4.8306,-4.8306,-4.8306,-4.8306,-4.8306,-4.8306,-4.8306,-4.8306,-4.8306,-4.8306,-4.8306,-4.8306,-4.8306,-4.8306,-4.8306,-4.8306,-4.8306,-4.8306,-4.8306,-4.8306,-4.8306,-4.8306,-4.8104,-4.7718,-4.7718,-4.7535,-4.8471,-4.951,-5.0712,-5.0712,-5.0558,-4.9048,-4.3816,-4.1373,0.0,0.0,-3.1385,-3.0577,-3.1115,0.0,0.0,0.0,0.0,0.0,0.0,0.0,0.0,0.0,0.0,0.0,0.0,0.0,0.0,0.0,0.0,0.0,-5.8837,-5.9213,-5.923,-5.8855,-5.807,-5.7073,-5.5905,-5.509,-5.4421,-5.3941,-5.3941,-5.4135,-5.4503,-5.4597,-5.4644,-5.4625,-5.4716,0.0,0.0,-5.3862,-5.3731,-5.3252,-5.3746,-5.4238,-5.4644,-5.4644,-5.4876,-5.5224,-5.5224,-5.433,-5.3203,-5.3203,-5.2068,-5.0712,-5.0712,-5.0483,-5.0237,-5.0237,-5.0237,-5.0159,-4.9827,-4.9987,-5.0135,-4.9733,-4.9326,-4.9027,-4.9027,-4.8779,-4.8568,-4.8568,-4.8568,-4.8568,-4.8568,-4.8568,-4.8532,-4.8439,-4.8421,-4.8402,-4.8306,-4.8306,-4.8306,-4.8306,-4.8306,-4.8306,-4.8306,-4.8306,-4.8306,-4.8306,-4.8306,-4.8306,-4.8306,-4.8306,-4.8306,-4.8306,-4.8306,-4.8306,-4.8306,-4.8306,-4.8306,-4.8306,-4.8306,-4.8306,-4.8894,-4.9971,-5.0712,-5.0712,-5.0087,-4.8759,-4.5902,0.0,0.0,-3.5731,-3.2615,-3.1115,-3.341,-3.4032,-3.611,0.0,0.0,-4.2613,0.0,0.0,0.0,0.0,0.0,0.0,0.0,0.0,0.0,0.0,0.0,0.0,0.0,-5.9391,-5.9372,-5.9337,-5.8492,-5.7645,-5.6783,-5.5992,-5.5199,-5.4439,-5.4439,-5.4471,-5.4519,-5.4881,-5.5048,-5.508,0.0,0.0,0.0,-5.4645,-5.4282,-5.3283,-5.4116,-5.4686,-5.5048,-5.5048,-5.5306,-5.5651,-5.5651,-5.4566,-5.3203,-5.3203,-5.2068,-5.0712,-5.0712,-5.0673,-5.0634,-5.0634,-5.0634,-5.0643,-5.0604,-5.0614,-5.0544,-5.0147,-4.9746,-4.9445,-4.9445,-4.9416,-4.9386,-4.9386,-4.9386,-4.9386,-4.9386,-4.9386,-4.9265,-4.8897,-4.8846,-4.8709,-4.8345,-4.8306,-4.8306,-4.8306,-4.8306,-4.8306,-4.8306,-4.8306,-4.8306,-4.8306,-4.8306,-4.8306,-4.8306,-4.8306,-4.8306,-4.8306,-4.8306,-4.8306,-4.8306,-4.8306,-4.8306,-4.8306,-4.8306,-4.8306,-4.5566,-4.7336,-4.9144,-4.9144,-4.8875,-4.7413,-4.2863,0.0,-3.7988,-3.3385,-3.1346,-3.0712,-3.1737,-3.191,-3.3372,-3.7788,-3.8354,0.0,0.0,0.0,0.0,0.0,0.0,0.0,0.0,0.0,0.0,0.0,0.0,0.0,0.0,-6.025,-5.987,-5.9064,-5.8228,-5.7289,-5.6184,-5.5373,-5.495,-5.4867,-5.4867,-5.4993,-5.5224,-5.5387,-5.5466,-5.5477,0.0,0.0,0.0,-5.4632,-5.4345,-5.3302,-5.4438,-5.5121,-5.5466,-5.5466,-5.5566,-5.5703,-5.5703,-5.4607,-5.3203,-5.3203,-5.2068,-5.0712,-5.0712,-5.0712,-5.0712,-5.0712,-5.0712,-5.0712,-5.0712,-5.0712,-5.0663,-5.0493,-5.0159,-4.9853,-4.9853,-4.9678,-4.9489,-4.9489,-4.9489,-4.9489,-4.9489,-4.9489,-4.9445,-4.928,-4.9062,-4.893,-4.9013,-4.8813,-4.8657,-4.8657,-4.8439,-4.8306,-4.8306,-4.8306,-4.8306,-4.8306,-4.8306,-4.8306,-4.8306,-4.8306,-4.8306,-4.8306,-4.8306,-4.8306,-4.8306,-4.8306,-4.8306,-4.8306,-4.8306,-4.8306,-4.3047,-4.5547,-4.8105,-4.8105,-4.7528,-4.5624,0.0,0.0,-3.6699,-3.1462,-3.0404,-3.0481,-3.0731,-3.0577,-3.1673,-3.5596,-3.6712,-3.8988,0.0,0.0,0.0,0.0,0.0,0.0,0.0,0.0,0.0,0.0,0.0,0.0,0.0,-6.005,-5.9732,-5.9029,-5.7978,-5.6979,-5.6086,-5.5265,-5.4993,-5.5282,-5.5282,-5.5308,-5.5338,-5.5588,-5.5568,-5.5357,0.0,0.0,0.0,-5.4824,-5.461,-5.3701,-5.4831,-5.5446,-5.5703,-5.5703,-5.5703,-5.5703,-5.5703,-5.4607,-5.3203,-5.3203,-5.2068,-5.0712,-5.0712,-5.0712,-5.0712,-5.0712,-5.0712,-5.0712,-5.0712,-5.0712,-5.0712,-5.0712,-5.0483,-5.0272,-5.0272,-5.0056,-4.984,-4.984,-4.984,-4.984,-4.984,-4.984,-4.9813,-4.9706,-4.9445,-4.9307,-4.9475,-4.9249,-4.9075,-4.9075,-4.883,-4.8568,-4.8325,-4.8306,-4.8306,-4.8306,-4.8306,-4.8306,-4.8306,-4.8306,-4.8306,-4.8306,-4.8306,-4.8306,-4.8306,-4.8306,-4.8306,-4.8306,-4.8306,-4.8306,-4.2412,-4.5547,-4.8105,-4.8105,-4.6201,-4.3451,0.0,0.0,-3.4558,-3.1115,-3.0404,-3.0654,-3.1525,-3.0981,-3.2058,-3.7142,-3.7988,0.0,0.0,0.0,0.0,0.0,0.0,0.0,0.0,0.0,0.0,0.0,0.0,0.0,0.0,-5.8338,-5.8684,-5.9462,-5.7877,-5.6992,-5.6992,-5.6126,-5.5703,-5.5684,-5.5684,-5.528,-5.453,-5.5338,-5.5261,0.0,0.0,0.0,0.0,-5.5357,-5.5222,-5.4568,-5.5376,-5.5703,-5.5703,-5.5703,-5.5703,-5.5703,-5.5703,-5.4607,-5.3203,-5.3203,-5.2068,-5.0712,-5.0712,-5.0712,-5.0712,-5.0712,-5.0712,-5.0712,-5.0712,-5.0712,-5.0712,-5.0712,-5.0702,-5.0683,-5.0683,-5.0683,-5.0683,-5.0683,-5.0683,-5.0683,-5.0683,-5.0683,-5.0554,-5.0159,-5.008,-4.9949,-4.9547,-4.9489,-4.9489,-4.9489,-4.9489,-4.9174,-4.8364,-4.8306,-4.8306,-4.8306,-4.8306,-4.8306,-4.8306,-4.8306,-4.8306,-4.8306,-4.8306,-4.8306,-4.8306,-4.8306,-4.8306,-4.8306,-4.8306,-4.8306,-3.6803,-3.9065,-4.12,-4.12,-4.0585,-3.9258,-3.6456,-3.518,-3.3814,-3.0981,-3.0404,-3.0673,-3.1545,-3.1468,-3.2385,-3.575,-3.7257,0.0,0.0,0.0,0.0,0.0,0.0,0.0,0.0,0.0,0.0,0.0,0.0,0.0,0.0,0.0,-5.7541,-5.778,-5.7291,-5.6714,-5.6107,-5.5838,-5.5703,-5.5703,-5.5703,-5.528,-5.453,-5.5318,0.0,0.0,0.0,0.0,0.0,-5.5376,-5.5222,-5.4587,-5.5395,-5.5703,-5.5703,-5.5703,-5.5703,-5.5607,-5.5068,-5.4145,-5.3106,-5.25,-5.1587,-5.0712,-5.0712,-5.0712,-5.0712,-5.0712,-5.0712,-5.0712,-5.0712,-5.0712,-5.0712,-5.0712,-5.0712,-5.0712,-5.0712,-5.0712,-5.0712,-5.0712,-5.0712,-5.0712,-5.0712,-5.0712,-5.0663,-5.0534,-5.0272,-5.0159,-5.0294,-5.008,-4.9911,-4.9911,-4.9911,-4.9589,-4.8779,-4.871,-4.8586,-4.8325,-4.8306,-4.8306,-4.8306,-4.8306,-4.8306,-4.8306,-4.8306,-4.8306,-4.8306,-4.8306,-4.8306,-4.8306,-4.8306,-4.8306,0.0,-3.5334,-3.7507,-3.7507,-3.7276,0.0,0.0,-3.3705,-3.2718,-3.0788,-3.1154,-3.191,-3.2102,-3.2699,-3.3654,-3.5231,-3.7712,0.0,0.0,0.0,0.0,0.0,0.0,0.0,0.0,0.0,0.0,0.0,0.0,0.0,0.0,0.0,-5.6522,-5.6522,-5.6522,-5.6252,-5.5703,-5.5703,-5.5703,-5.5703,-5.5703,-5.528,-5.453,-5.5318,0.0,0.0,0.0,0.0,0.0,-5.5491,-5.5395,-5.4991,-5.5491,-5.5703,-5.5703,-5.5703,-5.5511,-5.5184,-5.4664,-5.3703,-5.2615,-5.2077,-5.1356,-5.0712,-5.0712,-5.0712,-5.0712,-5.0712,-5.0712,-5.0712,-5.0712,-5.0712,-5.0712,-5.0712,-5.0712,-5.0712,-5.0712,-5.0712,-5.0712,-5.0712,-5.0712,-5.0712,-5.0712,-5.0712,-5.0712,-5.0712,-5.0483,-5.0421,-5.0673,-5.0483,-5.0325,-5.0325,-5.0325,-5.0068,-4.9416,-4.9075,-4.8745,-4.8325,-4.8306,-4.8306,-4.8306,-4.8306,-4.8306,-4.8306,-4.8306,-4.8306,-4.8306,-4.8306,-4.8306,-4.8306,-4.8306,-4.8306,0.0,-3.366,0.0,0.0,0.0,0.0,-3.4103,-3.2737,0.0,-3.0808,-3.2545,-3.3994,-3.3295,-3.4596,-3.5769,-3.5769,0.0,0.0,0.0,0.0,0.0,0.0,0.0,0.0,0.0,0.0,0.0,0.0,0.0,0.0,0.0,0.0,-5.5703,-5.5703,-5.5703,-5.5703,-5.5703,-5.5703,-5.5665,-5.5607,-5.5665,-5.5241,-5.4434,-5.5299,0.0,0.0,0.0,0.0,0.0,-5.5703,-5.5703,-5.5703,-5.5703,-5.5703,-5.5684,-5.5645,-5.5145,-5.4472,-5.4357,-5.326,-5.1885,-5.1827,-5.1318,-5.0712,-5.0712,-5.0712,-5.0712,-5.0712,-5.0712,-5.0712,-5.0712,-5.0712,-5.0712,-5.0712,-5.0712,-5.0712,-5.0712,-5.0712,-5.0712,-5.0712,-5.0712,-5.0712,-5.0712,-5.0712,-5.0712,-5.0712,-5.0712,-5.0712,-5.0712,-5.0712,-5.0712,-5.0712,-5.0712,-5.0544,-5.0128,-4.9401,-4.8761,-4.8364,-4.8325,-4.8306,-4.8306,-4.8306,-4.8306,-4.8306,-4.8306,-4.8306,-4.8306,-4.8306,-4.8306,-4.8306,-4.8306,-4.8306,-2.6596,0.0,-3.0897,-3.0897,-3.1256,-3.1538,0.0,-3.0981,-3.1192,-3.2949,-3.3782,-3.4533,-3.5603,-3.7238,-3.8411,0.0,0.0,0.0,0.0,0.0,0.0,0.0,0.0,0.0,0.0,0.0,0.0,0.0,0.0,0.0,0.0,0.0,-5.5703,-5.5703,-5.5703,-5.5703,-5.5703,-5.5703,-5.5395,-5.478,-5.5415,-5.4934,-5.3568,-5.503,0.0,0.0,0.0,0.0,-5.5703,-5.5703,-5.5703,-5.5703,-5.5703,-5.5703,-5.5626,-5.5011,-5.4664,-5.4318,-5.2972,-5.2231,-5.1788,-5.1183,-5.0837,-5.0712,-5.0712,-5.0712,-5.0712,-5.0712,-5.0712,-5.0712,-5.0712,-5.0712,-5.0712,-5.0712,-5.0712,-5.0712,-5.0712,-5.0712,-5.0712,-5.0712,-5.0712,-5.0712,-5.0712,-5.0712,-5.0712,-5.0712,-5.0712,-5.0712,-5.0712,-5.0712,-5.0712,-5.0712,-5.0712,-5.0544,-5.0128,-4.9631,-4.9187,-4.8779,-4.8477,-4.8306,-4.8306,-4.8306,-4.8306,-4.8306,-4.8306,-4.8306,-4.8306,-4.8306,-4.8306,-4.8306,-4.8306,-4.8306,-2.5308,-2.7159,-2.93,-3.0083,-3.066,-3.1192,-3.1968,-3.1231,-3.1115,-3.3667,0.0,0.0,-3.6462,0.0,0.0,0.0,0.0,0.0,0.0,0.0,0.0,0.0,0.0,0.0,0.0,0.0,0.0,0.0,0.0,0.0,0.0,0.0,-5.5703,-5.5703,-5.5703,-5.5703,-5.5703,-5.5703,-5.5299,-5.4511,-5.5318,-5.503,-5.3837,-5.5126,0.0,0.0,0.0,0.0,-5.5665,-5.5299,-5.5376,-5.5703,-5.5703,-5.5472,-5.5088,-5.4664,-5.3991,-5.3164,-5.2231,-5.1654,-5.1279,-5.0846,-5.0712,-5.0712,-5.0712,-5.0712,-5.0712,-5.0712,-5.0712,-5.0712,-5.0712,-5.0712,-5.0712,-5.0712,-5.0712,-5.0712,-5.0712,-5.0712,-5.0712,-5.0712,-5.0712,-5.0712,-5.0712,-5.0712,-5.0712,-5.0712,-5.0712,-5.0712,-5.0712,-5.0712,-5.0712,-5.0712,-5.0712,-5.0614,-5.038,-4.9827,-4.9326,-4.893,-4.8532,-4.8306,-4.8306,-4.8306,-4.8306,-4.8306,-4.8306,-4.8306,-4.8306,-4.8306,-4.8306,-4.8306,-4.8306,-4.8306,-2.5467,-2.7271,-2.9531,-3.1256,-3.1602,-3.2006,-3.3949,-3.2429,0.0,0.0,0.0,0.0,0.0,-3.9008,0.0,0.0,0.0,0.0,0.0,0.0,0.0,0.0,0.0,0.0,0.0,0.0,0.0,0.0,0.0,0.0,0.0,0.0,0.0,-5.5703,-5.5703,-5.5703,-5.5703,-5.5703,-5.5299,-5.4511,-5.5318,-5.528,-5.453,-5.5318,-5.5703,0.0,0.0,0.0,-5.5645,-5.4953,-5.5011,-5.5511,-5.5511,-5.5011,-5.428,-5.4145,-5.3164,-5.1885,-5.175,-5.1279,-5.0712,-5.0712,-5.0712,-5.0712,-5.0712,-5.0712,-5.0712,-5.0712,-5.0712,-5.0712,-5.0712,-5.0712,-5.0712,-5.0712,-5.0712,-5.0712,-5.0712,-5.0712,-5.0712,-5.0712,-5.0712,-5.0712,-5.0712,-5.0712,-5.0712,-5.0712,-5.0712,-5.0712,-5.0712,-5.0712,-5.0712,-5.0712,-5.0712,-5.0712,-5.0712,-4.9962,-4.9356,-4.9011,-4.8568,-4.8306,-4.8306,-4.8306,-4.8306,-4.8306,-4.8306,-4.8306,-4.8306,-4.8306,-4.8306,-4.8306,-4.8306,-4.8306,-2.6279,-2.7759,-2.9531,-3.1256,-3.1154,-3.1423,-3.4577,-3.3327,-3.2833,0.0,0.0,0.0,0.0,0.0,0.0,0.0,0.0,0.0,0.0,0.0,0.0,0.0,0.0,0.0,0.0,0.0,0.0,0.0,0.0,0.0,0.0,0.0,0.0,-5.5703,-5.5703,-5.5703,-5.5703,-5.5703,-5.5299,-5.4511,-5.5318,-5.528,-5.453,-5.5318,-5.5703,0.0,0.0,-5.5588,-5.5684,-5.5568,-5.5184,-5.4684,-5.4684,-5.4164,-5.3318,-5.2558,-5.2135,-5.1788,-5.1125,-5.0808,-5.0712,-5.0712,-5.0712,-5.0712,-5.0712,-5.0712,-5.0712,-5.0712,-5.0712,-5.0712,-5.0712,-5.0712,-5.0712,-5.0712,-5.0712,-5.0712,-5.0712,-5.0712,-5.0712,-5.0712,-5.0712,-5.0712,-5.0712,-5.0712,-5.0712,-5.0712,-5.0712,-5.0712,-5.0712,-5.0712,-5.0712,-5.0712,-5.0712,-5.0712,-5.0712,-4.9962,-4.9475,-4.9416,-4.871,-4.8306,-4.8306,-4.8306,-4.8306,-4.8306,-4.8306,-4.8306,-4.8306,-4.8306,-4.8306,-4.8306,-4.8306,-4.8306,-2.589,-2.7235,-2.9341,-3.2865,-3.2731,-3.3,-3.7808,-3.5507,-3.393,0.0,0.0,0.0,0.0,0.0,0.0,0.0,0.0,0.0,0.0,0.0,0.0,0.0,0.0,0.0,0.0,0.0,0.0,0.0,0.0,0.0,0.0,0.0,0.0,0.0,-5.5703,-5.5703,-5.5703,-5.5703,-5.5299,-5.4511,-5.5318,-5.528,-5.453,-5.5318,-5.5703,-5.5684,0.0,-5.5049,-5.5011,-5.4549,-5.4126,-5.3799,-5.3799,-5.326,-5.2404,-5.1568,-5.1241,-5.1202,-5.0827,-5.0712,-5.0712,-5.0712,-5.0712,-5.0712,-5.0712,-5.0712,-5.0712,-5.0712,-5.0712,-5.0712,-5.0712,-5.0712,-5.0712,-5.0712,-5.0712,-5.0712,-5.0712,-5.0712,-5.0712,-5.0712,-5.0712,-5.0712,-5.0712,-5.0712,-5.0712,-5.0712,-5.0712,-5.0712,-5.0712,-5.0712,-5.0712,-5.0712,-5.0712,-5.0712,-5.0712,-5.0159,-4.9631,-4.9202,-4.8622,-4.8402,-4.8622,-4.842,-4.8306,-4.8306,-4.8306,-4.8306,-4.8306,-4.8306,-4.8306,-4.8306,-4.8306,-4.8306,-2.5687,-2.671,-2.8853,-3.3704,-3.3757,-3.4276,-4.0662,-3.7488,-3.4891,-4.0873,0.0,0.0,0.0,0.0,0.0,0.0,0.0,0.0,0.0,0.0,0.0,0.0,0.0,0.0,0.0,0.0,0.0,0.0,0.0,0.0,0.0,0.0,0.0,0.0,-5.5222,-5.5107,-5.5107,-5.5107,-5.4914,-5.4511,-5.5126,-5.4991,-5.4222,-5.4838,-5.5107,-5.5088,-5.4453,-5.4203,-5.4145,-5.3491,-5.3087,-5.2895,-5.2895,-5.2375,-5.1548,-5.0933,-5.0712,-5.0712,-5.0712,-5.0712,-5.0712,-5.0712,-5.0712,-5.0712,-5.0712,-5.0712,-5.0712,-5.0712,-5.0712,-5.0712,-5.0712,-5.0712,-5.0712,-5.0712,-5.0712,-5.0712,-5.0712,-5.0712,-5.0712,-5.0712,-5.0712,-5.0712,-5.0712,-5.0712,-5.0712,-5.0712,-5.0712,-5.0712,-5.0712,-5.0712,-5.0712,-5.0712,-5.0712,-5.0663,-5.0565,-5.0272,-4.984,-4.9234,-4.8728,-4.8568,-4.888,-4.8513,-4.8306,-4.8306,-4.8306,-4.8306,-4.8306,-4.8306,-4.8306,-4.8306,-4.8306,-4.8306,-2.6541,-2.6796,-2.7825,-3.2111,-3.2474,-3.3757,-4.1296,-3.8392,-3.5802,-4.1777,0.0,0.0,0.0,0.0,0.0,0.0,0.0,0.0,0.0,0.0,0.0,0.0,0.0,0.0,0.0,0.0,0.0,0.0,0.0,0.0,0.0,0.0,0.0,0.0,0.0,-5.3376,-5.3376,-5.3376,-5.376,-5.4491,-5.4549,-5.4126,-5.3299,-5.3356,-5.3376,-5.3376,-5.3318,-5.3299,-5.3299,-5.3241,-5.2712,-5.1981,-5.1981,-5.151,-5.0789,-5.0731,-5.0712,-5.0712,-5.0712,-5.0712,-5.0712,-5.0712,-5.0712,-5.0712,-5.0712,-5.0712,-5.0712,-5.0712,-5.0712,-5.0712,-5.0712,-5.0712,-5.0712,-5.0712,-5.0712,-5.0712,-5.0712,-5.0712,-5.0712,-5.0712,-5.0712,-5.0712,-5.0712,-5.0712,-5.0712,-5.0712,-5.0712,-5.0712,-5.0712,-5.0712,-5.0712,-5.0712,-5.0712,-5.0554,-5.0171,-5.0123,-5.0068,-5.0031,-4.9295,-4.8863,-4.8897,-4.8513,-4.8306,-4.8306,-4.8306,-4.8306,-4.8306,-4.8306,-4.8306,-4.8306,-4.8306,-4.8306,-2.5975,-2.6814,-2.8694,-3.3432,-3.3521,-3.418,-4.0796,-3.9315,-3.8257,-4.4239,-4.3085,0.0,0.0,0.0,0.0,0.0,0.0,0.0,0.0,0.0,0.0,0.0,0.0,0.0,0.0,0.0,0.0,0.0,0.0,0.0,0.0,0.0,0.0,0.0,0.0,-5.3203,-5.3203,-5.3203,-5.3087,-5.2895,-5.3433,-5.353,-5.3203,-5.3203,-5.3203,-5.3203,-5.3203,-5.2895,-5.2385,-5.2385,-5.1895,-5.1144,-5.1144,-5.0971,-5.0712,-5.0712,-5.0712,-5.0712,-5.0712,-5.0712,-5.0712,-5.0712,-5.0712,-5.0712,-5.0712,-5.0712,-5.0712,-5.0712,-5.0712,-5.0712,-5.0712,-5.0712,-5.0712,-5.0712,-5.0712,-5.0712,-5.0712,-5.0712,-5.0712,-5.0712,-5.0712,-5.0712,-5.0712,-5.0712,-5.0712,-5.0712,-5.0712,-5.0712,-5.0712,-5.0712,-5.0712,-5.0712,-5.0712,-5.0653,-5.0483,-5.0472,-5.0472,-5.0472,-4.9733,-4.928,-4.928,-4.9142,-4.8813,-4.8306,-4.855,-4.855,-4.8306,-4.8306,-4.8306,-4.8306,-4.8306,-4.8306,-2.5999,-2.7028,-2.9144,-3.3664,-3.383,-3.4468,-4.0442,-4.0046,-3.995,-4.5374,-4.4797,-4.3585,-4.4509,0.0,0.0,0.0,0.0,0.0,0.0,0.0,0.0,0.0,0.0,0.0,0.0,0.0,0.0,0.0,0.0,0.0,0.0,0.0,0.0,0.0,0.0,0.0,-5.2414,-5.2414,-5.2106,-5.1529,-5.2125,-5.2414,-5.2414,-5.2414,-5.2414,-5.2414,-5.2414,-5.2068,-5.1529,-5.1529,-5.1202,-5.0712,-5.0712,-5.0712,-5.0712,-5.0712,-5.0712,-5.0712,-5.0712,-5.0712,-5.0712,-5.0712,-5.0712,-5.0712,-5.0712,-5.0712,-5.0712,-5.0712,-5.0712,-5.0712,-5.0712,-5.0712,-5.0712,-5.0712,-5.0712,-5.0712,-5.0712,-5.0712,-5.0712,-5.0712,-5.0712,-5.0712,-5.0712,-5.0712,-5.0712,-5.0712,-5.0712,-5.0712,-5.0712,-5.0712,-5.0712,-5.0712,-5.0712,-5.0712,-5.0712,-5.0712,-5.0712,-5.0712,-5.0183,-4.9813,-4.9706,-4.9561,-4.9234,-4.8692,-4.883,-4.8761,-4.8477,-4.8364,-4.8306,-4.8306,-4.8306,-4.8364,-2.6892,-2.7443,-2.8816,-3.2159,0.0,0.0,-4.0442,-4.0527,-4.0535,-4.4748,-4.7644,-4.9125,-4.8259,0.0,0.0,0.0,0.0,0.0,0.0,0.0,0.0,0.0,0.0,0.0,0.0,0.0,0.0,0.0,0.0,0.0,0.0,0.0,0.0,0.0,0.0,0.0,-5.0712,-5.0712,-5.0712,-5.0712,-5.0712,-5.0712,-5.0712,-5.0712,-5.0712,-5.0712,-5.0712,-5.0712,-5.0712,-5.0712,-5.0712,-5.0712,-5.0712,-5.0712,-5.0712,-5.0712,-5.0712,-5.0712,-5.0712,-5.0712,-5.0712,-5.0712,-5.0712,-5.0712,-5.0712,-5.0712,-5.0712,-5.0712,-5.0712,-5.0712,-5.0712,-5.0712,-5.0712,-5.0712,-5.0712,-5.0712,-5.0712,-5.0712,-5.0712,-5.0712,-5.0712,-5.0712,-5.0712,-5.0712,-5.0712,-5.0712,-5.0712,-5.0712,-5.0712,-5.0712,-5.0712,-5.0712,-5.0712,-5.0712,-5.0712,-5.0712,-5.0712,-5.0712,-5.0712,-5.0534,-5.0123,-4.9719,-4.9504,-4.9489,-4.9108,-4.8913,-4.8913,-4.8513,-4.8306,-4.8306,-4.8306,-4.8532,-2.8275,-2.8447,0.0,-3.2992,0.0,0.0,0.0,-4.2335,0.0,0.0,-4.8452,-4.8952,0.0,0.0,0.0,0.0,0.0,0.0,0.0,0.0,0.0,0.0,0.0,0.0,0.0,0.0,0.0,0.0,0.0,0.0,0.0,0.0,0.0,0.0,0.0,0.0,-5.0712,-5.0712,-5.0712,-5.0712,-5.0712,-5.0712,-5.0712,-5.0712,-5.0712,-5.0712,-5.0712,-5.0712,-5.0712,-5.0712,-5.0712,-5.0712,-5.0712,-5.0712,-5.0712,-5.0712,-5.0712,-5.0712,-5.0712,-5.0712,-5.0712,-5.0712,-5.0712,-5.0712,-5.0712,-5.0712,-5.0712,-5.0712,-5.0712,-5.0712,-5.0712,-5.0712,-5.0712,-5.0712,-5.0712,-5.0712,-5.0712,-5.0712,-5.0712,-5.0712,-5.0712,-5.0712,-5.0712,-5.0712,-5.0712,-5.0712,-5.0712,-5.0712,-5.0712,-5.0712,-5.0712,-5.0712,-5.0712,-5.0712,-5.0712,-5.0712,-5.0712,-5.0712,-5.0712,-5.0534,-5.0123,-5.026,-5.008,-4.9504,-4.9659,-4.9603,-4.9326,-4.9202,-4.9139,-4.9139,-4.9139,-4.9202,-3.0045,-3.051,0.0,-3.5778,-3.6922,-3.8257,-4.3008,0.0,0.0,0.0,0.0,0.0,0.0,0.0,0.0,0.0,0.0,0.0,0.0,0.0,0.0,0.0,0.0,0.0,0.0,0.0,0.0,0.0,0.0,0.0,0.0,0.0,0.0,0.0,0.0,0.0,-5.0712,-5.0712,-5.0712,-5.0712,-5.0712,-5.0712,-5.0712,-5.0712,-5.0712,-5.0712,-5.0712,-5.0712,-5.0712,-5.0712,-5.0712,-5.0712,-5.0712,-5.0712,-5.0712,-5.0712,-5.0712,-5.0712,-5.0712,-5.0712,-5.0712,-5.0712,-5.0712,-5.0712,-5.0712,-5.0712,-5.0712,-5.0712,-5.0712,-5.0712,-5.0712,-5.0712,-5.0712,-5.0712,-5.0712,-5.0712,-5.0712,-5.0712,-5.0712,-5.0712,-5.0712,-5.0712,-5.0712,-5.0712,-5.0712,-5.0712,-5.0712,-5.0712,-5.0712,-5.0712,-5.0712,-5.0712,-5.0712,-5.0712,-5.0712,-5.0712,-5.0712,-5.0712,-5.0712,-5.0594,-5.0347,-5.0565,-5.0472,-4.9993,-5.0056,-4.9974,-4.9746,-4.9575,-4.9489,-4.9489,-4.9489,-4.9594,-3.1885,0.0,0.0,-3.9165,-3.9908,0.0,-4.4883,0.0,0.0,0.0,0.0,0.0,0.0,0.0,0.0,0.0,0.0,0.0,0.0,0.0,0.0,0.0,0.0,0.0,0.0,0.0,0.0,0.0,0.0,0.0,0.0,0.0,0.0,0.0,0.0,0.0,-5.0712,-5.0712,-5.0712,0.0,-5.0712,-5.0712,-5.0712,-5.0712,-5.0712,-5.0712,-5.0712,-5.0712,-5.0712,-5.0712,-5.0712,-5.0712,-5.0712,-5.0712,-5.0712,-5.0712,-5.0712,-5.0712,-5.0712,-5.0712,-5.0712,-5.0712,-5.0712,-5.0712,-5.0712,-5.0712,-5.0712,-5.0712,-5.0712,-5.0712,-5.0712,-5.0712,-5.0712,-5.0712,-5.0712,-5.0712,-5.0712,-5.0712,-5.0712,-5.0712,-5.0712,-5.0712,-5.0712,-5.0712,-5.0712,-5.0712,-5.0712,-5.0712,-5.0712,-5.0712,-5.0712,-5.0712,-5.0712,-5.0712,-5.0712,-5.0712,-5.0712,-5.0712,-5.0712,-5.0712,-5.0712,-5.0712,-5.0712,-5.0712,-5.0336,-5.0159,-5.0159,-4.9787,-4.9603,-4.9603,-4.9603,-4.98,-3.2418,-3.3604,0.0,0.0,-3.9967,-4.3201,0.0,0.0,0.0,0.0,0.0,0.0,0.0,0.0,0.0,0.0,0.0,0.0,0.0,0.0,0.0,0.0,0.0,0.0,0.0,0.0,0.0,0.0,0.0,0.0,0.0,0.0,0.0,0.0,0.0,-5.0712,-5.0712,-5.0712,-5.0712,0.0,-5.0712,-5.0712,-5.0712,-5.0712,-5.0712,-5.0712,-5.0712,-5.0712,-5.0712,-5.0712,-5.0712,-5.0712,-5.0712,-5.0712,-5.0712,-5.0712,-5.0712,-5.0712,-5.0712,-5.0712,-5.0712,-5.0712,-5.0712,-5.0712,-5.0712,-5.0712,-5.0712,-5.0712,-5.0712,-5.0712,-5.0712,-5.0712,-5.0712,-5.0712,-5.0712,-5.0712,-5.0712,-5.0712,-5.0712,-5.0712,-5.0712,-5.0712,-5.0712,-5.0712,-5.0712,-5.0712,-5.0712,-5.0712,-5.0712,-5.0712,-5.0712,-5.0712,-5.0712,-5.0712,-5.0712,-5.0712,-5.0712,-5.0712,-5.0712,-5.0712,-5.0712,-5.0712,-5.0712,-5.0712,-5.0614,-5.0565,-5.0565,-5.0483,-5.0432,-5.0432,-5.0432,-5.0483,-3.2123,0.0,0.0,-3.8999,0.0,0.0,0.0,0.0,0.0,0.0,0.0,0.0,0.0,0.0,0.0,0.0,0.0,0.0,0.0,0.0,0.0,0.0,0.0,0.0,0.0,0.0,0.0,0.0,0.0,0.0,0.0,0.0,0.0,0.0,-5.0712,-5.0712,-5.0712,-5.0712,-5.0712,-5.0712,-5.0712,-5.0712,-5.0712,-5.0712,-5.0712,-5.0712,-5.0712,-5.0712,-5.0712,-5.0712,-5.0712,-5.0712,-5.0712,-5.0712,-5.0712,-5.0712,-5.0712,-5.0712,-5.0712,-5.0712,-5.0712,-5.0712,-5.0712,-5.0712,-5.0712,-5.0712,-5.0712,-5.0712,-5.0712,-5.0712,-5.0712,-5.0712,-5.0712,-5.0712,-5.0712,-5.0712,-5.0712,-5.0712,-5.0712,-5.0712,-5.0712,-5.0712,-5.0712,-5.0712,-5.0712,-5.0712,-5.0712,-5.0712,-5.0712,-5.0712,-5.0712,-5.0712,-5.0712,-5.0712,-5.0712,-5.0712,-5.0712,-5.0712,-5.0712,-5.0712,-5.0712,-5.0712,-5.0712,-5.0712,-5.0712,-5.0712,-5.0712,-5.0712,-5.0712,-5.0712,-5.0712,-5.0712,-3.1402,0.0,-3.7365,-4.1971,-4.4688,0.0,0.0,0.0,0.0,0.0,0.0,0.0,0.0,0.0,0.0,0.0,0.0,0.0,0.0,0.0,0.0,0.0,0.0,0.0,0.0,0.0,0.0,0.0,0.0,0.0,0.0,0.0,-5.0712,-5.0712,-5.0712,-5.0712,-5.0712,-5.0712,-5.0712,-5.0712,-5.0712,-5.0712,-5.0712,-5.0712,-5.0712,-5.0712,-5.0712,-5.0712,-5.0712,-5.0712,-5.0712,-5.0712,-5.0712,-5.0712,-5.0712,-5.0712,-5.0712,-5.0712,-5.0712,-5.0712,-5.0712,-5.0712,-5.0712,-5.0712,-5.0712,-5.0712,-5.0712,-5.0712,-5.0712,-5.0712,-5.0712,-5.0712,-5.0712,-5.0712,-5.0712,-5.0712,-5.0712,-5.0712,-5.0712,-5.0712,-5.0712,-5.0712,-5.0712,-5.0712,-5.0712,-5.0712,-5.0712,-5.0712,-5.0712,-5.0712,-5.0712,-5.0712,-5.0712,-5.0712,-5.0712,-5.0712,-5.0712,-5.0712,-5.0712,-5.0712,-5.0712,-5.0712,-5.0712,-5.0712,-5.0712,-5.0712,-5.0712,-5.0712,-5.0712,-5.0712,-5.0712,-5.0712,0.0,0.0,-3.9585,0.0,0.0,0.0,0.0,0.0,0.0,0.0,0.0,0.0,0.0,0.0,0.0,0.0,0.0,0.0,0.0,0.0,0.0,0.0,0.0,0.0,0.0,0.0,0.0,0.0,0.0,0.0,0.0,-5.0712,-5.0712,-5.0712,-5.0712,-5.0712,-5.0712,-5.0712,-5.0712,-5.0712,-5.0712,-5.0712,-5.0712,-5.0712,-5.0712,-5.0712,-5.0712,-5.0712,-5.0712,-5.0712,-5.0712,-5.0712,-5.0712,-5.0712,-5.0712,-5.0712,-5.0712,-5.0712,-5.0712,-5.0712,-5.0712,-5.0712,-5.0712,-5.0712,-5.0712,-5.0712,-5.0712,-5.0712,-5.0712,-5.0712,-5.0712,-5.0712,-5.0712,-5.0712,-5.0712,-5.0712,-5.0712,-5.0712,-5.0712,-5.0712,-5.0712,-5.0712,-5.0712,-5.0712,-5.0712,-5.0712,-5.0712,-5.0712,-5.0712,-5.0712,-5.0712,-5.0712,-5.0712,-5.0712,-5.0712,-5.0712,-5.0712,-5.0712,-5.0712,-5.0712,-5.0712,-5.0712,-5.0712,-5.0712,-5.0712,-5.0712,-5.0712,-5.0712,-5.0712,-5.0712,-5.0712,-5.0712,-3.1287,-3.3965,-3.7065,0.0,0.0,0.0,0.0,0.0,0.0,0.0,0.0,0.0,0.0,0.0,0.0,0.0,0.0,0.0,0.0,0.0,0.0,0.0,0.0,0.0,0.0,0.0,0.0,0.0,0.0,0.0,-5.0712,-5.0712,-5.0712,-5.0712,-5.0712,-5.0712,-5.0712,-5.0712,-5.0712,-5.0712,-5.0712,-5.0712,-5.0712,-5.0712,-5.0712,-5.0712,-5.0712,-5.0712,-5.0712,-5.0712,-5.0712,-5.0712,-5.0712,-5.0712,-5.0712,-5.0712,-5.0712,-5.0712,-5.0712,-5.0712,-5.0712,-5.0712,-5.0712,-5.0712,-5.0712,-5.0712,-5.0712,-5.0712,-5.0712,-5.0712,-5.0712,-5.0712,-5.0712,-5.0712,-5.0712,-5.0712,-5.0712,-5.0712,-5.0712,-5.0712,-5.0712,-5.0712,-5.0712,-5.0712,-5.0712,-5.0712,-5.0712,-5.0712,-5.0712,-5.0712,-5.0712,-5.0712,-5.0712,-5.0712,-5.0712,-5.0712,-5.0712,-5.0712,-5.0712,-5.0712,-5.0712,-5.0712,-5.0712,-5.0712,-5.0712,-5.0712,-5.0712,-5.0712,-5.0712,-5.0712,-5.0712,-5.0712,0.0,0.0,0.0,0.0,0.0,0.0,0.0,0.0,0.0,0.0,0.0,0.0,0.0,0.0,0.0,0.0,0.0,0.0,0.0,0.0,0.0,0.0,0.0,0.0,0.0,0.0,0.0,0.0,0.0,0.0,-5.0712,-5.0712,-5.0712,-5.0712,-5.0712,-5.0712,-5.0712,-5.0712,-5.0712,-5.0712,-5.0712,-5.0712,-5.0712,-5.0712,-5.0712,-5.0712,-5.0712,-5.0712,-5.0712,-5.0712,-5.0712,-5.0712,-5.0712,-5.0712,-5.0712,-5.0712,-5.0712,-5.0712,-5.0712,-5.0712,-5.0712,-5.0712,-5.0712,-5.0712,-5.0712,-5.0712,-5.0712,-5.0712,-5.0712,-5.0712,-5.0712,-5.0712,-5.0712,-5.0712,-5.0712,-5.0712,-5.0712,-5.0712,-5.0712,-5.0712,-5.0712,-5.0712,-5.0712,-5.0712,-5.0712,-5.0712,-5.0712,-5.0712,-5.0712,-5.0712,-5.0712,-5.0712,-5.0712,-5.0712,-5.0712,-5.0712,-5.0712,-5.0712,-5.0712,-5.0712,-5.0712,-5.0712,-5.0712,-5.0712,-5.0712,-5.0712,-5.0712,-5.0712,-5.0712,-5.0712,-5.0712,-5.0712,0.0,0.0,0.0,0.0,0.0,0.0,0.0,0.0,0.0,0.0,0.0,0.0,0.0,0.0,0.0,0.0,0.0,0.0,0.0,0.0,0.0,0.0,0.0,0.0,0.0,0.0,0.0,0.0,0.0,0.0,-5.0712,-5.0712,-5.0712,-5.0712,-5.0712,-5.0712,-5.0712,-5.0712,-5.0712,-5.0712,-5.0712,-5.0712,-5.0712,-5.0712,-5.0712,-5.0712,-5.0712,-5.0712,-5.0712,-5.0712,-5.0712,-5.0712,-5.0712,-5.0712,-5.0712,-5.0712,-5.0712,-5.0712,-5.0712,-5.0712,-5.0712,-5.0712,-5.0712,-5.0712,-5.0712,-5.0712,-5.0712,-5.0712,-5.0712,-5.0712,-5.0712,-5.0712,-5.0712,-5.0712,-5.0712,-5.0712,-5.0712,-5.0712,-5.0712,-5.0712,-5.0712,-5.0712,-5.0712,-5.0712,-5.0712,-5.0712,-5.0712,-5.0712,-5.0712,-5.0712,-5.0712,-5.0712,-5.0712,-5.0712,-5.0712,-5.0712,-5.0712,-5.0712,-5.0712,-5.0712,-5.0712,-5.0712,-5.0712,-5.0712,-5.0712,-5.0712,-5.0712,-5.0712,-5.0712,-5.0712,-5.0712,-5.0712,0.0,0.0,0.0,0.0,0.0,0.0,0.0,0.0,0.0,0.0,0.0,0.0,0.0,0.0,0.0,0.0,0.0,0.0,0.0,0.0,0.0,0.0,0.0,0.0,0.0,0.0,0.0,0.0,0.0,0.0,-5.0673,-5.0173,-5.0106,-5.0673,-5.0712,-5.0712,-5.0712,-5.0712,-5.0712,-5.0712,-5.0712,-5.0712,-5.0712,-5.0712,-5.0712,-5.0712,-5.0712,-5.0712,-5.0712,-5.0712,-5.0712,-5.0712,-5.0712,-5.0712,-5.0712,-5.0712,-5.0712,-5.0712,-5.0712,-5.0712,-5.0712,-5.0712,-5.0712,-5.0712,-5.0712,-5.0712,-5.0712,-5.0712,-5.0712,-5.0712,-5.0712,-5.0712,-5.0712,-5.0712,-5.0712,-5.0712,-5.0712,-5.0712,-5.0712,-5.0712,-5.0712,-5.0712,-5.0712,-5.0712,-5.0712,-5.0712,-5.0712,-5.0712,-5.0712,-5.0712,-5.0712,-5.0712,-5.0712,-5.0712,-5.0712,-5.0712,-5.0712,-5.0712,-5.0712,-5.0712,-5.0712,-5.0712,-5.0712,-5.0712,-5.0712,-5.0712,-5.0712,-5.0712,-5.0712,-5.0712,-5.0712,-5.0712,-3.0781,0.0,0.0,0.0,0.0,0.0,0.0,0.0,0.0,0.0,0.0,0.0,0.0,0.0,0.0,0.0,0.0,0.0,0.0,0.0,0.0,0.0,0.0,0.0,0.0,0.0,0.0,0.0,0.0,0.0,-5.0673,-5.0144,-5.0087,-5.0673,-5.0712,-5.0712,-5.0712,-5.0712,-5.0712,-5.0712,-5.0712,-5.0712,-5.0712,-5.0712,-5.0712,-5.0712,-5.0712,-5.0712,-5.0712,-5.0712,-5.0712,-5.0712,-5.0712,-5.0712,-5.0712,-5.0712,-5.0712,-5.0712,-5.0712,-5.0712,-5.0712,-5.0712,-5.0712,-5.0712,-5.0712,-5.0712,-5.0712,-5.0712,-5.0712,-5.0712,-5.0712,-5.0712,-5.0712,-5.0712,-5.0712,-5.0712,-5.0712,-5.0712,-5.0712,-5.0712,-5.0712,-5.0712,-5.0712,-5.0712,-5.0712,-5.0712,-5.0712,-5.0712,-5.0712,-5.0712,-5.0712,-5.0712,-5.0712,-5.0712,-5.0712,-5.0712,-5.0712,-5.0712,-5.0712,-5.0712,-5.0712,-5.0712,-5.0712,-5.0712,-5.0712,-5.0712,-5.0712,-5.0712,-5.0712,-5.0712,-5.0712,-5.0712,0.0,0.0,0.0,0.0,0.0,0.0,0.0,0.0,0.0,0.0,0.0,0.0,0.0,0.0,0.0,0.0,0.0,0.0,0.0,0.0,0.0,0.0,0.0,0.0,0.0,0.0,0.0,0.0,0.0,-5.0673,-5.0712,-5.0712,-5.0712,-5.0712,-5.0712,-5.0712,-5.0712,-5.0712,-5.0712,-5.0712,-5.0712,-5.0712,-5.0712,-5.0712,-5.0712,-5.0712,-5.0712,-5.0712,-5.0712,-5.0712,-5.0712,-5.0712,-5.0712,-5.0712,-5.0712,-5.0712,-5.0712,-5.0712,-5.0712,-5.0712,-5.0712,-5.0712,-5.0712,-5.0712,-5.0712,-5.0712,-5.0712,-5.0712,-5.0712,-5.0712,-5.0712,-5.0712,-5.0712,-5.0712,-5.0712,-5.0712,-5.0712,-5.0712,-5.0712,-5.0712,-5.0712,-5.0712,-5.0712,-5.0712,-5.0712,-5.0712,-5.0712,-5.0712,-5.0712,-5.0712,-5.0712,-5.0712,-5.0712,-5.0712,-5.0712,-5.0712,-5.0712,-5.0712,-5.0712,-5.0712,-5.0712,-5.0712,-5.0712,-5.0712,-5.0712,-5.0712,-5.0712,-5.0712,-5.0712,-5.0712,-5.0712,-5.0712,-3.0469,0.0,0.0,0.0,0.0,0.0,0.0,0.0,0.0,0.0,0.0,0.0,0.0,0.0,0.0,0.0,0.0,0.0,0.0,0.0,0.0,0.0,0.0,0.0,0.0,0.0,0.0,0.0,-5.0106,-5.0029,-5.0673,-5.0712,-5.0712,-5.0712,-5.0712,-5.0712,-5.0712,-5.0712,-5.0712,-5.0712,-5.0712,-5.0712,-5.0712,-5.0712,-5.0712,-5.0712,-5.0712,-5.0712,-5.0712,-5.0712,-5.0712,-5.0712,-5.0712,-5.0712,-5.0712,-5.0712,-5.0712,-5.0712,-5.0712,-5.0712,-5.0712,-5.0712,-5.0712,-5.0712,-5.0712,-5.0712,-5.0712,-5.0712,-5.0712,-5.0712,-5.0712,-5.0712,-5.0712,-5.0712,-5.0712,-5.0712,-5.0712,-5.0712,-5.0712,-5.0712,-5.0712,-5.0712,-5.0712,-5.0712,-5.0712,-5.0712,-5.0712,-5.0712,-5.0712,-5.0712,-5.0712,-5.0712,-5.0712,-5.0712,-5.0712,-5.0712,-5.0712,-5.0712,-5.0712,-5.0712,-5.0712,-5.0712,-5.0712,-5.0712,-5.0712,-5.0712,-5.0712,-5.0712,-5.0712,-5.0712,-5.0712,-5.0712,0.0,0.0,0.0,0.0,0.0,0.0,0.0,0.0,0.0,0.0,0.0,0.0,0.0,0.0,0.0,0.0,0.0,0.0,0.0,0.0,0.0,0.0,0.0,0.0,0.0,0.0,0.0,0.0,-5.001,-5.0164,-5.0673,-5.0712,-5.0712,-5.0712,-5.0712,-5.0712,-5.0712,-5.0712,-5.0712,-5.0712,-5.0712,-5.0712,-5.0712,-5.0712,-5.0712,-5.0712,-5.0712,-5.0712,-5.0712,-5.0712,-5.0712,-5.0712,-5.0712,-5.0712,-5.0712,-5.0712,-5.0712,-5.0712,-5.0712,-5.0712,-5.0712,-5.0712,-5.0712,-5.0712,-5.0712,-5.0712,-5.0712,-5.0712,-5.0712,-5.0712,-5.0712,-5.0712,-5.0712,-5.0712,-5.0712,-5.0712,-5.0712,-5.0712,-5.0712,-5.0712,-5.0712,-5.0712,-5.0712,-5.0712,-5.0712,-5.0712,-5.0712,-5.0712,-5.0712,-5.0712,-5.0712,-5.0712,-5.0712,-5.0712,-5.0712,-5.0712,-5.0712,-5.0712,-5.0712,-5.0712,-5.0712,-5.0712,-5.0712,-5.0712,-5.0712,-5.0712,-5.0712,-5.0712,-5.0712,-5.0712,-5.0712,-5.0712,0.0,0.0,0.0,0.0,0.0,0.0,-3.7754,-3.9512,-4.1094,0.0,0.0,0.0,0.0,0.0,0.0,0.0,0.0,0.0,0.0,0.0,0.0,0.0,0.0,0.0,0.0,0.0,-4.926,-4.926,-5.0048,-5.0558,-5.0558,-5.0654,-5.0712,-5.0712,-5.0712,-5.0712,-5.0712,-5.0712,-5.0712,-5.0712,-5.0712,-5.0712,-5.0712,-5.0712,-5.0712,-5.0712,-5.0712,-5.0712,-5.0712,-5.0712,-5.0712,-5.0712,-5.0712,-5.0712,-5.0712,-5.0712,-5.0712,-5.0712,-5.0712,-5.0712,-5.0712,-5.0712,-5.0712,-5.0712,-5.0712,-5.0712,-5.0712,-5.0712,-5.0712,-5.0712,-5.0712,-5.0712,-5.0712,-5.0712,-5.0712,-5.0712,-5.0712,-5.0712,-5.0712,-5.0712,-5.0712,-5.0712,-5.0712,-5.0712,-5.0712,-5.0712,-5.0712,-5.0712,-5.0712,-5.0712,-5.0712,-5.0712,-5.0712,-5.0712,-5.0712,-5.0712,-5.0712,-5.0712,-5.0712,-5.0712,-5.0712,-5.0712,-5.0712,-5.0712,-5.0712,-5.0712,-5.0712,-5.0712,-5.0712,-5.0712,-5.0712,-5.0712,0.0,0.0,0.0,0.0,0.0,0.0,-3.623,-3.6777,-3.7519,0.0,0.0,0.0,0.0,0.0,0.0,0.0,0.0,0.0,0.0,0.0,0.0,0.0,0.0,0.0,0.0,0.0,-4.8355,-4.8355,-4.9163,-4.9644,-4.9644,-5.0327,-5.0712,-5.0712,-5.0712,-5.0712,-5.0712,-5.0712,-5.0712,-5.0712,-5.0712,-5.0712,-5.0712,-5.0712,-5.0712,-5.0712,-5.0712,-5.0712,-5.0712,-5.0712,-5.0712,-5.0712,-5.0712,-5.0712,-5.0712,-5.0712,-5.0712,-5.0712,-5.0712,-5.0712,-5.0712,-5.0712,-5.0712,-5.0712,-5.0712,-5.0712,-5.0712,-5.0712,-5.0712,-5.0712,-5.0712,-5.0712,-5.0712,-5.0712,-5.0712,-5.0712,-5.0712,-5.0712,-5.0712,-5.0712,-5.0712,-5.0712,-5.0712,-5.0712,-5.0712,-5.0712,-5.0712,-5.0712,-5.0712,-5.0712,-5.0712,-5.0712,-5.0712,-5.0712,-5.0712,-5.0712,-5.0712,-5.0712,-5.0712,-5.0712,-5.0712,-5.0712,-5.0712,-5.0712,-5.0712,-5.0712,-5.0712,-5.0712,-5.0712,-5.0712,-5.0712,-5.0712,0.0,0.0,0.0,-3.5234,0.0,0.0,0.0,-3.6973,-3.7676,0.0,0.0,0.0,0.0,0.0,0.0,0.0,0.0,0.0,0.0,0.0,0.0,0.0,0.0,0.0,0.0,0.0,-4.7799,-4.8174,-4.8535,-4.8759,-4.8759,-4.9586,-5.0048,-5.0048,-5.0481,-5.0712,-5.0712,-5.0712,-5.0712,-5.0712,-5.0712,-5.0712,-5.0712,-5.0712,-5.0712,-5.0712,-5.0712,-5.0712,-5.0712,-5.0712,-5.0712,-5.0712,-5.0712,-5.0712,-5.0712,-5.0712,-5.0712,-5.0712,-5.0712,-5.0712,-5.0712,-5.0712,-5.0712,-5.0712,-5.0712,-5.0712,-5.0712,-5.0712,-5.0712,-5.0712,-5.0712,-5.0712,-5.0712,-5.0712,-5.0712,-5.0712,-5.0712,-5.0712,-5.0712,-5.0712,-5.0712,-5.0712,-5.0712,-5.0712,-5.0712,-5.0712,-5.0712,-5.0712,-5.0712,-5.0712,-5.0712,-5.0712,-5.0712,-5.0712,-5.0712,-5.0712,-5.0712,-5.0712,-5.0712,-5.0712,-5.0712,-5.0712,-5.0712,-5.0712,-5.0712,-5.0712,-5.0712,-5.0712,-5.0712,-5.0712,-5.0712,-5.0712,0.0,0.0,0.0,0.0,0.0,-3.6172,0.0,0.0,0.0,-3.9004,0.0,0.0,0.0,0.0,0.0,0.0,0.0,0.0,0.0,0.0,0.0,0.0,0.0,0.0,0.0,0.0,-4.7023,-4.7752,-4.7866,-4.7881,-4.7875,-4.8682,-4.9144,-4.9144,-4.999,-5.0462,-5.0462,-5.0616,-5.0712,-5.0712,-5.0712,-5.0712,-5.0712,-5.0712,-5.0712,-5.0712,-5.0712,-5.0712,-5.0712,-5.0712,-5.0712,-5.0712,-5.0712,-5.0712,-5.0712,-5.0712,-5.0712,-5.0712,-5.0712,-5.0712,-5.0712,-5.0712,-5.0712,-5.0712,-5.0712,-5.0712,-5.0712,-5.0712,-5.0712,-5.0712,-5.0712,-5.0712,-5.0712,-5.0712,-5.0712,-5.0712,-5.0712,-5.0712,-5.0712,-5.0712,-5.0712,-5.0712,-5.0712,-5.0712,-5.0712,-5.0712,-5.0712,-5.0712,-5.0712,-5.0712,-5.0712,-5.0712,-5.0712,-5.0712,-5.0712,-5.0712,-5.0712,-5.0712,-5.0712,-5.0712,-5.0712,-5.0712,-5.0712,-5.0712,-5.0712,-5.0712,-5.0712,-5.0712,-5.0712,-5.0712,-5.0712,-5.0712,0.0,0.0,0.0,0.0,-3.5996,0.0,0.0,0.0,-3.6328,-3.6426,0.0,0.0,0.0,0.0,0.0,0.0,0.0,0.0,0.0,0.0,0.0,0.0,0.0,0.0,0.0,0.0,0.0,-4.6022,-4.6737,-4.7106,-4.7037,-4.7817,-4.8259,-4.8259,-4.9086,-4.9548,-4.9548,-5.0308,-5.0712,-5.0712,-5.0712,-5.0712,-5.0712,-5.0712,-5.0712,-5.0712,-5.0712,-5.0712,-5.0712,-5.0712,-5.0712,-5.0712,-5.0712,-5.0712,-5.0712,-5.0712,-5.0712,-5.0712,-5.0712,-5.0712,-5.0712,-5.0712,-5.0712,-5.0712,-5.0712,-5.0712,-5.0712,-5.0712,-5.0712,-5.0712,-5.0712,-5.0712,-5.0712,-5.0712,-5.0712,-5.0712,-5.0712,-5.0712,-5.0712,-5.0712,-5.0712,-5.0712,-5.0712,-5.0712,-5.0712,-5.0712,-5.0712,-5.0712,-5.0712,-5.0712,-5.0712,-5.0712,-5.0712,-5.0712,-5.0712,-5.0712,-5.0712,-5.0712,-5.0712,-5.0712,-5.0712,-5.0712,-5.0712,-5.0712,-5.0712,-5.0712,-5.0712,-5.0712,-5.0712,-5.0712,-5.0712,-5.0712,0.0,0.0,0.0,0.0,0.0,0.0,0.0,0.0,-3.5996,0.0,0.0,0.0,0.0,0.0,0.0,0.0,0.0,0.0,0.0,0.0,0.0,0.0,0.0,0.0,0.0,0.0,0.0,0.0,0.0,-4.4764,-4.469,-4.6432,-4.7413,-4.7413,-4.8221,-4.8644,-4.8644,-4.951,-4.9952,-4.9952,-5.0462,-5.0712,-5.0712,-5.0712,-5.0712,-5.0712,-5.0712,-5.0712,-5.0712,-5.0712,-5.0712,-5.0712,-5.0712,-5.0712,-5.0712,-5.0712,-5.0712,-5.0712,-5.0712,-5.0712,-5.0712,-5.0712,-5.0712,-5.0712,-5.0712,-5.0712,-5.0712,-5.0712,-5.0712,-5.0712,-5.0712,-5.0712,-5.0712,-5.0712,-5.0712,-5.0712,-5.0712,-5.0712,-5.0712,-5.0712,-5.0712,-5.0712,-5.0712,-5.0712,-5.0712,-5.0712,-5.0712,-5.0712,-5.0712,-5.0712,-5.0712,-5.0712,-5.0712,-5.0712,-5.0712,-5.0712,-5.0712,-5.0712,-5.0712,-5.0712,-5.0712,-5.0712,-5.0712,-5.0712,-5.0712,-5.0712,-5.0712,-5.0712,-5.0712,-5.0712,-5.0712,-5.0712,-3.9199,0.0,0.0,0.0,0.0,0.0,0.0,0.0,0.0,0.0,0.0,0.0,0.0,0.0,0.0,0.0,0.0,0.0,0.0,0.0,0.0,0.0,0.0,0.0,0.0,0.0,0.0,0.0,-4.3059,-4.3228,-4.3127,-4.5304,-4.6547,-4.6547,-4.7336,-4.7778,-4.7778,-4.8625,-4.9163,-4.9413,-5.0029,-5.0481,-5.0712,-5.0712,-5.0712,-5.0712,-5.0712,-5.0712,-5.0712,-5.0712,-5.0712,-5.0712,-5.0712,-5.0712,-5.0712,-5.0712,-5.0712,-5.0712,-5.0712,-5.0712,-5.0712,-5.0712,-5.0712,-5.0712,-5.0712,-5.0712,-5.0712,-5.0712,-5.0712,-5.0712,-5.0712,-5.0712,-5.0712,-5.0712,-5.0712,-5.0712,-5.0712,-5.0712,-5.0712,-5.0712,-5.0712,-5.0712,-5.0712,-5.0712,-5.0712,-5.0712,-5.0712,-5.0712,-5.0712,-5.0712,-5.0712,-5.0712,-5.0712,-5.0712,-5.0712,-5.0712,-5.0712,-5.0712,-5.0712,-5.0712,-5.0712,-5.0712,-5.0712,-5.0712,-5.0712,-5.0712,-5.0712,-5.0712,-5.0712,-5.0712,-5.0712,-5.0712,0.0,0.0,0.0,-3.9023,0.0,0.0,0.0,0.0,-3.5996,0.0,0.0,0.0,0.0,0.0,-3.5723,-3.4883,0.0,0.0,0.0,0.0,0.0,0.0,0.0,0.0,0.0,0.0,0.0,-4.1146,-4.2528,-4.3345,-4.3202,-4.4742,-4.5633,-4.5633,-4.649,-4.6942,-4.6942,-4.774,-4.8567,-4.9394,-4.9433,-4.9875,-5.0712,-5.0712,-5.0712,-5.0712,-5.0712,-5.0712,-5.0712,-5.0712,-5.0712,-5.0712,-5.0712,-5.0712,-5.0712,-5.0712,-5.0712,-5.0712,-5.0712,-5.0712,-5.0712,-5.0712,-5.0712,-5.0712,-5.0712,-5.0712,-5.0712,-5.0712,-5.0712,-5.0712,-5.0712,-5.0712,-5.0712,-5.0712,-5.0712,-5.0712,-5.0712,-5.0712,-5.0712,-5.0712,-5.0712,-5.0712,-5.0712,-5.0712,-5.0712,-5.0712,-5.0712,-5.0712,-5.0712,-5.0712,-5.0712,-5.0712,-5.0712,-5.0712,-5.0712,-5.0712,-5.0712,-5.0712,-5.0712,-5.0712,-5.0712,-5.0712,-5.0712,-5.0712,-5.0712,-5.0712,-5.0712,-5.0712,-5.0712,-5.0712,-5.0712,-5.0712,0.0,0.0,-4.2715,-4.2129,0.0,0.0,0.0,0.0,0.0,0.0,0.0,0.0,0.0,0.0,-3.5898,-3.5605,-3.5801,-3.5898,0.0,0.0,0.0,0.0,0.0,0.0,0.0,0.0,0.0,-3.9224,-3.9777,-4.0007,0.0,-4.2498,-4.3995,-4.3959,-4.5316,-4.6028,-4.6028,-4.6874,-4.7721,-4.8548,-4.9125,-4.9856,-5.0712,-5.0712,-5.0712,-5.0712,-5.0712,-5.0712,-5.0712,-5.0712,-5.0712,-5.0712,-5.0712,-5.0712,-5.0712,-5.0712,-5.0712,-5.0712,-5.0712,-5.0712,-5.0712,-5.0712,-5.0712,-5.0712,-5.0712,-5.0712,-5.0712,-5.0712,-5.0712,-5.0712,-5.0712,-5.0712,-5.0712,-5.0712,-5.0712,-5.0712,-5.0712,-5.0712,-5.0712,-5.0712,-5.0712,-5.0712,-5.0712,-5.0712,-5.0712,-5.0712,-5.0712,-5.0712,-5.0712,-5.0712,-5.0712,-5.0712,-5.0712,-5.0712,-5.0712,-5.0712,-5.0712,-5.0712,-5.0712,-5.0712,-5.0712,-5.0712,-5.0712,-5.0712,-5.0712,-5.0712,-5.0712,-5.0712,-5.0712,-5.0712,-5.0712,-5.0712,-4.4336,-4.4629,0.0,-4.3848,-4.2891,0.0,-4.1348,0.0,0.0,0.0,0.0,0.0,0.0,0.0,-3.7187,-3.6562,-3.6465,-3.6348,0.0,-3.5996,0.0,0.0,0.0,0.0,0.0,0.0,-3.7108,-3.7526,-3.8071,-3.833,0.0,0.0,-4.3174,-4.3142,-4.4743,-4.5594,-4.5594,-4.6163,-4.6855,-4.7682,-4.8581,-4.9439,-5.025,-5.0604,-5.0758,-5.0712,-5.0712,-5.0712,-5.0712,-5.0712,-5.0712,-5.0712,-5.0712,-5.0712,-5.0712,-5.0712,-5.0712,-5.0712,-5.0712,-5.0712,-5.0712,-5.0712,-5.0712,-5.0712,-5.0712,-5.0712,-5.0712,-5.0712,-5.0712,-5.0712,-5.0712,-5.0712,-5.0712,-5.0712,-5.0712,-5.0712,-5.0712,-5.0712,-5.0712,-5.0712,-5.0712,-5.0712,-5.0712,-5.0712,-5.0712,-5.0712,-5.0712,-5.0712,-5.0712,-5.0712,-5.0712,-5.0712,-5.0712,-5.0712,-5.0712,-5.0712,-5.0712,-5.0712,-5.0712,-5.0712,-5.0712,-5.0712,-5.0712,-5.0712,-5.0712,-5.0712,-5.0712,-5.0712,-5.0712,-5.0712,-5.0712,-5.0712]},{"header":{"parameterUnit":"m.s-1","parameterCategory":1,"la1":30.6,"la2":29.2853,"lo1":-89.7004,"lo2":-87.6739,"dy":0.0162,"dx":0.0183,"nx":112,"ny":82,"refTime":"2023-06-30T12:00:00:Z","depth":0,"parameterNumber":3,"parameterNumberName":"V-component_of_WINDS"},"data":[0.0,0.0,0.0,0.0,0.0,0.0,0.0,0.0,0.0,0.0,0.0,0.0,0.0,0.0,0.0,0.0,0.0,0.0,0.0,0.0,0.0,0.0,0.0,0.0,0.0,0.0,0.0,0.0,0.0,0.0,0.0,0.0,0.0,0.0,0.0,0.0,0.0,0.0,0.0,0.0,0.0,0.0,0.0,0.0,0.0,0.0,0.0,0.0,0.0,0.0,0.0,0.0,0.0,0.0,0.0,0.0,0.0,0.0,0.0,0.0,0.0,0.0,0.0,0.0,0.0,0.0,0.0,0.0,0.0,0.0,0.0,0.0,0.0,0.0,0.0,0.0,0.0,0.0,0.0,0.0,0.0,0.0,0.0,0.0,0.0,0.0,0.0,0.0,0.0,0.0,0.0,-1.1402,-1.2004,-1.2305,-1.2305,-1.2305,-1.1804,-1.0667,0.0,0.0,0.0,0.0,0.0,0.0,0.0,0.0,0.0,0.0,0.0,0.0,0.0,0.0,0.0,0.0,0.0,0.0,0.0,0.0,0.0,0.0,0.0,0.0,0.0,0.0,0.0,0.0,0.0,0.0,0.0,0.0,0.0,0.0,0.0,0.0,0.0,0.0,0.0,0.0,0.0,0.0,0.0,0.0,0.0,0.0,0.0,0.0,0.0,0.0,0.0,0.0,0.0,0.0,0.0,0.0,0.0,0.0,0.0,0.0,0.0,0.0,0.0,0.0,0.0,0.0,0.0,0.0,0.0,0.0,0.0,0.0,0.0,0.0,0.0,0.0,0.0,0.0,0.0,0.0,0.0,0.0,0.0,0.0,0.0,0.0,0.0,0.0,0.0,0.0,0.0,0.0,0.0,0.0,0.0,0.0,0.0,0.0,0.0,0.0,0.0,0.0,0.0,0.0,-1.0908,-1.2044,-1.2245,-1.2305,-1.2305,-1.2305,-1.1804,-1.0667,0.0,0.0,0.0,0.0,0.0,0.0,0.0,0.0,0.0,0.0,0.0,0.0,0.0,0.0,0.0,0.0,0.0,0.0,0.0,0.0,0.0,0.0,0.0,0.0,0.0,0.0,0.0,0.0,0.0,0.0,0.0,0.0,0.0,0.0,0.0,0.0,0.0,0.0,0.0,0.0,0.0,0.0,0.0,0.0,0.0,0.0,0.0,0.0,0.0,0.0,0.0,0.0,0.0,0.0,0.0,0.0,0.0,0.0,0.0,0.0,0.0,0.0,0.0,0.0,0.0,0.0,0.0,0.0,0.0,0.0,0.0,0.0,0.0,0.0,0.0,0.0,0.0,0.0,0.0,0.0,0.0,0.0,0.0,0.0,0.0,0.0,0.0,0.0,0.0,0.0,0.0,0.0,0.0,0.0,0.0,0.0,0.0,0.0,0.0,0.0,0.0,0.0,0.0,-1.0814,-1.171,-1.2245,-1.2305,-1.2305,-1.2305,-1.2305,-1.1804,-1.0667,-1.0593,0.0,0.0,0.0,0.0,0.0,0.0,0.0,0.0,0.0,0.0,0.0,0.0,0.0,0.0,0.0,0.0,0.0,0.0,0.0,0.0,0.0,0.0,0.0,0.0,0.0,0.0,0.0,0.0,0.0,0.0,0.0,0.0,0.0,0.0,0.0,0.0,0.0,0.0,0.0,0.0,0.0,0.0,0.0,0.0,0.0,0.0,0.0,0.0,0.0,0.0,0.0,0.0,0.0,0.0,0.0,0.0,0.0,0.0,0.0,0.0,0.0,0.0,0.0,0.0,0.0,0.0,0.0,0.0,0.0,0.0,0.0,0.0,0.0,0.0,0.0,0.0,0.0,0.0,0.0,0.0,0.0,0.0,0.0,0.0,0.0,0.0,0.0,0.0,0.0,0.0,0.0,0.0,0.0,0.0,0.0,0.0,0.0,0.0,0.0,0.0,0.0,0.0,-1.1456,-1.2151,-1.2285,-1.2305,-1.2305,-1.2305,-1.2305,-1.1804,-1.0667,-1.0593,0.0,0.0,0.0,0.0,0.0,0.0,0.0,0.0,0.0,0.0,0.0,0.0,0.0,0.0,0.0,0.0,0.0,0.0,0.0,0.0,0.0,0.0,0.0,0.0,0.0,0.0,0.0,0.0,0.0,0.0,0.0,0.0,0.0,0.0,0.0,0.0,0.0,0.0,0.0,0.0,0.0,0.0,0.0,0.0,0.0,0.0,0.0,0.0,0.0,0.0,0.0,0.0,0.0,0.0,0.0,0.0,0.0,0.0,0.0,0.0,0.0,0.0,0.0,0.0,0.0,0.0,0.0,0.0,0.0,0.0,0.0,0.0,0.0,0.0,0.0,0.0,0.0,0.0,0.0,0.0,0.0,0.0,0.0,0.0,0.0,0.0,0.0,0.0,0.0,0.0,0.0,0.0,0.0,0.0,0.0,0.0,0.0,0.0,0.0,0.0,0.0,0.0,-1.1102,-1.1697,-1.2245,-1.2305,-1.2305,-1.2305,-1.2305,-1.1804,-1.0667,-1.0593,0.0,0.0,0.0,0.0,0.0,0.0,0.0,0.0,0.0,0.0,0.0,0.0,0.0,0.0,0.0,0.0,0.0,0.0,0.0,0.0,0.0,0.0,0.0,0.0,0.0,0.0,0.0,0.0,0.0,0.0,0.0,0.0,0.0,0.0,0.0,0.0,0.0,0.0,0.0,0.0,0.0,0.0,0.0,0.0,0.0,0.0,0.0,0.0,0.0,0.0,0.0,0.0,0.0,0.0,0.0,0.0,0.0,0.0,0.0,0.0,0.0,0.0,0.0,0.0,0.0,0.0,0.0,0.0,0.0,0.0,0.0,0.0,0.0,0.0,0.0,0.0,0.0,0.0,0.0,0.0,0.0,0.0,0.0,0.0,0.0,0.0,0.0,0.0,0.0,0.0,0.0,0.0,0.0,0.0,0.0,0.0,0.0,0.0,0.0,0.0,0.0,0.0,-1.139,-1.2058,0.0,-1.2305,-1.2305,-1.2305,-1.2305,-1.1804,-1.0667,0.0,0.0,0.0,0.0,0.0,0.0,0.0,0.0,0.0,0.0,0.0,0.0,0.0,0.0,0.0,0.0,0.0,0.0,0.0,0.0,0.0,0.0,0.0,0.0,0.0,0.0,0.0,0.0,0.0,0.0,0.0,0.0,0.0,0.0,0.0,0.0,0.0,0.0,0.0,0.0,0.0,0.0,0.0,0.0,0.0,0.0,0.0,0.0,0.0,0.0,0.0,0.0,0.0,0.0,0.0,0.0,0.0,0.0,0.0,0.0,0.0,0.0,0.0,0.0,0.0,0.0,0.0,0.0,0.0,0.0,0.0,0.0,0.0,0.0,0.0,0.0,0.0,0.0,0.0,0.0,0.0,0.0,0.0,0.0,0.0,0.0,0.0,0.0,0.0,0.0,0.0,0.0,0.0,0.0,0.0,0.0,0.0,0.0,0.0,0.0,0.0,0.0,-1.0593,-1.1618,-1.2305,0.0,-1.2305,-1.2305,-1.2305,-1.2305,-1.1804,-1.0667,0.0,0.0,0.0,0.0,0.0,0.0,0.0,0.0,0.0,0.0,0.0,0.0,0.0,0.0,0.0,0.0,0.0,0.0,0.0,0.0,0.0,0.0,0.0,0.0,0.0,0.0,0.0,0.0,0.0,0.0,0.0,0.0,0.0,0.0,0.0,0.0,0.0,0.0,0.0,0.0,0.0,0.0,0.0,0.0,0.0,0.0,0.0,0.0,0.0,0.0,0.0,0.0,0.0,0.0,0.0,0.0,0.0,0.0,0.0,0.0,0.0,0.0,0.0,0.0,0.0,0.0,0.0,0.0,0.0,0.0,0.0,0.0,0.0,0.0,0.0,0.0,0.0,0.0,0.0,0.0,0.0,0.0,0.0,0.0,0.0,0.0,0.0,0.0,0.0,0.0,0.0,0.0,0.0,0.0,0.0,0.0,0.0,0.0,0.0,0.0,0.0,0.0,-1.0593,-1.1618,-1.2305,-1.2305,-1.2305,-1.2305,-1.2305,-1.2305,-1.1804,0.0,0.0,0.0,0.0,0.0,0.0,0.0,0.0,0.0,0.0,0.0,0.0,0.0,0.0,0.0,0.0,0.0,0.0,0.0,0.0,0.0,0.0,0.0,0.0,0.0,0.0,0.0,0.0,0.0,0.0,0.0,0.0,0.0,0.0,0.0,0.0,0.0,0.0,0.0,0.0,0.0,0.0,0.0,0.0,0.0,0.0,0.0,0.0,0.0,0.0,0.0,0.0,0.0,0.0,0.0,0.0,0.0,0.0,0.0,0.0,0.0,0.0,0.0,0.0,0.0,0.0,0.0,0.0,0.0,0.0,0.0,0.0,0.0,0.0,0.0,0.0,0.0,0.0,0.0,0.0,0.0,0.0,0.0,0.0,0.0,0.0,0.0,0.0,0.0,0.0,0.0,0.0,0.0,0.0,0.0,0.0,0.0,0.0,0.0,0.0,0.0,0.0,0.0,-1.0593,-1.1618,-1.2305,-1.2305,-1.2305,-1.2305,-1.2305,-1.2305,-1.1804,-1.0667,0.0,0.0,0.0,0.0,0.0,0.0,0.0,0.0,0.0,0.0,0.0,0.0,0.0,0.0,0.0,0.0,0.0,0.0,0.0,0.0,0.0,0.0,0.0,0.0,0.0,0.0,0.0,0.0,0.0,0.0,0.0,0.0,0.0,0.0,0.0,0.0,0.0,0.0,0.0,0.0,0.0,0.0,0.0,0.0,0.0,0.0,0.0,0.0,0.0,0.0,0.0,0.0,0.0,0.0,0.0,0.0,0.0,0.0,0.0,0.0,0.0,0.0,0.0,0.0,0.0,0.0,0.0,0.0,0.0,0.0,0.0,0.0,0.0,0.0,0.0,0.0,0.0,0.0,0.0,0.0,0.0,0.0,0.0,0.0,0.0,0.0,0.0,0.0,0.0,0.0,0.0,0.0,0.0,0.0,0.0,0.0,0.0,0.0,0.0,0.0,0.0,0.0,-1.0754,-1.165,-1.2345,-1.2502,-1.2371,-1.2351,-1.2509,-1.2371,-1.1904,-1.0962,0.0,0.0,0.0,0.0,0.0,0.0,0.0,0.0,0.0,0.0,0.0,0.0,0.0,0.0,0.0,0.0,0.0,0.0,0.0,0.0,0.0,0.0,0.0,0.0,0.0,0.0,0.0,0.0,0.0,0.0,0.0,0.0,0.0,0.0,0.0,0.0,0.0,0.0,0.0,0.0,0.0,0.0,0.0,0.0,0.0,0.0,0.0,0.0,0.0,0.0,0.0,0.0,0.0,0.0,0.0,0.0,0.0,0.0,0.0,0.0,0.0,0.0,0.0,0.0,0.0,0.0,0.0,0.0,0.0,0.0,0.0,0.0,0.0,0.0,0.0,0.0,0.0,0.0,0.0,0.0,0.0,0.0,0.0,0.0,0.0,0.0,0.0,0.0,0.0,0.0,0.0,0.0,0.0,0.0,0.0,0.0,0.0,0.0,0.0,0.0,0.0,0.0,-1.1002,-1.1824,-1.2492,-1.2797,-1.2589,-1.2485,-1.2764,-1.2536,-1.2078,-1.1429,0.0,0.0,0.0,0.0,0.0,0.0,0.0,0.0,0.0,0.0,0.0,0.0,0.0,0.0,0.0,0.0,0.0,0.0,0.0,0.0,0.0,0.0,0.0,0.0,0.0,0.0,0.0,0.0,0.0,0.0,0.0,0.0,0.0,0.0,0.0,0.0,0.0,0.0,0.0,0.0,0.0,0.0,0.0,0.0,0.0,0.0,0.0,0.0,0.0,0.0,0.0,0.0,0.0,0.0,0.0,0.0,0.0,0.0,0.0,0.0,-1.0742,0.0,0.0,0.0,0.0,0.0,0.0,0.0,0.0,0.0,0.0,0.0,0.0,0.0,0.0,0.0,0.0,0.0,0.0,0.0,0.0,0.0,0.0,0.0,0.0,0.0,0.0,0.0,0.0,0.0,0.0,0.0,0.0,0.0,0.0,0.0,0.0,0.0,0.0,0.0,0.0,0.0,-1.1323,-1.2318,-1.3039,-1.3106,-1.3053,-1.2946,-1.2797,-1.2723,-1.2335,-1.1442,0.0,0.0,0.0,0.0,0.0,0.0,0.0,0.0,0.0,0.0,0.0,0.0,0.0,0.0,0.0,0.0,0.0,0.0,0.0,0.0,0.0,0.0,0.0,0.0,0.0,0.0,0.0,0.0,0.0,0.0,0.0,0.0,0.0,0.0,0.0,0.0,0.0,0.0,0.0,0.0,0.0,0.0,0.0,0.0,0.0,0.0,0.0,0.0,0.0,0.0,0.0,0.0,0.0,0.0,0.0,0.0,0.0,0.0,0.0,0.0,0.0,-1.0942,0.0,0.0,0.0,0.0,0.0,0.0,0.0,0.0,0.0,0.0,0.0,0.0,0.0,0.0,0.0,0.0,0.0,0.0,0.0,0.0,0.0,0.0,0.0,0.0,0.0,0.0,0.0,0.0,0.0,0.0,0.0,0.0,0.0,0.0,0.0,0.0,0.0,0.0,0.0,0.0,-1.1603,-1.2559,-1.3267,-1.3367,-1.3293,-1.32,-1.318,-1.3053,-1.275,-1.2098,-1.179,0.0,0.0,0.0,0.0,0.0,0.0,0.0,0.0,0.0,0.0,0.0,0.0,0.0,0.0,0.0,0.0,0.0,0.0,0.0,0.0,0.0,0.0,0.0,0.0,0.0,0.0,0.0,0.0,0.0,0.0,0.0,0.0,0.0,0.0,0.0,0.0,0.0,0.0,0.0,0.0,0.0,0.0,0.0,0.0,0.0,0.0,0.0,0.0,0.0,0.0,0.0,0.0,0.0,-1.1997,-1.2171,-1.2435,-1.2151,-1.2178,-1.2455,-1.2552,-1.2492,-1.2265,0.0,0.0,0.0,0.0,0.0,0.0,0.0,0.0,0.0,0.0,0.0,0.0,0.0,0.0,0.0,0.0,0.0,0.0,0.0,0.0,0.0,0.0,0.0,0.0,0.0,-1.0975,-1.0928,0.0,0.0,0.0,0.0,0.0,0.0,0.0,0.0,0.0,0.0,0.0,0.0,-1.1919,-1.2779,-1.3454,-1.3653,-1.3507,-1.344,-1.3586,-1.3387,-1.3153,-1.2884,-1.2362,-1.1899,0.0,0.0,0.0,0.0,0.0,0.0,0.0,0.0,0.0,0.0,0.0,0.0,0.0,0.0,0.0,0.0,0.0,0.0,0.0,0.0,0.0,0.0,0.0,0.0,0.0,0.0,0.0,0.0,0.0,0.0,0.0,0.0,-1.0568,-1.1275,0.0,0.0,0.0,0.0,0.0,0.0,0.0,0.0,0.0,0.0,0.0,0.0,0.0,0.0,-1.2859,-1.344,-1.3734,-1.3741,-1.4298,-1.4566,-1.4599,-1.4559,-1.4566,-1.4573,-1.4055,0.0,-1.2291,-1.2218,0.0,0.0,0.0,0.0,0.0,0.0,0.0,0.0,0.0,0.0,0.0,0.0,0.0,0.0,0.0,0.0,0.0,0.0,0.0,0.0,0.0,0.0,-1.2766,-1.2846,-1.2458,-1.2218,0.0,-1.1383,-1.0281,-1.1016,-1.0822,0.0,0.0,0.0,0.0,0.0,0.0,0.0,-1.2231,-1.3253,-1.3981,-1.4021,-1.3995,-1.3881,-1.362,-1.3567,-1.342,-1.3166,-1.2864,-1.2422,-1.1866,-1.2051,0.0,0.0,0.0,0.0,0.0,0.0,0.0,0.0,0.0,0.0,0.0,0.0,0.0,0.0,0.0,0.0,0.0,0.0,0.0,0.0,0.0,0.0,0.0,0.0,0.0,0.0,0.0,0.0,0.0,-1.0064,-1.1263,-1.185,-1.1744,-1.1456,0.0,0.0,0.0,0.0,0.0,0.0,0.0,0.0,0.0,-1.2799,-1.3414,-1.3808,-1.3948,-1.4689,-1.507,-1.507,-1.5324,-1.5538,-1.5738,-1.5531,-1.5545,-1.5725,-1.5251,-1.4676,-1.4001,-1.3507,-1.3206,-1.2967,0.0,0.0,0.0,0.0,-1.0969,-1.1049,-1.1049,-1.143,0.0,0.0,0.0,0.0,0.0,0.0,0.0,0.0,0.0,0.0,0.0,0.0,0.0,-1.3133,-1.3126,-1.3134,-1.3607,-1.2859,-1.2028,0.0,-1.1577,-1.1263,-1.1029,0.0,0.0,0.0,0.0,0.0,-1.2792,-1.3701,-1.4269,-1.4108,-1.4229,-1.4208,-1.3915,-1.3895,-1.3768,-1.3433,-1.3327,-1.2986,-1.2422,-1.2522,-1.2114,0.0,0.0,0.0,0.0,0.0,0.0,0.0,0.0,0.0,0.0,0.0,0.0,0.0,0.0,0.0,0.0,0.0,0.0,0.0,0.0,0.0,0.0,0.0,0.0,0.0,0.0,0.0,0.0,-1.0876,-1.167,-1.2338,-1.2231,-1.1964,0.0,0.0,0.0,0.0,0.0,0.0,-1.3226,-1.342,-1.3681,-1.3981,-1.4629,-1.5003,-1.5077,-1.5732,-1.6052,-1.6052,-1.6052,-1.6172,-1.638,-1.6152,-1.6172,-1.6373,-1.6146,-1.5932,-1.5665,-1.4783,-1.4249,-1.3926,-1.3773,-1.3213,-1.2455,-1.2308,-1.2171,-1.2104,-1.2104,-1.2492,-1.2986,-1.2986,0.0,-1.2619,-1.2465,0.0,0.0,0.0,0.0,-1.2075,-1.2625,-1.2872,-1.3093,-1.3547,-1.3828,-1.4041,-1.4262,-1.4021,-1.356,0.0,-1.2723,-1.2335,-1.1857,0.0,0.0,0.0,0.0,-1.3213,-1.3407,-1.4135,-1.4549,-1.4335,-1.4502,-1.4516,-1.4222,-1.4202,-1.4068,-1.3733,-1.3646,-1.34,-1.3032,-1.2864,-1.2476,-1.1777,0.0,0.0,0.0,0.0,0.0,0.0,0.0,0.0,0.0,0.0,0.0,0.0,0.0,0.0,0.0,0.0,0.0,0.0,0.0,0.0,0.0,0.0,0.0,0.0,0.0,0.0,0.0,0.0,0.0,-1.2656,-1.3494,0.0,0.0,0.0,0.0,-1.314,-1.3153,-1.3554,-1.4389,-1.4449,-1.4963,-1.6134,-1.6214,-1.6319,-1.6593,-1.664,-1.666,-1.666,-1.666,-1.6667,-1.6687,-1.6667,-1.6667,-1.6687,-1.6667,-1.6653,-1.6573,-1.5691,-1.5157,-1.4888,-1.4282,-1.4028,-1.3908,-1.3353,-1.3487,-1.3955,-1.3955,-1.4342,-1.4874,-1.4874,-1.4262,-1.3427,-1.2938,-1.2543,0.0,0.0,-1.3093,-1.3567,-1.3915,-1.4409,-1.4881,-1.4914,-1.4934,-1.4948,-1.4961,-1.4469,-1.4215,0.0,-1.4369,-1.3968,-1.3941,0.0,-1.3781,-1.3206,-1.3634,-1.4028,-1.4041,-1.4569,-1.4981,-1.4968,-1.4981,-1.4823,-1.4522,-1.4496,-1.4376,-1.4082,-1.3801,-1.3586,-1.356,-1.3053,-1.2764,-1.2717,-1.1857,0.0,0.0,0.0,0.0,0.0,0.0,0.0,0.0,0.0,0.0,0.0,0.0,0.0,0.0,0.0,0.0,0.0,0.0,0.0,0.0,0.0,0.0,0.0,0.0,0.0,0.0,0.0,0.0,-1.3541,-1.3895,0.0,0.0,-1.4242,-1.4355,-1.4342,-1.4863,-1.5317,-1.5631,-1.5825,-1.6119,-1.654,-1.6784,-1.6938,-1.7038,-1.7174,-1.7268,-1.7268,-1.7268,-1.7268,-1.7268,-1.7268,-1.7268,-1.7268,-1.7268,-1.7161,-1.7018,-1.6703,-1.6288,-1.5832,-1.5578,-1.5264,-1.4903,-1.4696,-1.4629,-1.4693,-1.4693,-1.4834,-1.5008,-1.5008,-1.475,-1.4456,-1.4285,-1.4144,-1.4077,-1.4184,-1.4329,-1.4516,-1.4666,-1.4854,-1.5008,-1.5008,-1.511,-1.5244,-1.5244,-1.5224,-1.5271,-1.5478,-1.4743,-1.4088,-1.4088,-1.4402,-1.4449,-1.3861,-1.4275,-1.4693,-1.4693,-1.4997,-1.517,-1.5028,-1.513,-1.5124,-1.483,-1.4629,-1.4476,-1.4369,-1.4088,-1.3841,-1.3613,-1.344,-1.314,-1.279,-1.2476,-1.1991,0.0,0.0,0.0,0.0,0.0,0.0,0.0,0.0,0.0,0.0,0.0,0.0,0.0,0.0,0.0,0.0,0.0,0.0,0.0,0.0,0.0,0.0,0.0,0.0,0.0,0.0,-1.3534,-1.4289,-1.4556,-1.479,-1.5084,-1.5197,-1.5337,-1.5538,-1.6092,-1.6506,-1.6707,-1.6894,-1.7094,-1.7301,-1.7502,-1.7655,-1.7655,-1.7796,-1.7889,-1.7889,-1.7889,-1.7889,-1.7889,-1.7889,-1.7776,-1.7595,-1.7802,-1.7661,-1.7213,-1.742,-1.7161,-1.6744,-1.65,-1.6179,-1.5838,-1.5838,-1.5718,-1.5551,-1.5551,-1.5551,-1.5578,-1.5484,-1.5337,-1.5237,-1.5137,-1.5089,-1.5028,-1.5129,-1.5177,-1.5277,-1.5424,-1.5524,-1.5551,-1.5551,-1.5698,-1.5838,-1.5838,-1.5832,-1.5838,-1.6037,-1.5337,-1.4616,-1.4416,-1.4747,-1.4807,-1.4175,-1.4422,-1.4713,-1.4713,-1.501,-1.5223,-1.5028,-1.5311,-1.5424,-1.5182,-1.475,-1.4522,-1.4522,-1.4155,-1.3895,-1.376,-1.35,-1.3153,-1.279,-1.2489,-1.2094,-1.1577,0.0,0.0,0.0,0.0,0.0,0.0,0.0,0.0,0.0,0.0,0.0,0.0,0.0,0.0,0.0,0.0,0.0,0.0,0.0,0.0,0.0,0.0,0.0,-1.2844,-1.3608,-1.4349,-1.4981,-1.5511,-1.5972,-1.6321,-1.656,-1.674,-1.6747,-1.6754,-1.7007,-1.7582,-1.7595,-1.7849,-1.8444,-1.8464,-1.8464,-1.8464,-1.8477,-1.849,-1.849,-1.849,-1.849,-1.849,-1.849,-1.817,-1.7642,-1.8237,-1.7996,-1.7286,-1.7822,-1.7883,-1.7555,-1.6961,-1.6727,-1.672,-1.672,-1.6714,-1.67,-1.6687,-1.6693,-1.666,-1.638,-1.6092,-1.5758,-1.5524,-1.5244,-1.5122,-1.5357,-1.5638,-1.5919,-1.6213,-1.65,-1.6707,-1.6707,-1.6707,-1.6707,-1.6707,-1.6259,-1.5977,-1.6593,-1.6246,-1.5671,-1.5149,-1.5048,-1.4854,-1.4229,-1.4142,0.0,-1.4142,-1.4636,-1.5035,-1.5035,-1.5478,-1.5698,-1.5431,-1.4863,-1.4529,-1.4543,-1.3953,-1.376,-1.4088,-1.3293,-1.2824,-1.2811,-1.1911,-1.1603,-1.1913,0.0,0.0,0.0,0.0,0.0,0.0,0.0,0.0,0.0,0.0,0.0,0.0,0.0,0.0,0.0,0.0,0.0,0.0,0.0,0.0,0.0,0.0,-1.4325,-1.4062,-1.4609,-1.5257,-1.5893,-1.6239,-1.658,-1.6931,-1.7226,-1.7435,-1.7609,-1.7876,-1.807,-1.823,-1.7822,-1.7662,-1.7822,-1.7836,-1.7836,-1.7836,-1.827,-1.849,-1.849,-1.849,-1.849,-1.849,-1.849,-1.8397,-1.825,-1.8417,-1.835,-1.8136,-1.8303,-1.8317,-1.8183,-1.7575,-1.7208,-1.7079,-1.7079,-1.6894,-1.6647,-1.6219,-1.6346,-1.6693,-1.6613,-1.6533,-1.6453,-1.6373,-1.6293,-1.6246,-1.6326,-1.6406,-1.648,-1.6567,-1.6647,-1.6707,-1.6707,-1.6707,-1.6707,-1.6707,-1.658,-1.6513,-1.6673,-1.6573,-1.6346,-1.5979,-1.596,-1.5785,-1.5404,-1.5351,0.0,-1.5351,-1.5491,-1.5591,-1.5591,-1.5357,-1.5337,-1.5678,-1.4977,-1.4703,-1.513,-1.4603,-1.4272,-1.4396,-1.3961,-1.3621,-1.34,-1.2732,-1.2355,0.0,0.0,0.0,0.0,0.0,0.0,0.0,0.0,0.0,0.0,0.0,0.0,0.0,0.0,0.0,0.0,0.0,0.0,0.0,0.0,0.0,0.0,-1.3833,-1.5398,-1.5591,-1.5805,-1.6119,-1.6636,-1.6894,-1.7194,-1.7495,-1.7789,-1.8036,-1.8217,-1.8397,-1.8544,-1.8664,-1.8337,-1.809,-1.7969,-1.8203,-1.821,-1.7963,-1.8557,-1.8858,-1.8858,-1.8858,-1.8858,-1.8858,-1.8858,-1.8724,0.0,-1.8751,-1.8644,-1.8323,-1.8571,-1.8597,0.0,0.0,0.0,0.0,0.0,-1.7221,-1.7021,-1.6687,-1.6787,-1.7054,-1.6934,-1.6894,-1.6867,-1.674,-1.6533,-1.6339,-1.6339,-1.6253,-1.6213,-1.646,-1.6613,-1.6767,-1.7014,-1.7074,-1.7074,-1.7074,-1.6881,-1.678,-1.7021,-1.6874,0.0,-1.6697,-1.6333,-1.5945,-1.5531,-1.5364,-1.5277,-1.5277,-1.5391,-1.5464,-1.5464,-1.5384,-1.5464,-1.5751,-1.5137,0.0,0.0,0.0,-1.4409,-1.4119,-1.3953,0.0,0.0,0.0,-1.2569,-1.2522,0.0,0.0,0.0,-1.1617,-1.2151,0.0,0.0,0.0,0.0,0.0,0.0,0.0,0.0,0.0,0.0,0.0,0.0,0.0,0.0,0.0,0.0,-1.4857,-1.6266,-1.7132,-1.7001,-1.6954,-1.7273,-1.7508,-1.7796,-1.8015,-1.8364,-1.8544,-1.8544,-1.8571,-1.8718,-1.9005,0.0,0.0,0.0,0.0,-1.9118,-1.8591,-1.9172,-1.9511,-1.9477,-1.9477,-1.9457,-1.9424,-1.9424,-1.9085,-1.8617,-1.9138,-1.8918,-1.8182,-1.8758,-1.8804,-1.851,-1.8155,-1.8022,-1.7949,-1.7662,-1.7555,-1.7569,-1.7508,0.0,0.0,-1.7333,-1.7253,-1.7199,-1.6887,-1.644,-1.5977,-1.5977,-1.5845,-1.5765,-1.6286,-1.6613,-1.6934,-1.7455,-1.7582,-1.7582,-1.7582,-1.7174,-1.6961,-1.7482,-1.7161,-1.6887,-1.7206,-1.652,-1.5792,-1.529,-1.4937,-1.477,-1.477,-1.497,-1.5156,-1.5156,0.0,0.0,-1.5771,-1.5297,-1.5149,-1.5424,-1.4923,-1.4369,-1.3773,-1.3753,-1.336,-1.2565,-1.2552,-1.2665,-1.2938,-1.2938,-1.3079,-1.3287,-1.2425,-1.315,0.0,0.0,0.0,0.0,0.0,0.0,0.0,0.0,0.0,0.0,0.0,0.0,0.0,0.0,0.0,-1.4787,-1.6062,-1.7085,-1.7494,-1.7662,-1.7756,-1.7816,-1.8136,-1.8337,-1.8397,-1.8671,-1.8838,-1.8838,-1.9065,-1.9325,-1.9613,-1.9185,0.0,-1.9192,-1.937,-1.9312,-1.9256,-1.9773,-1.9947,-1.972,0.0,0.0,-1.9424,-1.9424,-1.9363,-1.9205,-1.9377,-1.9272,-1.9125,-1.9239,-1.9105,-1.8811,-1.8517,-1.8257,-1.7929,-1.7435,-1.7434,-1.7515,-1.7041,-1.7181,-1.7569,-1.7515,-1.7502,-1.7488,-1.7428,-1.7335,0.0,-1.7241,-1.7201,-1.7188,-1.7301,-1.7368,-1.7442,-1.7555,-1.7582,-1.7582,-1.7582,-1.7495,-1.7448,-1.7562,-1.7488,-1.7435,-1.7488,-1.7213,-1.6774,-1.6426,-1.6319,-1.6279,-1.6279,-1.6126,-1.6067,-1.6067,-1.5531,-1.5317,-1.5744,-1.5297,-1.519,-1.5712,-1.5418,-1.507,-1.4723,-1.4754,-1.4516,-1.4095,-1.4088,-1.4008,-1.3869,-1.3869,-1.3903,-1.3901,-1.3253,-1.3206,0.0,0.0,0.0,0.0,0.0,0.0,0.0,0.0,0.0,0.0,0.0,-0.8746,0.0,0.0,-1.3525,-1.5713,-1.6723,-1.7353,-1.7756,-1.8203,-1.8375,-1.829,-1.8531,-1.8704,-1.8704,-1.8971,-1.9145,-1.9145,-1.9419,-1.9646,-1.9793,-1.9659,-1.9512,-1.943,-1.9646,-1.9659,-1.943,-1.9947,-2.016,-2.0013,-2.0013,-1.9867,-1.9586,-1.9586,-1.9506,-1.9424,-1.9424,-1.9424,-1.9424,-1.9424,-1.9279,-1.9132,-1.8985,-1.8657,-1.8217,-1.7762,-1.7695,-1.7749,-1.7301,-1.7335,-1.7582,-1.7582,-1.7582,-1.7582,-1.7582,-1.7375,-1.7141,-1.7141,-1.6934,-1.6774,-1.7068,-1.7141,-1.7215,-1.7515,-1.7582,-1.7582,-1.7582,-1.7582,-1.7582,-1.7582,-1.7582,-1.7582,-1.7582,-1.7514,-1.7367,-1.7168,-1.7021,-1.6927,-1.6927,-1.6673,-1.6486,-1.6486,-1.5965,-1.5738,-1.6025,-1.5645,-1.5518,-1.5764,-1.5691,-1.5484,-1.519,-1.5177,-1.5044,-1.475,-1.4743,-1.4669,-1.4566,-1.4566,-1.4566,-1.4559,-1.4229,-1.4213,0.0,0.0,0.0,0.0,0.0,0.0,0.0,0.0,-0.7628,-0.8992,-0.8853,-0.9534,-1.2945,-1.3163,-1.3742,-1.6524,-1.7161,-1.7535,-1.8075,-1.8568,-1.8858,-1.8677,-1.8871,-1.9011,-1.9011,-1.9225,-1.945,-1.9446,-1.9666,-1.9853,-1.9967,-2.0194,-2.0127,-1.972,-2.016,-2.018,-1.9713,-2.0167,-2.0374,-2.0321,-2.0321,-2.0167,-1.9887,-1.9826,-1.9673,-1.9446,-1.9392,-1.9424,-1.9424,-1.9424,-1.9424,-1.9424,-1.9424,-1.9078,-1.8624,-1.8323,-1.8089,-1.7955,-1.7762,-1.7629,-1.7582,-1.7582,-1.7582,-1.7582,-1.7582,-1.7248,-1.6874,-1.6874,-1.6533,-1.6279,-1.6754,-1.6874,-1.6994,-1.7468,-1.7582,-1.7582,-1.7582,-1.7582,-1.7582,-1.7582,-1.7582,-1.7582,-1.7582,-1.7582,-1.7582,-1.7582,-1.7434,-1.7286,-1.7286,-1.6974,-1.6794,-1.6794,-1.6533,-1.6382,-1.6279,-1.5999,-1.5784,-1.5784,-1.5784,-1.5678,-1.5491,-1.5478,-1.5344,-1.5102,-1.5095,-1.5068,-1.5008,-1.5008,-1.5008,-1.5008,-1.5008,-1.5216,-0.5966,-0.5735,-0.5766,-0.6221,-0.6583,-0.7218,0.0,0.0,-0.9943,-0.9897,-1.2244,-1.4004,-1.3246,-1.5179,-1.7134,-1.7756,-1.7909,-1.8095,-1.8744,-1.8885,-1.9011,-1.9245,-1.9357,-1.9319,-1.9319,-1.941,-1.9472,-1.9733,-1.978,-2.0027,-2.0555,-2.0608,-2.0715,-2.0909,-2.0975,-2.0982,-2.0915,-2.0975,-2.0882,-2.0628,-2.0628,-2.0468,-2.0174,-1.992,-1.978,-1.974,-1.9479,-1.9424,-1.9424,-1.9424,-1.9424,-1.9424,-1.9424,-1.9383,-1.9232,-1.8938,-1.8442,-1.7989,-1.7955,-1.7816,-1.7582,-1.7582,-1.7582,-1.7582,-1.7582,-1.7535,-1.7482,-1.7482,-1.7435,-1.7402,-1.7468,-1.7482,-1.7502,-1.7569,-1.7582,-1.7582,-1.7582,-1.7582,-1.7582,-1.7582,-1.7582,-1.7582,-1.7582,-1.7582,-1.7582,-1.7582,-1.7555,-1.7535,-1.7535,-1.7333,-1.7152,-1.7152,-1.6834,-1.6553,-1.6342,-1.5999,-1.5784,-1.5784,-1.5784,-1.5764,-1.5785,-1.5785,-1.5645,-1.5351,-1.5351,-1.5217,-1.5008,-1.5008,-1.5008,-1.5008,-1.5008,-1.5013,-0.6478,-0.6539,0.0,0.0,-0.807,-0.8902,-0.8764,-0.9701,-1.0566,-1.0527,-1.1695,-1.3024,-1.4214,-1.5328,-1.651,0.0,-1.7989,-1.8195,-1.8838,-1.9072,-1.9225,-1.9352,-1.9219,-1.9045,-1.8871,-1.9165,-1.9345,-1.9292,-1.976,-2.0234,-2.0655,-2.0835,-2.0982,-2.1109,-2.1109,-2.1109,-2.1109,-2.1109,-2.1049,-2.0929,-2.0929,-2.0681,-2.0227,-2.0107,-1.9867,-1.9539,-1.9419,-1.9424,-1.9424,-1.9424,-1.9424,-1.9424,-1.9424,-1.9424,-1.939,-1.9032,-1.8664,-1.8277,-1.8049,-1.7842,-1.7582,-1.7582,-1.7582,-1.7582,-1.7582,-1.7582,-1.7582,-1.7582,-1.7582,-1.7582,-1.7582,-1.7582,-1.7582,-1.7582,-1.7582,-1.7582,-1.7582,-1.7582,-1.7582,-1.7582,-1.7582,-1.7582,-1.7582,-1.7582,-1.7582,-1.7582,-1.7582,-1.7582,-1.7582,-1.7475,-1.7387,-1.7219,-1.7092,-1.6774,-1.6362,-1.6159,-1.6012,-1.5791,-1.5784,-1.5784,-1.5784,-1.5784,-1.5772,-1.5651,-1.5651,-1.5585,-1.5471,-1.5471,-1.5471,-1.5471,-1.5471,-1.5471,-0.6782,0.0,0.0,-0.7756,-0.8892,-0.9737,-0.9287,-1.0035,-1.0839,-1.0926,-1.1273,-1.2219,-1.4415,-1.5058,0.0,-1.7805,-1.8182,-1.8408,-1.8978,-1.9232,-1.9397,-1.9259,-1.9052,-1.8711,-1.817,-1.8804,-1.9252,-1.9285,-1.9814,-2.0401,-2.0775,-2.0995,-2.1109,-2.1109,-2.1109,-2.1109,-2.1109,-2.1109,-2.1109,-2.1109,-2.1029,-2.0768,-2.0347,-2.0187,-1.984,-1.9424,-1.9424,-1.9424,-1.9424,-1.9424,-1.9424,-1.9424,-1.9424,-1.9424,-1.9339,-1.9125,-1.8858,-1.8571,-1.827,-1.7969,-1.7695,-1.7609,-1.7582,-1.7582,-1.7582,-1.7582,-1.7582,-1.7582,-1.7582,-1.7582,-1.7582,-1.7582,-1.7582,-1.7582,-1.7582,-1.7582,-1.7582,-1.7582,-1.7582,-1.7582,-1.7582,-1.7582,-1.7582,-1.7582,-1.7582,-1.7582,-1.7582,-1.7582,-1.7582,-1.7582,-1.7554,-1.734,-1.7246,-1.7032,-1.6603,-1.644,-1.6266,-1.5972,-1.5952,-1.5912,-1.5784,-1.5784,-1.5784,-1.5784,-1.5784,-1.5784,-1.5784,-1.5784,-1.5784,-1.5784,-1.5784,-1.5784,0.0,0.0,-0.6932,-0.7762,-0.8255,-0.8983,-1.0457,-1.0957,-1.1093,-1.1097,-1.2231,-1.3259,-1.3372,-1.4744,-1.6429,-1.8196,-1.8711,-1.9005,-1.9312,-1.9417,-1.9259,-1.8971,-1.8925,-1.8464,0.0,-1.825,-1.9285,-2.0073,-2.0221,-2.0488,-2.1069,-2.1109,-2.1109,-2.1109,-2.1109,-2.1109,-2.1109,-2.1109,-2.1109,-2.1109,-2.0822,-2.0681,-2.0641,-2.0074,-1.9646,-1.9424,-1.9424,-1.9424,-1.9424,-1.9424,-1.9424,-1.9424,-1.9424,-1.9424,-1.9424,-1.9417,-1.9165,-1.8871,-1.8577,-1.8283,-1.7929,-1.7675,-1.7582,-1.7582,-1.7582,-1.7582,-1.7582,-1.7582,-1.7582,-1.7582,-1.7582,-1.7582,-1.7582,-1.7582,-1.7582,-1.7582,-1.7582,-1.7582,-1.7582,-1.7582,-1.7582,-1.7582,-1.7582,-1.7582,-1.7582,-1.7582,-1.7582,-1.7582,-1.7582,-1.7582,-1.7582,-1.7569,-1.7373,-1.7192,-1.7172,-1.6854,-1.6567,-1.6279,-1.6259,-1.6126,-1.5791,-1.5784,-1.5784,-1.5784,-1.5784,-1.5784,-1.5784,-1.5784,-1.5784,-1.5784,-1.5784,-1.5784,-0.6947,0.0,-0.7838,-0.8235,-0.929,-1.0135,-0.9654,-1.0358,-1.0836,-0.986,-1.0696,-1.1563,-1.1563,-1.288,-1.4223,-1.5064,-1.624,-1.7204,-1.772,-1.8383,-1.8891,-1.9185,-1.8871,0.0,0.0,0.0,0.0,-1.9065,-1.9793,-2.0488,-2.1076,-2.1109,-2.1109,-2.1109,-2.1109,-2.1109,-2.1109,-2.1109,-2.1009,-2.0815,-2.0327,-2.0094,-2.008,-1.9693,-1.9459,-1.9424,-1.9424,-1.9424,-1.9424,-1.9424,-1.9424,-1.9424,-1.9424,-1.9424,-1.9424,-1.9424,-1.9305,-1.9145,-1.8657,-1.8297,-1.7942,-1.7682,-1.7582,-1.7582,-1.7582,-1.7582,-1.7582,-1.7582,-1.7582,-1.7582,-1.7582,-1.7582,-1.7582,-1.7582,-1.7582,-1.7582,-1.7582,-1.7582,-1.7582,-1.7582,-1.7582,-1.7582,-1.7582,-1.7582,-1.7582,-1.7582,-1.7582,-1.7582,-1.7582,-1.7582,-1.7582,-1.7582,-1.7495,-1.7414,-1.7219,-1.7112,-1.6924,-1.658,-1.638,-1.6226,-1.6126,-1.5932,-1.5784,-1.5784,-1.5784,-1.5784,-1.5784,-1.5784,-1.5784,-1.5784,-1.5784,-1.5784,-0.7304,-0.7818,-0.8262,-0.8567,-0.949,-1.0076,-0.9099,-0.9644,-1.0025,-0.9103,-0.9529,-1.016,-1.0535,-1.1531,-1.2524,-1.3198,-1.492,-1.6335,-1.6842,-1.75,-1.8261,-1.9114,-1.8348,0.0,0.0,0.0,0.0,-1.8958,-1.9559,-2.0227,-2.0915,-2.0855,-2.0895,-2.1102,-2.1109,-2.1109,-2.1109,-2.1002,-2.0755,-2.0361,-1.998,-1.9746,-1.9639,-1.9452,-1.9305,-1.9219,-1.9325,-1.9305,-1.9219,-1.9325,-1.9424,-1.9424,-1.9424,-1.9424,-1.9424,-1.9424,-1.9424,-1.9285,-1.8698,-1.8364,-1.8136,-1.7722,-1.7582,-1.7582,-1.7582,-1.7582,-1.7582,-1.7582,-1.7582,-1.7582,-1.7582,-1.7582,-1.7582,-1.7582,-1.7582,-1.7582,-1.7582,-1.7582,-1.7582,-1.7582,-1.7582,-1.7582,-1.7582,-1.7582,-1.7582,-1.7582,-1.7582,-1.7582,-1.7582,-1.7582,-1.7582,-1.7582,-1.7582,-1.7508,-1.7373,-1.7353,-1.7233,-1.6881,-1.6737,-1.6589,-1.6433,-1.6146,-1.5985,-1.5985,-1.5838,-1.5784,-1.5784,-1.5784,-1.5784,-1.5784,-1.5784,-1.5784,-0.7749,-0.8005,-0.817,-0.874,-0.8885,-0.8885,-0.8885,-0.8885,-0.8875,-0.8854,-0.8838,-0.9115,0.0,0.0,-1.1321,-1.2643,-1.4718,-1.6215,-1.6531,-1.6756,-1.7362,0.0,0.0,0.0,0.0,0.0,0.0,-1.976,0.0,-1.9846,-2.0648,-2.0434,-2.0535,-2.1089,-2.1109,-2.1109,-2.1109,-2.0808,-2.0368,-1.98,-1.9786,-1.9633,-1.9424,-1.9424,-1.9212,-1.8958,-1.9245,-1.9205,-1.8965,-1.9252,-1.9424,-1.9424,-1.9424,-1.9424,-1.9424,-1.9424,-1.9352,-1.9201,-1.8572,-1.8428,-1.839,-1.7782,-1.7582,-1.7582,-1.7582,-1.7582,-1.7582,-1.7582,-1.7582,-1.7582,-1.7582,-1.7582,-1.7582,-1.7582,-1.7582,-1.7582,-1.7582,-1.7582,-1.7582,-1.7582,-1.7582,-1.7582,-1.7582,-1.7582,-1.7582,-1.7582,-1.7582,-1.7582,-1.7582,-1.7582,-1.7582,-1.7582,-1.7582,-1.7582,-1.7582,-1.7582,-1.7514,-1.7239,-1.7206,-1.7072,-1.674,-1.6446,-1.6342,-1.6342,-1.6019,-1.5872,-1.5872,-1.5872,-1.5818,-1.5852,-1.5852,-1.5798,-0.7807,-0.8231,-0.8693,-0.8844,-0.8885,-0.8885,-0.8885,-0.8885,-0.879,-0.8509,-0.8258,-0.8058,0.0,0.0,0.0,-1.0609,-1.2475,0.0,-1.4528,-1.5451,0.0,0.0,0.0,-1.6718,-1.7192,-1.8642,0.0,0.0,-1.9933,-2.0301,-2.0962,-2.0929,-2.0955,-2.1109,-2.1109,-2.1109,-2.1109,-2.0601,-2.016,-1.98,-1.9579,-1.9497,-1.9424,-1.9424,-1.9325,-1.9259,-1.9332,-1.9325,-1.9259,-1.9339,-1.9424,-1.9424,-1.9424,-1.9424,-1.9424,-1.9424,-1.8564,-1.7322,-1.6985,-1.7563,-1.839,-1.7782,-1.7582,-1.7582,-1.7582,-1.7582,-1.7582,-1.7582,-1.7582,-1.7582,-1.7582,-1.7582,-1.7582,-1.7582,-1.7582,-1.7582,-1.7582,-1.7582,-1.7582,-1.7582,-1.7582,-1.7582,-1.7582,-1.7582,-1.7582,-1.7582,-1.7582,-1.7582,-1.7582,-1.7582,-1.7582,-1.7582,-1.7582,-1.7582,-1.7582,-1.7582,-1.7549,-1.7475,-1.732,-1.7166,-1.7092,-1.6754,-1.6593,-1.6593,-1.652,-1.648,-1.648,-1.648,-1.6373,-1.6159,-1.6159,-1.6039,-0.8252,-0.8561,-0.8885,-0.8885,-0.8885,-0.8834,-0.8689,-0.8594,-0.8418,-0.797,-0.7685,0.0,0.0,0.0,0.0,0.0,0.0,0.0,-1.2781,-1.3485,-1.4107,0.0,-1.5077,0.0,-1.7097,-1.8786,-1.9907,0.0,-2.01,-2.0301,-2.0889,-2.0795,-2.0842,-2.1102,-2.1109,-2.0982,-2.0728,-2.0394,-2.0027,-1.9606,-1.9446,-1.9424,-1.9424,-1.9424,-1.9299,-1.9178,0.0,-1.9292,-1.9185,-1.9312,-1.9424,-1.9424,-1.9424,-1.9424,-1.9424,-1.9424,-1.83,-1.6767,-1.6502,-1.6405,-1.64,-1.5863,-1.5689,-1.5689,-1.5689,-1.6121,-1.6605,-1.6605,-1.6605,-1.677,-1.7417,-1.7094,-1.6823,-1.747,-1.7582,-1.7582,-1.7582,-1.7582,-1.7582,-1.7582,-1.7582,-1.7582,-1.7582,-1.7582,-1.7582,-1.7582,-1.7582,-1.7582,-1.7582,-1.7582,-1.7582,-1.7582,-1.7582,-1.7582,-1.7582,-1.7582,-1.7582,-1.7582,-1.7481,-1.7393,-1.7393,-1.7054,-1.6901,-1.6901,-1.6774,-1.6707,-1.6707,-1.6707,-1.662,-1.6466,-1.6466,-1.6373,-0.8777,-0.8851,-0.8885,-0.8885,-0.8885,-0.878,-0.8448,-0.8194,-0.7864,-0.7465,0.0,-0.6932,-0.6546,0.0,-0.743,-0.7689,0.0,-1.0949,-1.1359,-1.159,-1.2259,-1.3577,-1.394,-1.4848,-1.6871,-1.8571,-1.9853,-2.0628,-2.0052,-1.9945,-2.0708,-2.0488,-2.0581,-2.1096,-2.1109,-2.0828,-2.0241,-2.0173,-1.994,-1.9424,-1.9424,-1.9424,-1.9366,-1.9185,-1.8924,-1.8643,0.0,0.0,-1.865,-1.8963,-1.9185,-1.9424,-1.9424,-1.9243,-1.9068,-1.9068,-1.7904,-1.6289,-1.6016,-1.4724,-1.3257,-1.3327,-1.329,-1.3318,-1.3318,-1.4126,-1.5097,-1.5097,-1.5097,-1.5417,-1.6717,-1.6068,-1.547,-1.6988,-1.7312,-1.7364,-1.7582,-1.7582,-1.7582,-1.7582,-1.7582,-1.7582,-1.7582,-1.7582,-1.7582,-1.7582,-1.7582,-1.7582,-1.7582,-1.7582,-1.7582,-1.7582,-1.7582,-1.7582,-1.7582,-1.7582,-1.7582,-1.7582,-1.7582,-1.7582,-1.7582,-1.7393,-1.7259,-1.7259,-1.6954,-1.682,-1.682,-1.682,-1.68,-1.6767,-1.6767,-1.674,-0.8574,-0.8747,-0.8885,-0.8885,-0.8885,-0.8861,-0.8787,-0.8366,0.0,0.0,0.0,-0.6563,-0.6525,-0.6763,0.0,-0.9281,0.0,0.0,0.0,0.0,-1.1045,0.0,0.0,0.0,0.0,0.0,0.0,0.0,0.0,0.0,-2.0966,-2.0989,-2.1002,-2.1109,-2.1109,-2.0828,-2.0241,-2.0173,-1.994,-1.9424,-1.9424,-1.9424,-1.9366,-1.804,-1.736,-1.7259,0.0,0.0,-1.7318,-1.7366,-1.8221,-1.9424,-1.9424,-1.8583,-1.7443,-1.7443,-1.5477,-1.2849,-1.2813,-1.1599,-1.0416,-1.2687,-1.3367,-1.3318,-1.3318,-1.348,-1.3642,-1.3642,-1.3642,-1.3696,-1.3965,-1.3857,-1.4019,-1.5417,-1.5796,-1.6115,-1.7364,-1.7582,-1.7582,-1.7582,-1.7582,-1.7582,-1.7582,-1.7582,-1.7582,-1.7582,-1.7582,-1.7582,-1.7582,-1.7582,-1.7582,-1.7582,-1.7582,-1.7582,-1.7582,-1.7582,-1.7582,-1.7582,-1.7582,-1.7582,-1.7582,-1.7535,-1.7508,-1.7508,-1.7455,-1.7428,-1.7428,-1.7428,-1.7308,-1.7125,-1.7125,-1.6941,-0.8523,-0.8706,-0.8885,-0.8885,-0.8885,-0.874,-0.8248,0.0,0.0,0.0,-0.619,-0.5931,-0.5931,0.0,0.0,0.0,0.0,0.0,0.0,0.0,0.0,0.0,0.0,0.0,0.0,0.0,0.0,0.0,0.0,0.0,-1.9668,-1.8896,-1.8832,-1.9737,-1.9606,-1.9779,-2.0173,-2.008,-1.9358,-1.8163,-1.8163,-1.7689,-1.6862,-1.6085,-1.5725,-1.5725,-1.4955,0.0,-1.572,-1.6616,-1.695,-1.6907,-1.7809,-1.7149,-1.5725,-1.5725,-1.4173,-1.2077,-1.2077,-1.0852,-0.9556,-1.0907,-1.1226,-1.0996,-1.0996,-1.1538,-1.2186,-1.2186,-1.2186,-1.2349,-1.3102,-1.2729,-1.2512,-1.3965,-1.4877,-1.5577,-1.628,-1.7041,-1.7582,-1.7582,-1.7582,-1.7582,-1.7582,-1.7582,-1.7582,-1.7582,-1.7582,-1.7582,-1.7582,-1.7582,-1.7582,-1.7582,-1.7582,-1.7582,-1.7582,-1.7582,-1.7582,-1.7582,-1.7582,-1.7582,-1.7582,-1.7582,-1.7582,-1.7582,-1.7582,-1.7582,-1.7582,-1.7582,-1.7508,-1.7427,-1.7427,-1.7301,-0.8547,-0.873,-0.8885,-0.8885,-0.8858,-0.8648,-0.7726,-0.7295,0.0,0.0,-0.5569,-0.5426,-0.5521,0.0,0.0,0.0,0.0,0.0,0.0,0.0,0.0,0.0,0.0,0.0,0.0,0.0,0.0,0.0,0.0,0.0,-1.7848,-1.663,-1.6496,-1.7923,-1.7685,-1.8063,-1.9113,-1.8902,-1.8011,-1.6492,-1.6492,-1.5843,-1.4604,-1.4247,-1.4068,-1.4063,-1.3706,0.0,0.0,-1.5381,-1.5344,-1.4518,-1.592,-1.5488,-1.4068,-1.4068,-1.3048,-1.1675,-1.1675,-1.0684,-0.9381,-0.9381,-0.9181,-0.8885,-0.8885,-0.9699,-1.0621,-1.0621,-1.0621,-1.0891,-1.2077,-1.1483,-1.1,-1.2457,-1.3911,-1.4931,-1.4931,-1.5849,-1.6664,-1.6664,-1.6664,-1.6664,-1.6664,-1.6664,-1.677,-1.7094,-1.7147,-1.7259,-1.7582,-1.7582,-1.7582,-1.7582,-1.7582,-1.7582,-1.7582,-1.7582,-1.7582,-1.7582,-1.7582,-1.7582,-1.7582,-1.7582,-1.7582,-1.7582,-1.7582,-1.7582,-1.7582,-1.7582,-1.7582,-1.7582,-1.7582,-1.7582,-0.8621,-0.8811,-0.8885,-0.8885,-0.8832,-0.8598,-0.8042,0.0,0.0,-0.634,-0.5788,-0.5521,-0.5891,-0.5963,-0.6327,0.0,0.0,-0.7466,0.0,0.0,0.0,0.0,0.0,0.0,0.0,0.0,0.0,0.0,0.0,0.0,0.0,-1.5983,-1.5978,-1.6108,-1.6015,-1.5851,-1.5747,-1.5528,-1.5243,-1.4842,-1.4842,-1.4723,-1.4545,-1.3112,-1.2393,-1.2337,0.0,0.0,0.0,-1.249,-1.3345,-1.4402,-1.469,-1.3825,-1.2393,-1.2393,-1.1378,-1.0001,-1.0001,-0.9744,-0.9381,-0.9381,-0.9181,-0.8885,-0.8885,-0.8992,-0.9099,-0.9099,-0.9099,-0.9158,-0.9265,-0.921,-0.9482,-1.0945,-1.2403,-1.348,-1.348,-1.3588,-1.3696,-1.3696,-1.3696,-1.3696,-1.3696,-1.3696,-1.4126,-1.5417,-1.5577,-1.6062,-1.7417,-1.7582,-1.7582,-1.7582,-1.7582,-1.7582,-1.7582,-1.7582,-1.7582,-1.7582,-1.7582,-1.7582,-1.7582,-1.7582,-1.7582,-1.7582,-1.7582,-1.7582,-1.7582,-1.7582,-1.7582,-1.7582,-1.7582,-1.7582,-0.8035,-0.8347,-0.8665,-0.8665,-0.8618,-0.836,-0.751,0.0,-0.6698,-0.5924,-0.5562,-0.545,-0.5596,-0.5627,-0.5884,-0.6706,-0.6763,0.0,0.0,0.0,0.0,0.0,0.0,0.0,0.0,0.0,0.0,0.0,0.0,0.0,0.0,-1.2738,-1.3204,-1.418,-1.3979,-1.4284,-1.512,-1.4902,-1.4211,-1.3172,-1.3172,-1.2633,-1.1675,-1.108,-1.0781,-1.0721,0.0,0.0,0.0,-1.1737,-1.1862,-1.1512,-1.2693,-1.2157,-1.0781,-1.0781,-1.0361,-0.9822,-0.9822,-0.9629,-0.9381,-0.9381,-0.9181,-0.8885,-0.8885,-0.8885,-0.8885,-0.8885,-0.8885,-0.8885,-0.8885,-0.8885,-0.9047,-0.9644,-1.0891,-1.1969,-1.1969,-1.2674,-1.3318,-1.3318,-1.3318,-1.3318,-1.3318,-1.3318,-1.348,-1.4073,-1.4883,-1.531,-1.5043,-1.5743,-1.628,-1.628,-1.7094,-1.7582,-1.7582,-1.7582,-1.7582,-1.7582,-1.7582,-1.7582,-1.7582,-1.7582,-1.7582,-1.7582,-1.7582,-1.7582,-1.7582,-1.7582,-1.7582,-1.7582,-1.7582,-1.7582,-0.759,-0.8031,-0.8482,-0.8482,-0.8381,-0.8045,0.0,0.0,-0.6471,-0.5583,-0.5395,-0.5409,-0.5453,-0.5426,-0.562,-0.6317,-0.6515,-0.6875,0.0,0.0,0.0,0.0,0.0,0.0,0.0,0.0,0.0,0.0,0.0,0.0,0.0,-1.0588,-1.1138,-1.2278,-1.2059,-1.2436,-1.353,-1.3268,-1.2633,-1.1499,-1.1499,-1.0876,-0.9758,-0.9802,-0.9798,-0.9761,0.0,0.0,0.0,-1.0905,-1.0677,-0.959,-1.0969,-1.0778,-0.9822,-0.9822,-0.9822,-0.9822,-0.9822,-0.9629,-0.9381,-0.9381,-0.9181,-0.8885,-0.8885,-0.8885,-0.8885,-0.8885,-0.8885,-0.8885,-0.8885,-0.8885,-0.8885,-0.8885,-0.9699,-1.0457,-1.0457,-1.1269,-1.2023,-1.2023,-1.2023,-1.2023,-1.2023,-1.2023,-1.2132,-1.2566,-1.348,-1.3906,-1.3372,-1.418,-1.477,-1.477,-1.5689,-1.6664,-1.7529,-1.7582,-1.7582,-1.7582,-1.7582,-1.7582,-1.7582,-1.7582,-1.7582,-1.7582,-1.7582,-1.7582,-1.7582,-1.7582,-1.7582,-1.7582,-1.7582,-1.7582,-0.7478,-0.8031,-0.8482,-0.8482,-0.8147,-0.7662,0.0,0.0,-0.6132,-0.5521,-0.5395,-0.544,-0.5559,-0.5498,-0.5689,-0.6549,-0.6698,0.0,0.0,0.0,0.0,0.0,0.0,0.0,0.0,0.0,0.0,0.0,0.0,0.0,0.0,-1.0287,-1.0348,-1.0552,-1.0205,-1.0049,-1.0049,-0.9897,-0.9822,-0.9819,-0.9819,-0.9747,-0.9615,-0.9758,-0.9744,0.0,0.0,0.0,0.0,-0.9761,-0.9737,-0.9622,-0.9764,-0.9822,-0.9822,-0.9822,-0.9822,-0.9822,-0.9822,-0.9629,-0.9381,-0.9381,-0.9181,-0.8885,-0.8885,-0.8885,-0.8885,-0.8885,-0.8885,-0.8885,-0.8885,-0.8885,-0.8885,-0.8885,-0.894,-0.8937,-0.8937,-0.8937,-0.8937,-0.8937,-0.8937,-0.8937,-0.8937,-0.8937,-0.9427,-1.0891,-1.116,-1.1647,-1.3102,-1.3318,-1.3318,-1.3318,-1.3318,-1.4508,-1.7364,-1.7582,-1.7582,-1.7582,-1.7582,-1.7582,-1.7582,-1.7582,-1.7582,-1.7582,-1.7582,-1.7582,-1.7582,-1.7582,-1.7582,-1.7582,-1.7582,-1.7582,-0.6448,-0.6888,-0.7265,-0.7265,-0.7156,-0.6922,-0.6387,-0.6203,-0.5962,-0.5498,-0.5395,-0.5443,-0.5562,-0.5549,-0.5747,-0.6344,-0.6569,0.0,0.0,0.0,0.0,0.0,0.0,0.0,0.0,0.0,0.0,0.0,0.0,0.0,0.0,0.0,-1.0081,-1.0188,-1.0038,-0.9936,-0.9893,-0.9846,-0.9822,-0.9822,-0.9822,-0.9747,-0.9615,-0.9754,0.0,0.0,0.0,0.0,0.0,-0.9764,-0.9737,-0.9625,-0.9768,-0.9822,-0.9822,-0.9822,-0.9822,-0.9805,-0.971,-0.9547,-0.9364,-0.9316,-0.9096,-0.8885,-0.8885,-0.8885,-0.8885,-0.8885,-0.8885,-0.8885,-0.8885,-0.8885,-0.8885,-0.8885,-0.8885,-0.8885,-0.8885,-0.8885,-0.8885,-0.8885,-0.8885,-0.8885,-0.8885,-0.8885,-0.9047,-0.9537,-1.0457,-1.0891,-1.0347,-1.116,-1.181,-1.181,-1.181,-1.294,-1.5849,-1.6121,-1.6552,-1.7529,-1.7582,-1.7582,-1.7582,-1.7582,-1.7582,-1.7582,-1.7582,-1.7582,-1.7582,-1.7582,-1.7582,-1.7582,-1.7582,-1.7582,0.0,-0.623,-0.6614,-0.6614,-0.6573,0.0,0.0,-0.5905,-0.5769,-0.5463,-0.5528,-0.5627,-0.5661,-0.5766,-0.5972,-0.6252,-0.6692,0.0,0.0,0.0,0.0,0.0,0.0,0.0,0.0,0.0,0.0,0.0,0.0,0.0,0.0,0.0,-0.9903,-0.9903,-0.9903,-0.9856,-0.9822,-0.9822,-0.9822,-0.9822,-0.9822,-0.9747,-0.9615,-0.9754,0.0,0.0,0.0,0.0,0.0,-0.9785,-0.9768,-0.9696,-0.9785,-0.9822,-0.9822,-0.9822,-0.9788,-0.973,-0.9639,-0.9469,-0.9337,-0.9241,-0.9055,-0.8885,-0.8885,-0.8885,-0.8885,-0.8885,-0.8885,-0.8885,-0.8885,-0.8885,-0.8885,-0.8885,-0.8885,-0.8885,-0.8885,-0.8885,-0.8885,-0.8885,-0.8885,-0.8885,-0.8885,-0.8885,-0.8885,-0.8885,-0.9699,-0.9915,-0.8992,-0.9699,-1.0296,-1.0296,-1.0296,-1.1214,-1.3588,-1.477,-1.6015,-1.7529,-1.7582,-1.7582,-1.7582,-1.7582,-1.7582,-1.7582,-1.7582,-1.7582,-1.7582,-1.7582,-1.7582,-1.7582,-1.7582,-1.7582,0.0,-0.5935,0.0,0.0,0.0,0.0,-0.6013,-0.5772,0.0,-0.5467,-0.5739,-0.5956,-0.5871,-0.6139,-0.6347,-0.6347,0.0,0.0,0.0,0.0,0.0,0.0,0.0,0.0,0.0,0.0,0.0,0.0,0.0,0.0,0.0,0.0,-0.9822,-0.9822,-0.9822,-0.9822,-0.9822,-0.9822,-0.9815,-0.9805,-0.9815,-0.9741,-0.9598,-0.9751,0.0,0.0,0.0,0.0,0.0,-0.9822,-0.9822,-0.9822,-0.9822,-0.9822,-0.9819,-0.9812,-0.9724,-0.9605,-0.9585,-0.9391,-0.9207,-0.9197,-0.9049,-0.8885,-0.8885,-0.8885,-0.8885,-0.8885,-0.8885,-0.8885,-0.8885,-0.8885,-0.8885,-0.8885,-0.8885,-0.8885,-0.8885,-0.8885,-0.8885,-0.8885,-0.8885,-0.8885,-0.8885,-0.8885,-0.8885,-0.8885,-0.8885,-0.8885,-0.8885,-0.8885,-0.8885,-0.8885,-0.8885,-0.9482,-1.0941,-1.3642,-1.5902,-1.7364,-1.7529,-1.7582,-1.7582,-1.7582,-1.7582,-1.7582,-1.7582,-1.7582,-1.7582,-1.7582,-1.7582,-1.7582,-1.7582,-1.7582,-0.472,0.0,-0.5413,-0.5413,-0.5511,-0.5597,0.0,-0.5498,-0.5535,-0.581,-0.5919,-0.605,-0.6278,-0.6566,-0.6773,0.0,0.0,0.0,0.0,0.0,0.0,0.0,0.0,0.0,0.0,0.0,0.0,0.0,0.0,0.0,0.0,0.0,-0.9822,-0.9822,-0.9822,-0.9822,-0.9822,-0.9822,-0.9768,-0.9659,-0.9771,-0.9686,-0.9445,-0.9703,0.0,0.0,0.0,0.0,-0.9822,-0.9822,-0.9822,-0.9822,-0.9822,-0.9822,-0.9808,-0.97,-0.9639,-0.9578,-0.934,-0.9268,-0.919,-0.9025,-0.8964,-0.8885,-0.8885,-0.8885,-0.8885,-0.8885,-0.8885,-0.8885,-0.8885,-0.8885,-0.8885,-0.8885,-0.8885,-0.8885,-0.8885,-0.8885,-0.8885,-0.8885,-0.8885,-0.8885,-0.8885,-0.8885,-0.8885,-0.8885,-0.8885,-0.8885,-0.8885,-0.8885,-0.8885,-0.8885,-0.8885,-0.9482,-1.0941,-1.2778,-1.4395,-1.5849,-1.6988,-1.7582,-1.7582,-1.7582,-1.7582,-1.7582,-1.7582,-1.7582,-1.7582,-1.7582,-1.7582,-1.7582,-1.7582,-1.7582,-0.4491,-0.4789,-0.5133,-0.5304,-0.5406,-0.5535,-0.5637,-0.5542,-0.5521,-0.5899,0.0,0.0,-0.647,0.0,0.0,0.0,0.0,0.0,0.0,0.0,0.0,0.0,0.0,0.0,0.0,0.0,0.0,0.0,0.0,0.0,0.0,0.0,-0.9822,-0.9822,-0.9822,-0.9822,-0.9822,-0.9822,-0.9751,-0.9612,-0.9754,-0.9703,-0.9493,-0.972,0.0,0.0,0.0,0.0,-0.9815,-0.9751,-0.9764,-0.9822,-0.9822,-0.9781,-0.9713,-0.9639,-0.952,-0.9374,-0.9268,-0.9166,-0.9042,-0.8908,-0.8885,-0.8885,-0.8885,-0.8885,-0.8885,-0.8885,-0.8885,-0.8885,-0.8885,-0.8885,-0.8885,-0.8885,-0.8885,-0.8885,-0.8885,-0.8885,-0.8885,-0.8885,-0.8885,-0.8885,-0.8885,-0.8885,-0.8885,-0.8885,-0.8885,-0.8885,-0.8885,-0.8885,-0.8885,-0.8885,-0.8885,-0.921,-1.0021,-1.2077,-1.3911,-1.531,-1.677,-1.7582,-1.7582,-1.7582,-1.7582,-1.7582,-1.7582,-1.7582,-1.7582,-1.7582,-1.7582,-1.7582,-1.7582,-1.7582,-0.4376,-0.4717,-0.5174,-0.5511,-0.5572,-0.5644,-0.5986,-0.5718,0.0,0.0,0.0,0.0,0.0,-0.6878,0.0,0.0,0.0,0.0,0.0,0.0,0.0,0.0,0.0,0.0,0.0,0.0,0.0,0.0,0.0,0.0,0.0,0.0,0.0,-0.9822,-0.9822,-0.9822,-0.9822,-0.9822,-0.9751,-0.9612,-0.9754,-0.9747,-0.9615,-0.9754,-0.9822,0.0,0.0,0.0,-0.9812,-0.969,-0.97,-0.9788,-0.9788,-0.97,-0.9571,-0.9547,-0.9374,-0.9207,-0.9183,-0.9042,-0.8885,-0.8885,-0.8885,-0.8885,-0.8885,-0.8885,-0.8885,-0.8885,-0.8885,-0.8885,-0.8885,-0.8885,-0.8885,-0.8885,-0.8885,-0.8885,-0.8885,-0.8885,-0.8885,-0.8885,-0.8885,-0.8885,-0.8885,-0.8885,-0.8885,-0.8885,-0.8885,-0.8885,-0.8885,-0.8885,-0.8885,-0.8885,-0.8885,-0.8885,-0.8885,-1.1592,-1.3804,-1.4984,-1.6664,-1.7582,-1.7582,-1.7582,-1.7582,-1.7582,-1.7582,-1.7582,-1.7582,-1.7582,-1.7582,-1.7582,-1.7582,-1.7582,-0.3869,-0.4397,-0.5174,-0.5511,-0.5528,-0.5576,-0.6136,-0.5914,-0.5789,0.0,0.0,0.0,0.0,0.0,0.0,0.0,0.0,0.0,0.0,0.0,0.0,0.0,0.0,0.0,0.0,0.0,0.0,0.0,0.0,0.0,0.0,0.0,0.0,-0.9822,-0.9822,-0.9822,-0.9822,-0.9822,-0.9751,-0.9612,-0.9754,-0.9747,-0.9615,-0.9754,-0.9822,0.0,0.0,-0.9802,-0.9819,-0.9798,-0.973,-0.9642,-0.9642,-0.9551,-0.9401,-0.9326,-0.9251,-0.919,-0.9015,-0.8902,-0.8885,-0.8885,-0.8885,-0.8885,-0.8885,-0.8885,-0.8885,-0.8885,-0.8885,-0.8885,-0.8885,-0.8885,-0.8885,-0.8885,-0.8885,-0.8885,-0.8885,-0.8885,-0.8885,-0.8885,-0.8885,-0.8885,-0.8885,-0.8885,-0.8885,-0.8885,-0.8885,-0.8885,-0.8885,-0.8885,-0.8885,-0.8885,-0.8885,-0.8885,-0.8885,-1.1592,-1.3372,-1.3588,-1.6121,-1.7582,-1.7582,-1.7582,-1.7582,-1.7582,-1.7582,-1.7582,-1.7582,-1.7582,-1.7582,-1.7582,-1.7582,-1.7582,-0.3552,-0.3949,-0.4647,-0.5721,-0.5808,-0.5856,-0.6709,-0.6261,-0.5983,0.0,0.0,0.0,0.0,0.0,0.0,0.0,0.0,0.0,0.0,0.0,0.0,0.0,0.0,0.0,0.0,0.0,0.0,0.0,0.0,0.0,0.0,0.0,0.0,0.0,-0.9822,-0.9822,-0.9822,-0.9822,-0.9751,-0.9612,-0.9754,-0.9747,-0.9615,-0.9754,-0.9822,-0.9819,0.0,-0.9707,-0.97,-0.9618,-0.9544,-0.9486,-0.9486,-0.9391,-0.9299,-0.9093,-0.9035,-0.9028,-0.8905,-0.8885,-0.8885,-0.8885,-0.8885,-0.8885,-0.8885,-0.8885,-0.8885,-0.8885,-0.8885,-0.8885,-0.8885,-0.8885,-0.8885,-0.8885,-0.8885,-0.8885,-0.8885,-0.8885,-0.8885,-0.8885,-0.8885,-0.8885,-0.8885,-0.8885,-0.8885,-0.8885,-0.8885,-0.8885,-0.8885,-0.8885,-0.8885,-0.8885,-0.8885,-0.8885,-0.8885,-1.0891,-1.2778,-1.4341,-1.6446,-1.7259,-1.6446,-1.7206,-1.7582,-1.7582,-1.7582,-1.7582,-1.7582,-1.7582,-1.7582,-1.7582,-1.7582,-1.7582,-0.2983,-0.3309,-0.4087,-0.5565,-0.5838,-0.6044,-0.717,-0.661,-0.6152,-0.7207,0.0,0.0,0.0,0.0,0.0,0.0,0.0,0.0,0.0,0.0,0.0,0.0,0.0,0.0,0.0,0.0,0.0,0.0,0.0,0.0,0.0,0.0,0.0,0.0,-0.9737,-0.9717,-0.9717,-0.9717,-0.9683,-0.9612,-0.972,-0.9696,-0.9561,-0.9669,-0.9717,-0.9713,-0.9602,-0.9557,-0.9547,-0.9432,-0.9361,-0.9327,-0.9327,-0.9235,-0.9089,-0.8981,-0.8885,-0.8885,-0.8885,-0.8885,-0.8885,-0.8885,-0.8885,-0.8885,-0.8885,-0.8885,-0.8885,-0.8885,-0.8885,-0.8885,-0.8885,-0.8885,-0.8885,-0.8885,-0.8885,-0.8885,-0.8885,-0.8885,-0.8885,-0.8885,-0.8885,-0.8885,-0.8885,-0.8885,-0.8885,-0.8885,-0.8885,-0.8885,-0.8885,-0.8885,-0.8885,-0.8885,-0.8885,-0.9047,-0.9372,-1.0457,-1.2023,-1.4234,-1.6068,-1.6605,-1.547,-1.6823,-1.7582,-1.7582,-1.7582,-1.7582,-1.7582,-1.7582,-1.7582,-1.7582,-1.7582,-1.7582,-0.1798,-0.2521,-0.3818,-0.462,-0.5216,-0.5952,-0.7282,-0.677,-0.6273,-0.7366,0.0,0.0,0.0,0.0,0.0,0.0,0.0,0.0,0.0,0.0,0.0,0.0,0.0,0.0,0.0,0.0,0.0,0.0,0.0,0.0,0.0,0.0,0.0,0.0,0.0,-0.9412,-0.9412,-0.9412,-0.9479,-0.9608,-0.9618,-0.9544,-0.9398,-0.9408,-0.9412,-0.9412,-0.9401,-0.9398,-0.9398,-0.9388,-0.9354,-0.9224,-0.9224,-0.9083,-0.8898,-0.8888,-0.8885,-0.8885,-0.8885,-0.8885,-0.8885,-0.8885,-0.8885,-0.8885,-0.8885,-0.8885,-0.8885,-0.8885,-0.8885,-0.8885,-0.8885,-0.8885,-0.8885,-0.8885,-0.8885,-0.8885,-0.8885,-0.8885,-0.8885,-0.8885,-0.8885,-0.8885,-0.8885,-0.8885,-0.8885,-0.8885,-0.8885,-0.8885,-0.8885,-0.8885,-0.8885,-0.8885,-0.8885,-0.9427,-1.0836,-1.1055,-1.1214,-1.1378,-1.4019,-1.5524,-1.5417,-1.6823,-1.7582,-1.7582,-1.7582,-1.7582,-1.7582,-1.7582,-1.7582,-1.7582,-1.7582,-1.7582,-0.1447,-0.2081,-0.3333,-0.4624,-0.5347,-0.6027,-0.7193,-0.6932,-0.6746,-0.7801,-0.7597,0.0,0.0,0.0,0.0,0.0,0.0,0.0,0.0,0.0,0.0,0.0,0.0,0.0,0.0,0.0,0.0,0.0,0.0,0.0,0.0,0.0,0.0,0.0,0.0,-0.9381,-0.9381,-0.9381,-0.9361,-0.9327,-0.9422,-0.9439,-0.9381,-0.9381,-0.9381,-0.9381,-0.9381,-0.9327,-0.9296,-0.9296,-0.915,-0.9018,-0.9018,-0.8988,-0.8885,-0.8885,-0.8885,-0.8885,-0.8885,-0.8885,-0.8885,-0.8885,-0.8885,-0.8885,-0.8885,-0.8885,-0.8885,-0.8885,-0.8885,-0.8885,-0.8885,-0.8885,-0.8885,-0.8885,-0.8885,-0.8885,-0.8885,-0.8885,-0.8885,-0.8885,-0.8885,-0.8885,-0.8885,-0.8885,-0.8885,-0.8885,-0.8885,-0.8885,-0.8885,-0.8885,-0.8885,-0.8885,-0.8885,-0.9103,-0.9699,-0.9754,-0.9754,-0.9754,-1.2457,-1.4073,-1.4073,-1.4615,-1.5743,-1.7582,-1.6717,-1.6658,-1.7582,-1.7582,-1.7582,-1.7582,-1.7582,-1.7582,-0.1363,-0.2097,-0.3353,-0.4656,-0.5396,-0.6078,-0.7177,-0.7061,-0.7044,-0.8001,-0.7899,-0.7685,-0.7848,0.0,0.0,0.0,0.0,0.0,0.0,0.0,0.0,0.0,0.0,0.0,0.0,0.0,0.0,0.0,0.0,0.0,0.0,0.0,0.0,0.0,0.0,0.0,-0.9242,-0.9242,-0.9188,-0.9086,-0.9191,-0.9242,-0.9242,-0.9242,-0.9242,-0.9242,-0.9242,-0.9181,-0.9086,-0.9086,-0.9028,-0.8885,-0.8885,-0.8885,-0.8885,-0.8885,-0.8885,-0.8885,-0.8885,-0.8885,-0.8885,-0.8885,-0.8885,-0.8885,-0.8885,-0.8885,-0.8885,-0.8885,-0.8885,-0.8885,-0.8885,-0.8885,-0.8885,-0.8885,-0.8885,-0.8885,-0.8885,-0.8885,-0.8885,-0.8885,-0.8885,-0.8885,-0.8885,-0.8885,-0.8885,-0.8885,-0.8885,-0.8885,-0.8885,-0.8885,-0.8885,-0.8885,-0.8885,-0.8885,-0.8885,-0.8885,-0.8885,-0.8885,-1.0781,-1.2132,-1.2566,-1.3048,-1.4234,-1.6174,-1.5689,-1.5902,-1.6929,-1.7364,-1.7582,-1.7582,-1.7582,-1.7364,-0.1498,-0.2522,-0.3922,-0.4555,0.0,0.0,-0.7177,-0.7146,-0.7102,-0.784,-0.8401,-0.8662,-0.8509,0.0,0.0,0.0,0.0,0.0,0.0,0.0,0.0,0.0,0.0,0.0,0.0,0.0,0.0,0.0,0.0,0.0,0.0,0.0,0.0,0.0,0.0,0.0,-0.8885,-0.8885,-0.8885,-0.8885,-0.8885,-0.8885,-0.8885,-0.8885,-0.8885,-0.8885,-0.8885,-0.8885,-0.8885,-0.8885,-0.8885,-0.8885,-0.8885,-0.8885,-0.8885,-0.8885,-0.8885,-0.8885,-0.8885,-0.8885,-0.8885,-0.8885,-0.8885,-0.8885,-0.8885,-0.8885,-0.8885,-0.8885,-0.8885,-0.8885,-0.8885,-0.8885,-0.8885,-0.8885,-0.8885,-0.8885,-0.8885,-0.8885,-0.8885,-0.8885,-0.8885,-0.8885,-0.8885,-0.8885,-0.8885,-0.8885,-0.8885,-0.8885,-0.8885,-0.8885,-0.8885,-0.8885,-0.8885,-0.8885,-0.8885,-0.8885,-0.8885,-0.8885,-0.8885,-0.9537,-1.1055,-1.2512,-1.3264,-1.3318,-1.4663,-1.5364,-1.5364,-1.6823,-1.7582,-1.7582,-1.7582,-1.677,-0.0586,-0.1678,0.0,-0.3905,0.0,0.0,0.0,-0.7465,0.0,0.0,-0.8543,-0.8632,0.0,0.0,0.0,0.0,0.0,0.0,0.0,0.0,0.0,0.0,0.0,0.0,0.0,0.0,0.0,0.0,0.0,0.0,0.0,0.0,0.0,0.0,0.0,0.0,-0.8885,-0.8885,-0.8885,-0.8885,-0.8885,-0.8885,-0.8885,-0.8885,-0.8885,-0.8885,-0.8885,-0.8885,-0.8885,-0.8885,-0.8885,-0.8885,-0.8885,-0.8885,-0.8885,-0.8885,-0.8885,-0.8885,-0.8885,-0.8885,-0.8885,-0.8885,-0.8885,-0.8885,-0.8885,-0.8885,-0.8885,-0.8885,-0.8885,-0.8885,-0.8885,-0.8885,-0.8885,-0.8885,-0.8885,-0.8885,-0.8885,-0.8885,-0.8885,-0.8885,-0.8885,-0.8885,-0.8885,-0.8885,-0.8885,-0.8885,-0.8885,-0.8885,-0.8885,-0.8885,-0.8885,-0.8885,-0.8885,-0.8885,-0.8885,-0.8885,-0.8885,-0.8885,-0.8885,-0.9537,-1.1055,-1.0511,-1.116,-1.3264,-1.267,-1.2886,-1.3911,-1.4341,-1.4556,-1.4556,-1.4556,-1.4341,-0.1772,-0.2871,0.0,-0.4909,-0.5848,-0.6746,-0.7584,0.0,0.0,0.0,0.0,0.0,0.0,0.0,0.0,0.0,0.0,0.0,0.0,0.0,0.0,0.0,0.0,0.0,0.0,0.0,0.0,0.0,0.0,0.0,0.0,0.0,0.0,0.0,0.0,0.0,-0.8885,-0.8885,-0.8885,-0.8885,-0.8885,-0.8885,-0.8885,-0.8885,-0.8885,-0.8885,-0.8885,-0.8885,-0.8885,-0.8885,-0.8885,-0.8885,-0.8885,-0.8885,-0.8885,-0.8885,-0.8885,-0.8885,-0.8885,-0.8885,-0.8885,-0.8885,-0.8885,-0.8885,-0.8885,-0.8885,-0.8885,-0.8885,-0.8885,-0.8885,-0.8885,-0.8885,-0.8885,-0.8885,-0.8885,-0.8885,-0.8885,-0.8885,-0.8885,-0.8885,-0.8885,-0.8885,-0.8885,-0.8885,-0.8885,-0.8885,-0.8885,-0.8885,-0.8885,-0.8885,-0.8885,-0.8885,-0.8885,-0.8885,-0.8885,-0.8885,-0.8885,-0.8885,-0.8885,-0.932,-1.0186,-0.9372,-0.9754,-1.1542,-1.1269,-1.1538,-1.2403,-1.2994,-1.3318,-1.3318,-1.3318,-1.2999,-0.395,0.0,0.0,-0.6774,-0.6947,0.0,-0.7864,0.0,0.0,0.0,0.0,0.0,0.0,0.0,0.0,0.0,0.0,0.0,0.0,0.0,0.0,0.0,0.0,0.0,0.0,0.0,0.0,0.0,0.0,0.0,0.0,0.0,0.0,0.0,0.0,0.0,-0.8885,-0.8885,-0.8885,0.0,-0.8885,-0.8885,-0.8885,-0.8885,-0.8885,-0.8885,-0.8885,-0.8885,-0.8885,-0.8885,-0.8885,-0.8885,-0.8885,-0.8885,-0.8885,-0.8885,-0.8885,-0.8885,-0.8885,-0.8885,-0.8885,-0.8885,-0.8885,-0.8885,-0.8885,-0.8885,-0.8885,-0.8885,-0.8885,-0.8885,-0.8885,-0.8885,-0.8885,-0.8885,-0.8885,-0.8885,-0.8885,-0.8885,-0.8885,-0.8885,-0.8885,-0.8885,-0.8885,-0.8885,-0.8885,-0.8885,-0.8885,-0.8885,-0.8885,-0.8885,-0.8885,-0.8885,-0.8885,-0.8885,-0.8885,-0.8885,-0.8885,-0.8885,-0.8885,-0.8885,-0.8885,-0.8885,-0.8885,-0.8885,-1.0241,-1.0891,-1.0891,-1.224,-1.2886,-1.2886,-1.2886,-1.2186,-0.2302,-0.3717,0.0,0.0,-0.6599,-0.7617,0.0,0.0,0.0,0.0,0.0,0.0,0.0,0.0,0.0,0.0,0.0,0.0,0.0,0.0,0.0,0.0,0.0,0.0,0.0,0.0,0.0,0.0,0.0,0.0,0.0,0.0,0.0,0.0,0.0,-0.8885,-0.8885,-0.8885,-0.8885,0.0,-0.8885,-0.8885,-0.8885,-0.8885,-0.8885,-0.8885,-0.8885,-0.8885,-0.8885,-0.8885,-0.8885,-0.8885,-0.8885,-0.8885,-0.8885,-0.8885,-0.8885,-0.8885,-0.8885,-0.8885,-0.8885,-0.8885,-0.8885,-0.8885,-0.8885,-0.8885,-0.8885,-0.8885,-0.8885,-0.8885,-0.8885,-0.8885,-0.8885,-0.8885,-0.8885,-0.8885,-0.8885,-0.8885,-0.8885,-0.8885,-0.8885,-0.8885,-0.8885,-0.8885,-0.8885,-0.8885,-0.8885,-0.8885,-0.8885,-0.8885,-0.8885,-0.8885,-0.8885,-0.8885,-0.8885,-0.8885,-0.8885,-0.8885,-0.8885,-0.8885,-0.8885,-0.8885,-0.8885,-0.8885,-0.921,-0.9372,-0.9372,-0.9699,-0.986,-0.986,-0.986,-0.9699,-0.281,0.0,0.0,-0.622,0.0,0.0,0.0,0.0,0.0,0.0,0.0,0.0,0.0,0.0,0.0,0.0,0.0,0.0,0.0,0.0,0.0,0.0,0.0,0.0,0.0,0.0,0.0,0.0,0.0,0.0,0.0,0.0,0.0,0.0,-0.8885,-0.8885,-0.8885,-0.8885,-0.8885,-0.8885,-0.8885,-0.8885,-0.8885,-0.8885,-0.8885,-0.8885,-0.8885,-0.8885,-0.8885,-0.8885,-0.8885,-0.8885,-0.8885,-0.8885,-0.8885,-0.8885,-0.8885,-0.8885,-0.8885,-0.8885,-0.8885,-0.8885,-0.8885,-0.8885,-0.8885,-0.8885,-0.8885,-0.8885,-0.8885,-0.8885,-0.8885,-0.8885,-0.8885,-0.8885,-0.8885,-0.8885,-0.8885,-0.8885,-0.8885,-0.8885,-0.8885,-0.8885,-0.8885,-0.8885,-0.8885,-0.8885,-0.8885,-0.8885,-0.8885,-0.8885,-0.8885,-0.8885,-0.8885,-0.8885,-0.8885,-0.8885,-0.8885,-0.8885,-0.8885,-0.8885,-0.8885,-0.8885,-0.8885,-0.8885,-0.8885,-0.8885,-0.8885,-0.8885,-0.8885,-0.8885,-0.8885,-0.8885,-0.3543,0.0,-0.5543,-0.6929,-0.7729,0.0,0.0,0.0,0.0,0.0,0.0,0.0,0.0,0.0,0.0,0.0,0.0,0.0,0.0,0.0,0.0,0.0,0.0,0.0,0.0,0.0,0.0,0.0,0.0,0.0,0.0,0.0,-0.8885,-0.8885,-0.8885,-0.8885,-0.8885,-0.8885,-0.8885,-0.8885,-0.8885,-0.8885,-0.8885,-0.8885,-0.8885,-0.8885,-0.8885,-0.8885,-0.8885,-0.8885,-0.8885,-0.8885,-0.8885,-0.8885,-0.8885,-0.8885,-0.8885,-0.8885,-0.8885,-0.8885,-0.8885,-0.8885,-0.8885,-0.8885,-0.8885,-0.8885,-0.8885,-0.8885,-0.8885,-0.8885,-0.8885,-0.8885,-0.8885,-0.8885,-0.8885,-0.8885,-0.8885,-0.8885,-0.8885,-0.8885,-0.8885,-0.8885,-0.8885,-0.8885,-0.8885,-0.8885,-0.8885,-0.8885,-0.8885,-0.8885,-0.8885,-0.8885,-0.8885,-0.8885,-0.8885,-0.8885,-0.8885,-0.8885,-0.8885,-0.8885,-0.8885,-0.8885,-0.8885,-0.8885,-0.8885,-0.8885,-0.8885,-0.8885,-0.8885,-0.8885,-0.8885,-0.8885,0.0,0.0,-0.5607,0.0,0.0,0.0,0.0,0.0,0.0,0.0,0.0,0.0,0.0,0.0,0.0,0.0,0.0,0.0,0.0,0.0,0.0,0.0,0.0,0.0,0.0,0.0,0.0,0.0,0.0,0.0,0.0,-0.8885,-0.8885,-0.8885,-0.8885,-0.8885,-0.8885,-0.8885,-0.8885,-0.8885,-0.8885,-0.8885,-0.8885,-0.8885,-0.8885,-0.8885,-0.8885,-0.8885,-0.8885,-0.8885,-0.8885,-0.8885,-0.8885,-0.8885,-0.8885,-0.8885,-0.8885,-0.8885,-0.8885,-0.8885,-0.8885,-0.8885,-0.8885,-0.8885,-0.8885,-0.8885,-0.8885,-0.8885,-0.8885,-0.8885,-0.8885,-0.8885,-0.8885,-0.8885,-0.8885,-0.8885,-0.8885,-0.8885,-0.8885,-0.8885,-0.8885,-0.8885,-0.8885,-0.8885,-0.8885,-0.8885,-0.8885,-0.8885,-0.8885,-0.8885,-0.8885,-0.8885,-0.8885,-0.8885,-0.8885,-0.8885,-0.8885,-0.8885,-0.8885,-0.8885,-0.8885,-0.8885,-0.8885,-0.8885,-0.8885,-0.8885,-0.8885,-0.8885,-0.8885,-0.8885,-0.8885,-0.8885,-0.1605,-0.3046,-0.4387,0.0,0.0,0.0,0.0,0.0,0.0,0.0,0.0,0.0,0.0,0.0,0.0,0.0,0.0,0.0,0.0,0.0,0.0,0.0,0.0,0.0,0.0,0.0,0.0,0.0,0.0,0.0,-0.8885,-0.8885,-0.8885,-0.8885,-0.8885,-0.8885,-0.8885,-0.8885,-0.8885,-0.8885,-0.8885,-0.8885,-0.8885,-0.8885,-0.8885,-0.8885,-0.8885,-0.8885,-0.8885,-0.8885,-0.8885,-0.8885,-0.8885,-0.8885,-0.8885,-0.8885,-0.8885,-0.8885,-0.8885,-0.8885,-0.8885,-0.8885,-0.8885,-0.8885,-0.8885,-0.8885,-0.8885,-0.8885,-0.8885,-0.8885,-0.8885,-0.8885,-0.8885,-0.8885,-0.8885,-0.8885,-0.8885,-0.8885,-0.8885,-0.8885,-0.8885,-0.8885,-0.8885,-0.8885,-0.8885,-0.8885,-0.8885,-0.8885,-0.8885,-0.8885,-0.8885,-0.8885,-0.8885,-0.8885,-0.8885,-0.8885,-0.8885,-0.8885,-0.8885,-0.8885,-0.8885,-0.8885,-0.8885,-0.8885,-0.8885,-0.8885,-0.8885,-0.8885,-0.8885,-0.8885,-0.8885,-0.8885,0.0,0.0,0.0,0.0,0.0,0.0,0.0,0.0,0.0,0.0,0.0,0.0,0.0,0.0,0.0,0.0,0.0,0.0,0.0,0.0,0.0,0.0,0.0,0.0,0.0,0.0,0.0,0.0,0.0,0.0,-0.8885,-0.8885,-0.8885,-0.8885,-0.8885,-0.8885,-0.8885,-0.8885,-0.8885,-0.8885,-0.8885,-0.8885,-0.8885,-0.8885,-0.8885,-0.8885,-0.8885,-0.8885,-0.8885,-0.8885,-0.8885,-0.8885,-0.8885,-0.8885,-0.8885,-0.8885,-0.8885,-0.8885,-0.8885,-0.8885,-0.8885,-0.8885,-0.8885,-0.8885,-0.8885,-0.8885,-0.8885,-0.8885,-0.8885,-0.8885,-0.8885,-0.8885,-0.8885,-0.8885,-0.8885,-0.8885,-0.8885,-0.8885,-0.8885,-0.8885,-0.8885,-0.8885,-0.8885,-0.8885,-0.8885,-0.8885,-0.8885,-0.8885,-0.8885,-0.8885,-0.8885,-0.8885,-0.8885,-0.8885,-0.8885,-0.8885,-0.8885,-0.8885,-0.8885,-0.8885,-0.8885,-0.8885,-0.8885,-0.8885,-0.8885,-0.8885,-0.8885,-0.8885,-0.8885,-0.8885,-0.8885,-0.8885,0.0,0.0,0.0,0.0,0.0,0.0,0.0,0.0,0.0,0.0,0.0,0.0,0.0,0.0,0.0,0.0,0.0,0.0,0.0,0.0,0.0,0.0,0.0,0.0,0.0,0.0,0.0,0.0,0.0,0.0,-0.8885,-0.8885,-0.8885,-0.8885,-0.8885,-0.8885,-0.8885,-0.8885,-0.8885,-0.8885,-0.8885,-0.8885,-0.8885,-0.8885,-0.8885,-0.8885,-0.8885,-0.8885,-0.8885,-0.8885,-0.8885,-0.8885,-0.8885,-0.8885,-0.8885,-0.8885,-0.8885,-0.8885,-0.8885,-0.8885,-0.8885,-0.8885,-0.8885,-0.8885,-0.8885,-0.8885,-0.8885,-0.8885,-0.8885,-0.8885,-0.8885,-0.8885,-0.8885,-0.8885,-0.8885,-0.8885,-0.8885,-0.8885,-0.8885,-0.8885,-0.8885,-0.8885,-0.8885,-0.8885,-0.8885,-0.8885,-0.8885,-0.8885,-0.8885,-0.8885,-0.8885,-0.8885,-0.8885,-0.8885,-0.8885,-0.8885,-0.8885,-0.8885,-0.8885,-0.8885,-0.8885,-0.8885,-0.8885,-0.8885,-0.8885,-0.8885,-0.8885,-0.8885,-0.8885,-0.8885,-0.8885,-0.8885,0.0,0.0,0.0,0.0,0.0,0.0,0.0,0.0,0.0,0.0,0.0,0.0,0.0,0.0,0.0,0.0,0.0,0.0,0.0,0.0,0.0,0.0,0.0,0.0,0.0,0.0,0.0,0.0,0.0,0.0,-0.8878,-0.879,-0.8835,-0.8878,-0.8885,-0.8885,-0.8885,-0.8885,-0.8885,-0.8885,-0.8885,-0.8885,-0.8885,-0.8885,-0.8885,-0.8885,-0.8885,-0.8885,-0.8885,-0.8885,-0.8885,-0.8885,-0.8885,-0.8885,-0.8885,-0.8885,-0.8885,-0.8885,-0.8885,-0.8885,-0.8885,-0.8885,-0.8885,-0.8885,-0.8885,-0.8885,-0.8885,-0.8885,-0.8885,-0.8885,-0.8885,-0.8885,-0.8885,-0.8885,-0.8885,-0.8885,-0.8885,-0.8885,-0.8885,-0.8885,-0.8885,-0.8885,-0.8885,-0.8885,-0.8885,-0.8885,-0.8885,-0.8885,-0.8885,-0.8885,-0.8885,-0.8885,-0.8885,-0.8885,-0.8885,-0.8885,-0.8885,-0.8885,-0.8885,-0.8885,-0.8885,-0.8885,-0.8885,-0.8885,-0.8885,-0.8885,-0.8885,-0.8885,-0.8885,-0.8885,-0.8885,-0.8885,0.0,0.0,0.0,0.0,0.0,0.0,0.0,0.0,0.0,0.0,0.0,0.0,0.0,0.0,0.0,0.0,0.0,0.0,0.0,0.0,0.0,0.0,0.0,0.0,0.0,0.0,0.0,0.0,0.0,0.0,-0.8878,-0.8842,-0.8832,-0.8878,-0.8885,-0.8885,-0.8885,-0.8885,-0.8885,-0.8885,-0.8885,-0.8885,-0.8885,-0.8885,-0.8885,-0.8885,-0.8885,-0.8885,-0.8885,-0.8885,-0.8885,-0.8885,-0.8885,-0.8885,-0.8885,-0.8885,-0.8885,-0.8885,-0.8885,-0.8885,-0.8885,-0.8885,-0.8885,-0.8885,-0.8885,-0.8885,-0.8885,-0.8885,-0.8885,-0.8885,-0.8885,-0.8885,-0.8885,-0.8885,-0.8885,-0.8885,-0.8885,-0.8885,-0.8885,-0.8885,-0.8885,-0.8885,-0.8885,-0.8885,-0.8885,-0.8885,-0.8885,-0.8885,-0.8885,-0.8885,-0.8885,-0.8885,-0.8885,-0.8885,-0.8885,-0.8885,-0.8885,-0.8885,-0.8885,-0.8885,-0.8885,-0.8885,-0.8885,-0.8885,-0.8885,-0.8885,-0.8885,-0.8885,-0.8885,-0.8885,-0.8885,-0.8885,0.0,0.0,0.0,0.0,0.0,0.0,0.0,0.0,0.0,0.0,0.0,0.0,0.0,0.0,0.0,0.0,0.0,0.0,0.0,0.0,0.0,0.0,0.0,0.0,0.0,0.0,0.0,0.0,0.0,-0.8878,-0.8885,-0.8885,-0.8885,-0.8885,-0.8885,-0.8885,-0.8885,-0.8885,-0.8885,-0.8885,-0.8885,-0.8885,-0.8885,-0.8885,-0.8885,-0.8885,-0.8885,-0.8885,-0.8885,-0.8885,-0.8885,-0.8885,-0.8885,-0.8885,-0.8885,-0.8885,-0.8885,-0.8885,-0.8885,-0.8885,-0.8885,-0.8885,-0.8885,-0.8885,-0.8885,-0.8885,-0.8885,-0.8885,-0.8885,-0.8885,-0.8885,-0.8885,-0.8885,-0.8885,-0.8885,-0.8885,-0.8885,-0.8885,-0.8885,-0.8885,-0.8885,-0.8885,-0.8885,-0.8885,-0.8885,-0.8885,-0.8885,-0.8885,-0.8885,-0.8885,-0.8885,-0.8885,-0.8885,-0.8885,-0.8885,-0.8885,-0.8885,-0.8885,-0.8885,-0.8885,-0.8885,-0.8885,-0.8885,-0.8885,-0.8885,-0.8885,-0.8885,-0.8885,-0.8885,-0.8885,-0.8885,-0.8885,0.0,0.0,0.0,0.0,0.0,0.0,0.0,0.0,0.0,0.0,0.0,0.0,0.0,0.0,0.0,0.0,0.0,0.0,0.0,0.0,0.0,0.0,0.0,0.0,0.0,0.0,0.0,0.0,-0.8835,-0.8821,-0.8878,-0.8885,-0.8885,-0.8885,-0.8885,-0.8885,-0.8885,-0.8885,-0.8885,-0.8885,-0.8885,-0.8885,-0.8885,-0.8885,-0.8885,-0.8885,-0.8885,-0.8885,-0.8885,-0.8885,-0.8885,-0.8885,-0.8885,-0.8885,-0.8885,-0.8885,-0.8885,-0.8885,-0.8885,-0.8885,-0.8885,-0.8885,-0.8885,-0.8885,-0.8885,-0.8885,-0.8885,-0.8885,-0.8885,-0.8885,-0.8885,-0.8885,-0.8885,-0.8885,-0.8885,-0.8885,-0.8885,-0.8885,-0.8885,-0.8885,-0.8885,-0.8885,-0.8885,-0.8885,-0.8885,-0.8885,-0.8885,-0.8885,-0.8885,-0.8885,-0.8885,-0.8885,-0.8885,-0.8885,-0.8885,-0.8885,-0.8885,-0.8885,-0.8885,-0.8885,-0.8885,-0.8885,-0.8885,-0.8885,-0.8885,-0.8885,-0.8885,-0.8885,-0.8885,-0.8885,-0.8885,-0.8885,0.0,0.0,0.0,0.0,0.0,0.0,0.0,0.0,0.0,0.0,0.0,0.0,0.0,0.0,0.0,0.0,0.0,0.0,0.0,0.0,0.0,0.0,0.0,0.0,0.0,0.0,0.0,0.0,-0.8818,-0.8845,-0.8878,-0.8885,-0.8885,-0.8885,-0.8885,-0.8885,-0.8885,-0.8885,-0.8885,-0.8885,-0.8885,-0.8885,-0.8885,-0.8885,-0.8885,-0.8885,-0.8885,-0.8885,-0.8885,-0.8885,-0.8885,-0.8885,-0.8885,-0.8885,-0.8885,-0.8885,-0.8885,-0.8885,-0.8885,-0.8885,-0.8885,-0.8885,-0.8885,-0.8885,-0.8885,-0.8885,-0.8885,-0.8885,-0.8885,-0.8885,-0.8885,-0.8885,-0.8885,-0.8885,-0.8885,-0.8885,-0.8885,-0.8885,-0.8885,-0.8885,-0.8885,-0.8885,-0.8885,-0.8885,-0.8885,-0.8885,-0.8885,-0.8885,-0.8885,-0.8885,-0.8885,-0.8885,-0.8885,-0.8885,-0.8885,-0.8885,-0.8885,-0.8885,-0.8885,-0.8885,-0.8885,-0.8885,-0.8885,-0.8885,-0.8885,-0.8885,-0.8885,-0.8885,-0.8885,-0.8885,-0.8885,-0.8885,0.0,0.0,0.0,0.0,0.0,0.0,0.0,0.0,0.0,0.0,0.0,0.0,0.0,0.0,0.0,0.0,0.0,0.0,0.0,0.0,0.0,0.0,0.0,0.0,0.0,0.0,-0.8686,-0.8686,-0.8825,-0.8858,-0.8858,-0.8875,-0.8885,-0.8885,-0.8885,-0.8885,-0.8885,-0.8885,-0.8885,-0.8885,-0.8885,-0.8885,-0.8885,-0.8885,-0.8885,-0.8885,-0.8885,-0.8885,-0.8885,-0.8885,-0.8885,-0.8885,-0.8885,-0.8885,-0.8885,-0.8885,-0.8885,-0.8885,-0.8885,-0.8885,-0.8885,-0.8885,-0.8885,-0.8885,-0.8885,-0.8885,-0.8885,-0.8885,-0.8885,-0.8885,-0.8885,-0.8885,-0.8885,-0.8885,-0.8885,-0.8885,-0.8885,-0.8885,-0.8885,-0.8885,-0.8885,-0.8885,-0.8885,-0.8885,-0.8885,-0.8885,-0.8885,-0.8885,-0.8885,-0.8885,-0.8885,-0.8885,-0.8885,-0.8885,-0.8885,-0.8885,-0.8885,-0.8885,-0.8885,-0.8885,-0.8885,-0.8885,-0.8885,-0.8885,-0.8885,-0.8885,-0.8885,-0.8885,-0.8885,-0.8885,-0.8885,-0.8885,0.0,0.0,0.0,0.0,0.0,0.0,0.0,0.0,0.0,0.0,0.0,0.0,0.0,0.0,0.0,0.0,0.0,0.0,0.0,0.0,0.0,0.0,0.0,0.0,0.0,0.0,-0.8526,-0.8526,-0.8669,-0.8754,-0.8754,-0.8817,-0.8885,-0.8885,-0.8885,-0.8885,-0.8885,-0.8885,-0.8885,-0.8885,-0.8885,-0.8885,-0.8885,-0.8885,-0.8885,-0.8885,-0.8885,-0.8885,-0.8885,-0.8885,-0.8885,-0.8885,-0.8885,-0.8885,-0.8885,-0.8885,-0.8885,-0.8885,-0.8885,-0.8885,-0.8885,-0.8885,-0.8885,-0.8885,-0.8885,-0.8885,-0.8885,-0.8885,-0.8885,-0.8885,-0.8885,-0.8885,-0.8885,-0.8885,-0.8885,-0.8885,-0.8885,-0.8885,-0.8885,-0.8885,-0.8885,-0.8885,-0.8885,-0.8885,-0.8885,-0.8885,-0.8885,-0.8885,-0.8885,-0.8885,-0.8885,-0.8885,-0.8885,-0.8885,-0.8885,-0.8885,-0.8885,-0.8885,-0.8885,-0.8885,-0.8885,-0.8885,-0.8885,-0.8885,-0.8885,-0.8885,-0.8885,-0.8885,-0.8885,-0.8885,-0.8885,-0.8885,0.0,0.0,0.0,0.0,0.0,0.0,0.0,0.0,0.0,0.0,0.0,0.0,0.0,0.0,0.0,0.0,0.0,0.0,0.0,0.0,0.0,0.0,0.0,0.0,0.0,0.0,-0.6665,-0.7469,-0.8176,-0.8598,-0.8598,-0.8743,-0.8825,-0.8825,-0.8844,-0.8885,-0.8885,-0.8885,-0.8885,-0.8885,-0.8885,-0.8885,-0.8885,-0.8885,-0.8885,-0.8885,-0.8885,-0.8885,-0.8885,-0.8885,-0.8885,-0.8885,-0.8885,-0.8885,-0.8885,-0.8885,-0.8885,-0.8885,-0.8885,-0.8885,-0.8885,-0.8885,-0.8885,-0.8885,-0.8885,-0.8885,-0.8885,-0.8885,-0.8885,-0.8885,-0.8885,-0.8885,-0.8885,-0.8885,-0.8885,-0.8885,-0.8885,-0.8885,-0.8885,-0.8885,-0.8885,-0.8885,-0.8885,-0.8885,-0.8885,-0.8885,-0.8885,-0.8885,-0.8885,-0.8885,-0.8885,-0.8885,-0.8885,-0.8885,-0.8885,-0.8885,-0.8885,-0.8885,-0.8885,-0.8885,-0.8885,-0.8885,-0.8885,-0.8885,-0.8885,-0.8885,-0.8885,-0.8885,-0.8885,-0.8885,-0.8885,-0.8885,0.0,0.0,0.0,0.0,0.0,0.0,0.0,0.0,0.0,0.0,0.0,0.0,0.0,0.0,0.0,0.0,0.0,0.0,0.0,0.0,0.0,0.0,0.0,0.0,0.0,0.0,-0.4787,-0.6287,-0.7421,-0.8174,-0.8442,-0.8584,-0.8665,-0.8665,-0.8815,-0.8841,-0.8841,-0.8868,-0.8885,-0.8885,-0.8885,-0.8885,-0.8885,-0.8885,-0.8885,-0.8885,-0.8885,-0.8885,-0.8885,-0.8885,-0.8885,-0.8885,-0.8885,-0.8885,-0.8885,-0.8885,-0.8885,-0.8885,-0.8885,-0.8885,-0.8885,-0.8885,-0.8885,-0.8885,-0.8885,-0.8885,-0.8885,-0.8885,-0.8885,-0.8885,-0.8885,-0.8885,-0.8885,-0.8885,-0.8885,-0.8885,-0.8885,-0.8885,-0.8885,-0.8885,-0.8885,-0.8885,-0.8885,-0.8885,-0.8885,-0.8885,-0.8885,-0.8885,-0.8885,-0.8885,-0.8885,-0.8885,-0.8885,-0.8885,-0.8885,-0.8885,-0.8885,-0.8885,-0.8885,-0.8885,-0.8885,-0.8885,-0.8885,-0.8885,-0.8885,-0.8885,-0.8885,-0.8885,-0.8885,-0.8885,-0.8885,-0.8885,0.0,0.0,0.0,0.0,0.0,0.0,0.0,0.0,0.0,0.0,0.0,0.0,0.0,0.0,0.0,0.0,0.0,0.0,0.0,0.0,0.0,0.0,0.0,0.0,0.0,0.0,0.0,-0.5957,-0.6361,-0.7093,-0.8241,-0.8431,-0.8509,-0.8509,-0.8655,-0.8737,-0.8737,-0.8814,-0.8885,-0.8885,-0.8885,-0.8885,-0.8885,-0.8885,-0.8885,-0.8885,-0.8885,-0.8885,-0.8885,-0.8885,-0.8885,-0.8885,-0.8885,-0.8885,-0.8885,-0.8885,-0.8885,-0.8885,-0.8885,-0.8885,-0.8885,-0.8885,-0.8885,-0.8885,-0.8885,-0.8885,-0.8885,-0.8885,-0.8885,-0.8885,-0.8885,-0.8885,-0.8885,-0.8885,-0.8885,-0.8885,-0.8885,-0.8885,-0.8885,-0.8885,-0.8885,-0.8885,-0.8885,-0.8885,-0.8885,-0.8885,-0.8885,-0.8885,-0.8885,-0.8885,-0.8885,-0.8885,-0.8885,-0.8885,-0.8885,-0.8885,-0.8885,-0.8885,-0.8885,-0.8885,-0.8885,-0.8885,-0.8885,-0.8885,-0.8885,-0.8885,-0.8885,-0.8885,-0.8885,-0.8885,-0.8885,-0.8885,0.0,0.0,0.0,0.0,0.0,0.0,0.0,0.0,0.0,0.0,0.0,0.0,0.0,0.0,0.0,0.0,0.0,0.0,0.0,0.0,0.0,0.0,0.0,0.0,0.0,0.0,0.0,0.0,0.0,-0.664,-0.783,-0.8187,-0.836,-0.836,-0.8503,-0.8577,-0.8577,-0.873,-0.8808,-0.8808,-0.8841,-0.8885,-0.8885,-0.8885,-0.8885,-0.8885,-0.8885,-0.8885,-0.8885,-0.8885,-0.8885,-0.8885,-0.8885,-0.8885,-0.8885,-0.8885,-0.8885,-0.8885,-0.8885,-0.8885,-0.8885,-0.8885,-0.8885,-0.8885,-0.8885,-0.8885,-0.8885,-0.8885,-0.8885,-0.8885,-0.8885,-0.8885,-0.8885,-0.8885,-0.8885,-0.8885,-0.8885,-0.8885,-0.8885,-0.8885,-0.8885,-0.8885,-0.8885,-0.8885,-0.8885,-0.8885,-0.8885,-0.8885,-0.8885,-0.8885,-0.8885,-0.8885,-0.8885,-0.8885,-0.8885,-0.8885,-0.8885,-0.8885,-0.8885,-0.8885,-0.8885,-0.8885,-0.8885,-0.8885,-0.8885,-0.8885,-0.8885,-0.8885,-0.8885,-0.8885,-0.8885,-0.8885,0.0,0.0,0.0,0.0,0.0,0.0,0.0,0.0,0.0,0.0,0.0,0.0,0.0,0.0,0.0,0.0,0.0,0.0,0.0,0.0,0.0,0.0,0.0,0.0,0.0,0.0,0.0,0.0,-0.4573,-0.5931,-0.712,-0.7836,-0.8208,-0.8208,-0.8347,-0.8425,-0.8425,-0.8574,-0.8669,-0.8713,-0.8821,-0.8844,-0.8885,-0.8885,-0.8885,-0.8885,-0.8885,-0.8885,-0.8885,-0.8885,-0.8885,-0.8885,-0.8885,-0.8885,-0.8885,-0.8885,-0.8885,-0.8885,-0.8885,-0.8885,-0.8885,-0.8885,-0.8885,-0.8885,-0.8885,-0.8885,-0.8885,-0.8885,-0.8885,-0.8885,-0.8885,-0.8885,-0.8885,-0.8885,-0.8885,-0.8885,-0.8885,-0.8885,-0.8885,-0.8885,-0.8885,-0.8885,-0.8885,-0.8885,-0.8885,-0.8885,-0.8885,-0.8885,-0.8885,-0.8885,-0.8885,-0.8885,-0.8885,-0.8885,-0.8885,-0.8885,-0.8885,-0.8885,-0.8885,-0.8885,-0.8885,-0.8885,-0.8885,-0.8885,-0.8885,-0.8885,-0.8885,-0.8885,-0.8885,-0.8885,-0.8885,-0.8885,0.0,0.0,0.0,0.0,0.0,0.0,0.0,0.0,0.0,0.0,0.0,0.0,0.0,0.0,0.0,0.0,0.0,0.0,0.0,0.0,0.0,0.0,0.0,0.0,0.0,0.0,0.0,-0.1931,-0.33,-0.4651,-0.5976,-0.7287,-0.7995,-0.7995,-0.8197,-0.833,-0.833,-0.8418,-0.8564,-0.871,-0.8716,-0.8794,-0.8885,-0.8885,-0.8885,-0.8885,-0.8885,-0.8885,-0.8885,-0.8885,-0.8885,-0.8885,-0.8885,-0.8885,-0.8885,-0.8885,-0.8885,-0.8885,-0.8885,-0.8885,-0.8885,-0.8885,-0.8885,-0.8885,-0.8885,-0.8885,-0.8885,-0.8885,-0.8885,-0.8885,-0.8885,-0.8885,-0.8885,-0.8885,-0.8885,-0.8885,-0.8885,-0.8885,-0.8885,-0.8885,-0.8885,-0.8885,-0.8885,-0.8885,-0.8885,-0.8885,-0.8885,-0.8885,-0.8885,-0.8885,-0.8885,-0.8885,-0.8885,-0.8885,-0.8885,-0.8885,-0.8885,-0.8885,-0.8885,-0.8885,-0.8885,-0.8885,-0.8885,-0.8885,-0.8885,-0.8885,-0.8885,-0.8885,-0.8885,-0.8885,-0.8885,-0.8885,0.0,0.0,0.0,0.0,0.0,0.0,0.0,0.0,0.0,0.0,0.0,0.0,0.0,0.0,0.0,0.0,0.0,0.0,0.0,0.0,0.0,0.0,0.0,0.0,0.0,0.0,0.0,-0.1627,-0.2302,-0.3456,0.0,-0.6209,-0.7017,-0.7702,-0.7991,-0.8116,-0.8116,-0.8265,-0.8414,-0.856,-0.8662,-0.8791,-0.8885,-0.8885,-0.8885,-0.8885,-0.8885,-0.8885,-0.8885,-0.8885,-0.8885,-0.8885,-0.8885,-0.8885,-0.8885,-0.8885,-0.8885,-0.8885,-0.8885,-0.8885,-0.8885,-0.8885,-0.8885,-0.8885,-0.8885,-0.8885,-0.8885,-0.8885,-0.8885,-0.8885,-0.8885,-0.8885,-0.8885,-0.8885,-0.8885,-0.8885,-0.8885,-0.8885,-0.8885,-0.8885,-0.8885,-0.8885,-0.8885,-0.8885,-0.8885,-0.8885,-0.8885,-0.8885,-0.8885,-0.8885,-0.8885,-0.8885,-0.8885,-0.8885,-0.8885,-0.8885,-0.8885,-0.8885,-0.8885,-0.8885,-0.8885,-0.8885,-0.8885,-0.8885,-0.8885,-0.8885,-0.8885,-0.8885,-0.8885,-0.8885,-0.8885,-0.8885,0.0,0.0,0.0,0.0,0.0,0.0,0.0,0.0,0.0,0.0,0.0,0.0,0.0,0.0,0.0,0.0,0.0,0.0,0.0,0.0,0.0,0.0,0.0,0.0,0.0,0.0,-0.0283,-0.0983,-0.1621,-0.2596,0.0,0.0,-0.6308,-0.7026,-0.7638,-0.7988,-0.7988,-0.814,-0.8262,-0.8408,-0.8021,-0.8218,-0.8804,-0.8355,-0.838,-0.8885,-0.8885,-0.8885,-0.8885,-0.8885,-0.8885,-0.8885,-0.8885,-0.8885,-0.8885,-0.8885,-0.8885,-0.8885,-0.8885,-0.8885,-0.8885,-0.8885,-0.8885,-0.8885,-0.8885,-0.8885,-0.8885,-0.8885,-0.8885,-0.8885,-0.8885,-0.8885,-0.8885,-0.8885,-0.8885,-0.8885,-0.8885,-0.8885,-0.8885,-0.8885,-0.8885,-0.8885,-0.8885,-0.8885,-0.8885,-0.8885,-0.8885,-0.8885,-0.8885,-0.8885,-0.8885,-0.8885,-0.8885,-0.8885,-0.8885,-0.8885,-0.8885,-0.8885,-0.8885,-0.8885,-0.8885,-0.8885,-0.8885,-0.8885,-0.8885,-0.8885,-0.8885,-0.8885,-0.8885,-0.8885,-0.8885,-0.8885]}]]